[[{"header":{"parameterUnit":"m.s-1","parameterCategory":1,"la1":31.0,"la2":29.5877,"lo1":-88.7671,"lo2":-86.6584,"dy":0.0162,"dx":0.0185,"nx":115,"ny":88,"refTime":"2023-06-15T18:00:00:Z","depth":0,"parameterNumber":2,"parameterNumberName":"U-component_of_WINDS"},"data":[0.0,0.0,0.0,0.0,0.0,0.0,0.0,0.0,0.0,0.0,0.0,0.0,0.0,0.0,0.0,0.0,0.0,0.0,0.0,0.0,0.0,0.0,0.0,0.0,0.0,0.0,0.0,0.0,0.0,0.0,0.0,0.0,0.0,0.0,0.0,0.0,0.0,0.0,0.0,0.0,0.0,0.0,0.0,0.0,0.0,0.0,0.0,0.0,0.0,0.0,0.0,0.0,0.0,0.0,0.0,0.0,0.0,0.0,0.0,0.0,0.0,0.0,0.0,0.0,0.0,0.0,0.0,0.0,0.0,0.0,0.0,0.0,0.0,0.0,0.0,0.0,0.0,0.0,0.0,0.0,0.0,0.0,0.0,0.0,0.0,0.0,0.0,0.0,0.0,0.0,0.0,0.0,0.0,0.0,0.0,0.0,0.0,0.0,0.0,0.0,0.0,0.0,0.0,0.0,0.0,0.0,0.0,0.0,0.0,0.0,0.0,0.0,0.0,0.0,0.0,0.0,0.0,0.0,0.0,0.0,0.0,0.0,0.0,0.0,0.0,0.0,0.0,0.0,0.0,0.0,0.0,0.0,0.0,0.0,0.0,0.0,0.0,0.0,0.0,0.0,0.0,0.0,0.0,0.0,0.0,0.0,0.0,0.0,0.0,0.0,0.0,0.0,0.0,0.0,0.0,0.0,0.0,0.0,0.0,0.0,0.0,0.0,0.0,0.0,0.0,0.0,0.0,0.0,0.0,0.0,0.0,0.0,0.0,0.0,0.0,0.0,0.0,0.0,0.0,0.0,0.0,0.0,0.0,0.0,0.0,0.0,0.0,0.0,0.0,0.0,0.0,0.0,0.0,0.0,0.0,0.0,0.0,0.0,0.0,0.0,0.0,0.0,0.0,0.0,0.0,0.0,0.0,0.0,0.0,0.0,0.0,0.0,0.0,0.0,0.0,0.0,0.0,0.0,0.0,0.0,0.0,0.0,0.0,0.0,0.0,0.0,0.0,0.0,0.0,0.0,0.0,0.0,0.0,0.0,0.0,0.0,0.0,0.0,0.0,0.0,0.0,0.0,0.0,0.0,0.0,0.0,0.0,0.0,0.0,0.0,0.0,0.0,0.0,0.0,0.0,0.0,0.0,0.0,0.0,0.0,0.0,0.0,0.0,0.0,0.0,0.0,0.0,0.0,0.0,0.0,0.0,0.0,0.0,0.0,0.0,0.0,0.0,0.0,0.0,0.0,0.0,0.0,0.0,0.0,0.0,0.0,0.0,0.0,0.0,0.0,0.0,0.0,0.0,0.0,0.0,0.0,0.0,0.0,0.0,0.0,0.0,0.0,0.0,0.0,0.0,0.0,0.0,0.0,0.0,0.0,0.0,0.0,0.0,0.0,0.0,0.0,0.0,0.0,0.0,0.0,0.0,0.0,0.0,0.0,0.0,0.0,0.0,0.0,0.0,0.0,0.0,0.0,0.0,0.0,0.0,0.0,0.0,0.0,0.0,0.0,0.0,0.0,0.0,0.0,0.0,0.0,0.0,0.0,0.0,0.0,0.0,0.0,0.0,0.0,0.0,0.0,0.0,0.0,0.0,0.0,0.0,0.0,0.0,0.0,0.0,0.0,0.0,0.0,0.0,0.0,0.0,0.0,0.0,0.0,0.0,0.0,0.0,0.0,0.0,0.0,0.0,0.0,0.0,0.0,0.0,0.0,0.0,0.0,0.0,0.0,0.0,0.0,0.0,0.0,0.0,0.0,0.0,0.0,0.0,0.0,0.0,0.0,0.0,0.0,0.0,0.0,0.0,0.0,0.0,0.0,0.0,0.0,0.0,0.0,0.0,0.0,0.0,0.0,0.0,0.0,0.0,0.0,0.0,0.0,0.0,0.0,0.0,0.0,0.0,0.0,0.0,0.0,0.0,0.0,0.0,0.0,0.0,0.0,0.0,0.0,0.0,0.0,0.0,0.0,0.0,0.0,0.0,0.0,0.0,0.0,0.0,0.0,0.0,0.0,0.0,0.0,0.0,0.0,0.0,0.0,0.0,0.0,0.0,0.0,0.0,0.0,0.0,0.0,0.0,0.0,0.0,0.0,0.0,0.0,0.0,0.0,0.0,0.0,0.0,0.0,0.0,0.0,0.0,0.0,0.0,0.0,0.0,0.0,0.0,0.0,0.0,0.0,0.0,0.0,0.0,0.0,0.0,0.0,0.0,0.0,0.0,0.0,0.0,0.0,0.0,0.0,0.0,0.0,0.0,0.0,0.0,0.0,0.0,0.0,0.0,0.0,0.0,0.0,0.0,0.0,0.0,0.0,0.0,0.0,0.0,0.0,0.0,0.0,0.0,0.0,0.0,0.0,0.0,0.0,0.0,0.0,0.0,0.0,0.0,0.0,0.0,0.0,0.0,0.0,0.0,0.0,0.0,0.0,0.0,0.0,0.0,0.0,0.0,0.0,0.0,0.0,0.0,0.0,0.0,0.0,0.0,0.0,0.0,0.0,0.0,0.0,0.0,0.0,0.0,0.0,0.0,0.0,0.0,0.0,0.0,0.0,0.0,0.0,0.0,0.0,0.0,0.0,0.0,0.0,0.0,0.0,0.0,0.0,0.0,0.0,0.0,0.0,0.0,0.0,0.0,0.0,0.0,0.0,0.0,0.0,0.0,0.0,0.0,0.0,0.0,0.0,0.0,0.0,0.0,0.0,0.0,0.0,0.0,0.0,0.0,0.0,0.0,0.0,0.0,0.0,0.0,0.0,0.0,0.0,0.0,0.0,0.0,0.0,0.0,0.0,0.0,0.0,0.0,0.0,0.0,0.0,0.0,0.0,0.0,0.0,0.0,0.0,0.0,0.0,0.0,0.0,0.0,0.0,0.0,0.0,0.0,0.0,0.0,0.0,0.0,0.0,0.0,0.0,0.0,0.0,0.0,0.0,0.0,0.0,0.0,0.0,0.0,0.0,0.0,0.0,0.0,0.0,0.0,0.0,0.0,0.0,0.0,0.0,0.0,0.0,0.0,0.0,0.0,0.0,0.0,0.0,0.0,0.0,0.0,0.0,0.0,0.0,0.0,0.0,0.0,0.0,0.0,0.0,0.0,0.0,0.0,0.0,0.0,0.0,0.0,0.0,0.0,0.0,0.0,0.0,0.0,0.0,0.0,0.0,0.0,0.0,0.0,0.0,0.0,0.0,0.0,0.0,0.0,0.0,0.0,0.0,0.0,0.0,0.0,0.0,0.0,0.0,0.0,0.0,0.0,0.0,0.0,0.0,0.0,0.0,0.0,0.0,0.0,0.0,0.0,0.0,0.0,0.0,0.0,0.0,0.0,0.0,0.0,0.0,0.0,0.0,0.0,0.0,0.0,0.0,0.0,0.0,0.0,0.0,0.0,0.0,0.0,0.0,0.0,0.0,0.0,0.0,0.0,0.0,0.0,0.0,0.0,0.0,0.0,0.0,0.0,0.0,0.0,0.0,0.0,0.0,0.0,0.0,0.0,0.0,0.0,0.0,0.0,0.0,0.0,0.0,0.0,0.0,0.0,0.0,0.0,0.0,0.0,0.0,0.0,0.0,0.0,0.0,0.0,0.0,0.0,0.0,0.0,0.0,0.0,0.0,0.0,0.0,0.0,0.0,0.0,0.0,0.0,0.0,0.0,0.0,0.0,0.0,0.0,0.0,0.0,0.0,0.0,0.0,0.0,0.0,0.0,0.0,0.0,0.0,0.0,0.0,0.0,0.0,0.0,0.0,0.0,0.0,0.0,0.0,0.0,0.0,0.0,0.0,0.0,0.0,0.0,0.0,0.0,0.0,0.0,0.0,0.0,0.0,0.0,0.0,0.0,0.0,0.0,0.0,0.0,0.0,0.0,0.0,0.0,0.0,0.0,0.0,0.0,0.0,0.0,0.0,0.0,0.0,0.0,0.0,0.0,0.0,0.0,0.0,0.0,0.0,0.0,0.0,0.0,0.0,0.0,0.0,0.0,0.0,0.0,0.0,0.0,0.0,0.0,0.0,0.0,0.0,0.0,0.0,0.0,0.0,0.0,0.0,0.0,0.0,0.0,0.0,0.0,0.0,0.0,0.0,0.0,0.0,0.0,0.0,0.0,0.0,0.0,0.0,0.0,0.0,0.0,0.0,0.0,0.0,0.0,0.0,0.0,0.0,0.0,0.0,0.0,0.0,0.0,0.0,0.0,0.0,0.0,0.0,0.0,0.0,0.0,0.0,0.0,0.0,0.0,0.0,0.0,0.0,0.0,0.0,0.0,0.0,0.0,0.0,-1.8619,0.0,0.0,0.0,0.0,0.0,0.0,0.0,0.0,0.0,0.0,0.0,0.0,0.0,0.0,0.0,0.0,0.0,0.0,0.0,0.0,0.0,0.0,0.0,0.0,0.0,0.0,0.0,0.0,0.0,0.0,0.0,0.0,0.0,0.0,0.0,0.0,0.0,0.0,0.0,0.0,0.0,0.0,0.0,0.0,0.0,0.0,0.0,0.0,0.0,0.0,0.0,0.0,0.0,0.0,0.0,0.0,0.0,0.0,0.0,0.0,0.0,0.0,0.0,0.0,0.0,0.0,0.0,0.0,0.0,0.0,0.0,0.0,0.0,0.0,0.0,0.0,0.0,0.0,0.0,0.0,0.0,0.0,0.0,0.0,0.0,0.0,0.0,0.0,0.0,0.0,0.0,0.0,0.0,0.0,0.0,0.0,0.0,0.0,0.0,0.0,0.0,0.0,0.0,0.0,0.0,0.0,0.0,0.0,0.0,0.0,-1.7689,-1.8612,-1.7146,-1.7081,-1.8698,0.0,0.0,0.0,0.0,0.0,0.0,0.0,0.0,0.0,0.0,0.0,0.0,0.0,0.0,0.0,0.0,0.0,0.0,0.0,0.0,0.0,0.0,0.0,0.0,0.0,0.0,0.0,0.0,0.0,0.0,0.0,0.0,0.0,0.0,0.0,0.0,0.0,0.0,0.0,0.0,0.0,0.0,0.0,0.0,0.0,0.0,0.0,0.0,0.0,0.0,0.0,0.0,0.0,0.0,0.0,0.0,0.0,0.0,0.0,0.0,0.0,0.0,0.0,0.0,0.0,0.0,0.0,0.0,0.0,0.0,0.0,0.0,0.0,0.0,0.0,0.0,0.0,0.0,0.0,0.0,0.0,0.0,0.0,0.0,0.0,0.0,0.0,0.0,0.0,0.0,0.0,0.0,0.0,0.0,0.0,0.0,0.0,0.0,0.0,0.0,0.0,0.0,0.0,0.0,0.0,0.0,0.0,0.0,0.0,0.0,0.0,0.0,-1.7139,-1.7009,-1.8749,0.0,0.0,0.0,0.0,0.0,0.0,0.0,0.0,0.0,0.0,0.0,0.0,0.0,0.0,0.0,0.0,0.0,0.0,0.0,0.0,0.0,0.0,0.0,0.0,0.0,0.0,0.0,0.0,0.0,0.0,0.0,0.0,0.0,0.0,0.0,0.0,0.0,0.0,0.0,0.0,0.0,0.0,0.0,0.0,0.0,0.0,0.0,0.0,0.0,0.0,0.0,0.0,0.0,0.0,0.0,0.0,0.0,0.0,0.0,0.0,0.0,0.0,0.0,0.0,0.0,0.0,0.0,0.0,0.0,0.0,0.0,0.0,0.0,0.0,0.0,0.0,0.0,0.0,0.0,0.0,0.0,0.0,0.0,0.0,0.0,0.0,0.0,0.0,0.0,0.0,0.0,0.0,0.0,0.0,0.0,0.0,0.0,0.0,0.0,0.0,0.0,0.0,0.0,0.0,0.0,0.0,0.0,0.0,0.0,0.0,-1.8744,-2.0175,-1.9224,0.0,-1.9058,0.0,0.0,0.0,0.0,0.0,0.0,0.0,0.0,0.0,0.0,0.0,0.0,0.0,0.0,0.0,0.0,0.0,0.0,0.0,0.0,0.0,0.0,0.0,0.0,0.0,0.0,0.0,0.0,0.0,0.0,0.0,0.0,0.0,0.0,0.0,0.0,0.0,0.0,0.0,0.0,0.0,0.0,0.0,0.0,0.0,0.0,0.0,0.0,0.0,0.0,0.0,0.0,0.0,0.0,0.0,0.0,0.0,0.0,0.0,0.0,0.0,0.0,0.0,0.0,0.0,0.0,0.0,0.0,0.0,0.0,0.0,0.0,0.0,0.0,0.0,0.0,0.0,0.0,0.0,0.0,0.0,0.0,0.0,0.0,0.0,0.0,0.0,0.0,0.0,0.0,0.0,0.0,0.0,0.0,0.0,0.0,0.0,0.0,0.0,0.0,0.0,0.0,0.0,0.0,0.0,0.0,0.0,0.0,0.0,0.0,-1.8643,-1.9211,-1.8992,-1.8734,0.0,0.0,0.0,0.0,0.0,0.0,0.0,0.0,0.0,0.0,0.0,0.0,0.0,0.0,0.0,0.0,0.0,0.0,0.0,0.0,0.0,0.0,0.0,0.0,0.0,0.0,0.0,0.0,0.0,0.0,0.0,0.0,0.0,0.0,0.0,0.0,0.0,0.0,0.0,0.0,0.0,0.0,0.0,0.0,0.0,0.0,0.0,0.0,0.0,0.0,0.0,0.0,0.0,0.0,0.0,0.0,0.0,0.0,0.0,0.0,0.0,0.0,0.0,0.0,0.0,0.0,0.0,0.0,0.0,0.0,0.0,0.0,0.0,0.0,0.0,0.0,0.0,0.0,0.0,0.0,0.0,0.0,0.0,0.0,0.0,0.0,0.0,0.0,0.0,0.0,0.0,0.0,0.0,0.0,0.0,0.0,0.0,0.0,0.0,0.0,0.0,0.0,0.0,0.0,0.0,0.0,0.0,0.0,0.0,0.0,-1.8269,-1.8235,-1.8446,-1.8432,-1.835,-1.8167,0.0,0.0,0.0,0.0,0.0,0.0,0.0,0.0,0.0,0.0,0.0,0.0,0.0,0.0,0.0,0.0,0.0,0.0,0.0,0.0,0.0,0.0,0.0,0.0,0.0,0.0,0.0,0.0,0.0,0.0,0.0,0.0,0.0,0.0,0.0,0.0,0.0,0.0,0.0,0.0,0.0,0.0,0.0,0.0,0.0,0.0,0.0,0.0,0.0,0.0,0.0,0.0,0.0,0.0,0.0,0.0,0.0,0.0,0.0,0.0,0.0,0.0,0.0,0.0,0.0,0.0,0.0,0.0,0.0,0.0,0.0,0.0,0.0,0.0,0.0,0.0,0.0,0.0,0.0,0.0,0.0,0.0,0.0,0.0,0.0,0.0,0.0,0.0,0.0,0.0,0.0,0.0,0.0,0.0,0.0,0.0,0.0,0.0,0.0,0.0,0.0,0.0,0.0,0.0,0.0,0.0,0.0,0.0,-1.9637,-1.8144,-1.7692,-1.8534,-1.8036,-1.8003,0.0,0.0,0.0,0.0,0.0,0.0,0.0,0.0,0.0,0.0,0.0,0.0,0.0,0.0,0.0,0.0,0.0,0.0,0.0,0.0,0.0,0.0,0.0,0.0,0.0,0.0,0.0,0.0,0.0,0.0,0.0,0.0,0.0,0.0,0.0,0.0,0.0,0.0,0.0,0.0,0.0,0.0,0.0,0.0,0.0,0.0,0.0,0.0,0.0,0.0,0.0,0.0,0.0,0.0,0.0,0.0,0.0,0.0,0.0,0.0,0.0,0.0,0.0,0.0,0.0,0.0,0.0,0.0,0.0,0.0,0.0,0.0,0.0,0.0,0.0,0.0,0.0,0.0,0.0,0.0,0.0,0.0,0.0,0.0,0.0,0.0,0.0,0.0,0.0,0.0,0.0,0.0,0.0,0.0,0.0,0.0,0.0,0.0,0.0,0.0,0.0,0.0,0.0,0.0,0.0,0.0,0.0,0.0,0.0,-1.7921,-1.7516,-1.7493,-1.7981,-1.763,-1.7463,0.0,0.0,0.0,0.0,0.0,0.0,0.0,0.0,0.0,0.0,0.0,0.0,0.0,0.0,0.0,0.0,0.0,0.0,0.0,0.0,0.0,0.0,0.0,0.0,0.0,0.0,0.0,0.0,0.0,0.0,0.0,0.0,0.0,0.0,0.0,0.0,0.0,0.0,0.0,0.0,0.0,0.0,0.0,0.0,0.0,0.0,0.0,0.0,0.0,0.0,0.0,0.0,0.0,0.0,0.0,0.0,0.0,0.0,0.0,0.0,0.0,0.0,0.0,0.0,0.0,0.0,0.0,0.0,0.0,0.0,0.0,0.0,0.0,0.0,0.0,0.0,0.0,0.0,0.0,0.0,0.0,0.0,0.0,0.0,0.0,0.0,0.0,0.0,0.0,0.0,0.0,0.0,0.0,0.0,0.0,0.0,0.0,0.0,0.0,0.0,0.0,0.0,0.0,0.0,0.0,0.0,0.0,0.0,0.0,-1.6547,0.0,-1.7282,-1.7425,-1.7122,-1.693,0.0,0.0,0.0,0.0,0.0,0.0,0.0,0.0,0.0,0.0,0.0,0.0,0.0,0.0,0.0,0.0,0.0,0.0,0.0,0.0,0.0,0.0,0.0,0.0,0.0,0.0,0.0,0.0,0.0,0.0,0.0,0.0,0.0,0.0,0.0,0.0,0.0,0.0,0.0,0.0,0.0,0.0,0.0,0.0,0.0,0.0,0.0,0.0,0.0,0.0,0.0,0.0,0.0,0.0,0.0,0.0,0.0,0.0,0.0,0.0,0.0,0.0,0.0,0.0,0.0,0.0,0.0,0.0,0.0,0.0,0.0,0.0,0.0,0.0,0.0,0.0,0.0,0.0,0.0,0.0,0.0,0.0,0.0,0.0,0.0,0.0,0.0,0.0,0.0,0.0,0.0,0.0,0.0,0.0,0.0,0.0,0.0,0.0,0.0,0.0,0.0,0.0,0.0,0.0,0.0,0.0,0.0,0.0,-1.5802,-1.5826,-1.6647,-1.7077,-1.694,-1.6568,-1.6513,0.0,0.0,0.0,0.0,0.0,0.0,0.0,0.0,0.0,0.0,0.0,0.0,0.0,0.0,0.0,0.0,0.0,0.0,0.0,0.0,0.0,0.0,0.0,0.0,0.0,0.0,0.0,0.0,0.0,0.0,0.0,0.0,0.0,0.0,0.0,0.0,0.0,0.0,0.0,0.0,0.0,0.0,0.0,0.0,0.0,0.0,0.0,0.0,0.0,0.0,0.0,0.0,0.0,0.0,0.0,0.0,0.0,0.0,0.0,0.0,0.0,0.0,0.0,0.0,0.0,0.0,0.0,0.0,0.0,0.0,0.0,0.0,0.0,0.0,0.0,0.0,0.0,0.0,0.0,0.0,0.0,0.0,0.0,0.0,0.0,0.0,0.0,0.0,0.0,0.0,0.0,0.0,0.0,0.0,0.0,0.0,0.0,0.0,0.0,0.0,0.0,0.0,0.0,0.0,0.0,0.0,0.0,0.0,0.0,-1.5614,-1.6352,-1.7373,-1.8552,-1.6911,-1.6804,0.0,0.0,0.0,0.0,0.0,0.0,0.0,0.0,0.0,0.0,0.0,0.0,0.0,0.0,0.0,0.0,0.0,0.0,0.0,0.0,0.0,0.0,0.0,0.0,0.0,0.0,0.0,0.0,0.0,0.0,0.0,0.0,0.0,0.0,0.0,0.0,0.0,0.0,0.0,0.0,0.0,0.0,0.0,0.0,0.0,0.0,0.0,0.0,0.0,0.0,0.0,0.0,0.0,0.0,0.0,0.0,0.0,0.0,0.0,0.0,0.0,0.0,0.0,0.0,0.0,0.0,0.0,0.0,0.0,0.0,0.0,0.0,0.0,0.0,0.0,0.0,0.0,0.0,0.0,0.0,0.0,0.0,0.0,0.0,0.0,0.0,0.0,0.0,0.0,0.0,0.0,0.0,0.0,0.0,0.0,0.0,0.0,0.0,0.0,0.0,0.0,0.0,0.0,0.0,0.0,0.0,0.0,0.0,0.0,-1.6291,-1.6681,-1.7542,-1.8862,-1.7295,-1.6979,-1.8213,0.0,0.0,0.0,0.0,0.0,0.0,0.0,0.0,0.0,0.0,0.0,0.0,0.0,0.0,0.0,0.0,0.0,0.0,0.0,0.0,0.0,0.0,0.0,0.0,0.0,0.0,0.0,0.0,0.0,0.0,0.0,0.0,0.0,0.0,0.0,0.0,0.0,0.0,0.0,0.0,0.0,0.0,0.0,0.0,0.0,0.0,0.0,0.0,0.0,0.0,0.0,0.0,0.0,0.0,0.0,0.0,0.0,0.0,0.0,0.0,0.0,0.0,0.0,0.0,0.0,0.0,0.0,0.0,0.0,0.0,0.0,0.0,0.0,0.0,0.0,0.0,0.0,0.0,0.0,0.0,0.0,0.0,0.0,0.0,0.0,0.0,0.0,0.0,0.0,0.0,0.0,0.0,0.0,0.0,0.0,0.0,0.0,0.0,0.0,0.0,0.0,0.0,0.0,0.0,0.0,0.0,0.0,0.0,-1.7641,-1.7677,-1.7909,-1.8252,-1.78,-1.7205,0.0,0.0,0.0,0.0,0.0,0.0,0.0,0.0,0.0,0.0,0.0,0.0,0.0,0.0,0.0,0.0,0.0,0.0,0.0,0.0,0.0,0.0,0.0,0.0,0.0,0.0,0.0,0.0,0.0,0.0,0.0,0.0,0.0,0.0,0.0,0.0,0.0,0.0,0.0,0.0,0.0,0.0,0.0,0.0,0.0,0.0,0.0,0.0,0.0,0.0,0.0,0.0,0.0,0.0,0.0,0.0,0.0,0.0,0.0,0.0,0.0,0.0,0.0,0.0,0.0,0.0,0.0,0.0,0.0,0.0,0.0,0.0,0.0,0.0,0.0,0.0,0.0,0.0,0.0,0.0,0.0,0.0,0.0,0.0,0.0,0.0,0.0,0.0,0.0,0.0,0.0,0.0,0.0,0.0,0.0,0.0,0.0,0.0,0.0,0.0,0.0,0.0,0.0,0.0,0.0,0.0,0.0,0.0,0.0,-1.8294,-2.0111,-2.1278,-2.1604,-2.0055,-1.917,0.0,0.0,0.0,0.0,0.0,0.0,0.0,0.0,0.0,0.0,0.0,0.0,0.0,0.0,0.0,0.0,0.0,0.0,0.0,0.0,0.0,0.0,0.0,0.0,0.0,0.0,0.0,0.0,0.0,0.0,0.0,0.0,0.0,0.0,0.0,0.0,0.0,0.0,0.0,0.0,0.0,0.0,0.0,0.0,0.0,0.0,0.0,0.0,0.0,0.0,0.0,0.0,0.0,0.0,0.0,0.0,0.0,0.0,0.0,0.0,0.0,0.0,0.0,0.0,0.0,0.0,0.0,0.0,0.0,0.0,0.0,0.0,0.0,0.0,0.0,0.0,0.0,0.0,0.0,0.0,0.0,0.0,0.0,0.0,0.0,0.0,0.0,0.0,0.0,0.0,0.0,0.0,0.0,0.0,0.0,0.0,0.0,0.0,0.0,0.0,0.0,0.0,0.0,0.0,0.0,0.0,0.0,0.0,-1.807,-1.9186,-2.1981,-2.3545,-2.3742,-2.2294,-2.0873,0.0,0.0,0.0,0.0,0.0,0.0,0.0,0.0,0.0,0.0,0.0,0.0,0.0,0.0,0.0,0.0,0.0,0.0,0.0,0.0,0.0,0.0,0.0,0.0,0.0,0.0,0.0,0.0,0.0,0.0,0.0,0.0,0.0,0.0,0.0,0.0,0.0,0.0,0.0,0.0,0.0,0.0,0.0,0.0,0.0,0.0,0.0,0.0,0.0,0.0,0.0,0.0,0.0,0.0,0.0,0.0,0.0,0.0,0.0,0.0,0.0,0.0,0.0,0.0,0.0,0.0,0.0,0.0,0.0,0.0,0.0,0.0,0.0,0.0,0.0,0.0,0.0,0.0,0.0,0.0,0.0,0.0,0.0,0.0,0.0,0.0,0.0,0.0,0.0,0.0,0.0,0.0,0.0,0.0,0.0,0.0,0.0,0.0,0.0,0.0,0.0,0.0,0.0,0.0,0.0,0.0,0.0,0.0,-1.8996,-2.0189,-2.3289,-2.4914,-2.4888,-2.4143,-2.2182,0.0,0.0,0.0,0.0,0.0,0.0,0.0,0.0,0.0,0.0,0.0,0.0,0.0,0.0,0.0,0.0,0.0,0.0,0.0,0.0,0.0,0.0,0.0,0.0,0.0,0.0,0.0,0.0,0.0,0.0,0.0,0.0,0.0,0.0,0.0,0.0,0.0,0.0,0.0,0.0,0.0,0.0,0.0,0.0,0.0,0.0,0.0,0.0,0.0,0.0,0.0,0.0,0.0,0.0,0.0,0.0,0.0,0.0,0.0,0.0,0.0,0.0,0.0,0.0,0.0,0.0,0.0,0.0,0.0,0.0,0.0,0.0,0.0,0.0,0.0,0.0,0.0,0.0,0.0,0.0,0.0,0.0,0.0,0.0,0.0,0.0,0.0,0.0,0.0,0.0,0.0,0.0,0.0,0.0,0.0,0.0,0.0,0.0,0.0,0.0,0.0,0.0,0.0,0.0,0.0,0.0,0.0,0.0,-1.8951,-2.0743,-2.3545,-2.5222,-2.5565,-2.4208,-2.2259,0.0,0.0,0.0,0.0,0.0,0.0,0.0,0.0,0.0,0.0,0.0,0.0,0.0,0.0,0.0,0.0,0.0,0.0,0.0,0.0,0.0,0.0,0.0,0.0,0.0,0.0,0.0,0.0,0.0,0.0,0.0,0.0,0.0,0.0,0.0,0.0,0.0,0.0,0.0,0.0,0.0,0.0,0.0,0.0,0.0,0.0,0.0,0.0,-1.3541,0.0,0.0,0.0,0.0,0.0,0.0,0.0,0.0,0.0,0.0,0.0,0.0,0.0,0.0,0.0,0.0,0.0,0.0,0.0,0.0,0.0,0.0,0.0,0.0,0.0,0.0,0.0,0.0,0.0,0.0,0.0,0.0,0.0,0.0,0.0,0.0,0.0,0.0,0.0,0.0,0.0,0.0,0.0,0.0,0.0,0.0,0.0,0.0,0.0,0.0,0.0,0.0,0.0,0.0,0.0,0.0,0.0,0.0,0.0,-1.9146,-2.0894,-2.3444,-2.4941,-2.5141,-2.3895,-2.2394,0.0,0.0,0.0,0.0,0.0,0.0,0.0,0.0,0.0,0.0,0.0,0.0,0.0,0.0,0.0,0.0,0.0,0.0,0.0,0.0,0.0,0.0,0.0,0.0,0.0,0.0,0.0,0.0,0.0,0.0,0.0,0.0,0.0,0.0,0.0,0.0,0.0,0.0,0.0,0.0,0.0,0.0,0.0,0.0,0.0,0.0,0.0,0.0,0.0,0.0,0.0,0.0,0.0,0.0,0.0,0.0,0.0,0.0,0.0,0.0,0.0,0.0,0.0,0.0,0.0,0.0,0.0,0.0,0.0,0.0,0.0,0.0,0.0,0.0,0.0,0.0,0.0,0.0,0.0,0.0,0.0,0.0,0.0,0.0,0.0,0.0,0.0,0.0,0.0,0.0,0.0,0.0,0.0,0.0,0.0,0.0,0.0,0.0,0.0,0.0,0.0,0.0,0.0,0.0,0.0,0.0,0.0,-1.731,-1.9305,-2.0897,-2.3204,-2.441,-2.4465,-2.3514,-2.249,-2.1487,0.0,0.0,0.0,0.0,0.0,0.0,0.0,0.0,0.0,0.0,0.0,0.0,0.0,0.0,0.0,0.0,0.0,0.0,0.0,0.0,0.0,0.0,0.0,0.0,0.0,0.0,0.0,0.0,0.0,0.0,0.0,0.0,0.0,0.0,0.0,0.0,0.0,0.0,-1.2075,-1.249,0.0,0.0,0.0,0.0,0.0,0.0,0.0,0.0,-1.301,0.0,0.0,0.0,0.0,0.0,0.0,0.0,0.0,0.0,0.0,0.0,0.0,0.0,0.0,0.0,0.0,0.0,0.0,0.0,0.0,0.0,0.0,0.0,0.0,0.0,0.0,0.0,0.0,0.0,0.0,0.0,0.0,0.0,0.0,0.0,0.0,0.0,0.0,0.0,0.0,0.0,0.0,0.0,0.0,0.0,0.0,0.0,0.0,0.0,0.0,0.0,0.0,0.0,0.0,0.0,0.0,-1.5267,-1.689,-1.8745,-2.0876,-2.2832,-2.4061,-2.4443,-2.3525,-2.2557,-2.1576,0.0,0.0,0.0,0.0,0.0,0.0,0.0,0.0,0.0,0.0,0.0,0.0,0.0,0.0,0.0,0.0,0.0,0.0,0.0,0.0,0.0,0.0,0.0,0.0,0.0,0.0,0.0,0.0,0.0,0.0,0.0,0.0,0.0,0.0,0.0,0.0,0.0,0.0,0.0,-1.2651,-1.3047,0.0,0.0,0.0,0.0,0.0,0.0,0.0,0.0,-1.2317,0.0,0.0,0.0,0.0,0.0,0.0,0.0,0.0,0.0,0.0,0.0,0.0,0.0,0.0,0.0,0.0,0.0,0.0,0.0,0.0,0.0,0.0,0.0,0.0,0.0,0.0,0.0,0.0,0.0,0.0,0.0,0.0,0.0,0.0,0.0,0.0,0.0,0.0,0.0,0.0,0.0,0.0,0.0,0.0,0.0,0.0,0.0,0.0,0.0,0.0,0.0,0.0,0.0,0.0,0.0,-1.5191,-1.6597,-1.8465,-2.0767,-2.1972,-2.2934,-2.3667,-2.2531,-2.18,0.0,0.0,0.0,0.0,0.0,0.0,0.0,0.0,0.0,0.0,0.0,0.0,0.0,0.0,0.0,0.0,0.0,0.0,0.0,0.0,0.0,0.0,0.0,0.0,0.0,0.0,0.0,0.0,0.0,0.0,0.0,0.0,0.0,0.0,0.0,0.0,0.0,0.0,0.0,0.0,-1.3146,-1.3474,-1.2824,0.0,0.0,0.0,0.0,0.0,0.0,-1.2419,-1.2367,0.0,0.0,0.0,0.0,0.0,0.0,0.0,0.0,0.0,0.0,0.0,0.0,0.0,0.0,0.0,0.0,0.0,0.0,0.0,0.0,0.0,0.0,0.0,0.0,0.0,0.0,0.0,0.0,0.0,0.0,0.0,0.0,0.0,0.0,0.0,0.0,0.0,0.0,0.0,0.0,0.0,0.0,0.0,0.0,0.0,0.0,0.0,0.0,0.0,0.0,0.0,0.0,0.0,0.0,0.0,-1.5009,-1.6475,-1.8321,-2.046,-2.1056,-2.1805,-2.2673,-2.1417,-2.0948,0.0,0.0,0.0,0.0,0.0,0.0,0.0,0.0,0.0,0.0,0.0,0.0,0.0,0.0,0.0,0.0,0.0,0.0,0.0,0.0,0.0,0.0,0.0,0.0,0.0,0.0,0.0,0.0,0.0,0.0,0.0,0.0,0.0,0.0,0.0,0.0,0.0,0.0,0.0,0.0,0.0,-1.4072,-1.3651,-1.3883,0.0,0.0,0.0,0.0,-1.2992,-1.2999,0.0,0.0,0.0,0.0,0.0,0.0,0.0,0.0,0.0,0.0,0.0,0.0,0.0,0.0,0.0,0.0,0.0,0.0,0.0,0.0,0.0,0.0,0.0,0.0,0.0,0.0,0.0,0.0,0.0,0.0,0.0,0.0,0.0,0.0,0.0,0.0,0.0,0.0,0.0,0.0,0.0,0.0,0.0,0.0,0.0,0.0,0.0,0.0,0.0,0.0,0.0,0.0,0.0,0.0,0.0,0.0,-1.5006,-1.6567,-1.8111,-1.9585,-2.0452,-2.1161,-2.1734,-2.0762,-2.0423,0.0,0.0,0.0,0.0,0.0,0.0,0.0,0.0,0.0,0.0,0.0,0.0,0.0,0.0,0.0,0.0,0.0,0.0,0.0,0.0,0.0,0.0,0.0,0.0,0.0,0.0,0.0,0.0,0.0,0.0,0.0,0.0,0.0,0.0,0.0,0.0,0.0,0.0,0.0,0.0,0.0,-1.4983,-1.3984,-1.4346,-1.4532,0.0,0.0,-1.3363,-1.3785,-1.4002,0.0,0.0,0.0,0.0,0.0,0.0,0.0,0.0,0.0,0.0,0.0,0.0,0.0,0.0,0.0,0.0,0.0,0.0,0.0,0.0,0.0,0.0,0.0,0.0,0.0,0.0,0.0,0.0,0.0,0.0,0.0,0.0,0.0,0.0,0.0,0.0,0.0,0.0,0.0,0.0,0.0,0.0,0.0,0.0,0.0,0.0,0.0,0.0,0.0,0.0,0.0,0.0,0.0,0.0,0.0,-1.4115,-1.485,-1.6696,-1.8212,-1.9306,-2.0004,-2.0732,-2.157,-2.0347,-2.0085,0.0,0.0,0.0,0.0,0.0,0.0,0.0,0.0,0.0,0.0,0.0,0.0,0.0,0.0,0.0,0.0,0.0,0.0,0.0,0.0,0.0,0.0,0.0,0.0,0.0,0.0,0.0,0.0,0.0,0.0,0.0,0.0,0.0,0.0,0.0,0.0,0.0,0.0,0.0,0.0,0.0,0.0,-1.4642,-1.5047,0.0,0.0,0.0,-1.49,-1.5397,0.0,0.0,0.0,0.0,0.0,0.0,0.0,0.0,0.0,0.0,0.0,0.0,0.0,0.0,0.0,0.0,0.0,0.0,0.0,0.0,0.0,0.0,0.0,0.0,0.0,0.0,0.0,0.0,0.0,0.0,0.0,0.0,0.0,0.0,0.0,0.0,0.0,0.0,0.0,0.0,0.0,0.0,0.0,0.0,0.0,0.0,0.0,0.0,0.0,0.0,0.0,0.0,0.0,0.0,0.0,0.0,0.0,-1.5444,-1.6819,-1.8284,-1.9737,-1.9675,-2.0191,-2.1363,-2.0118,0.0,0.0,0.0,0.0,0.0,0.0,0.0,0.0,0.0,0.0,0.0,0.0,0.0,0.0,0.0,0.0,0.0,0.0,0.0,0.0,0.0,0.0,0.0,0.0,0.0,0.0,0.0,-1.3518,0.0,0.0,0.0,0.0,0.0,0.0,0.0,0.0,0.0,0.0,0.0,0.0,0.0,0.0,-1.5959,-1.5487,-1.6139,-1.6771,0.0,0.0,-1.6337,-1.6551,-1.637,-1.5808,0.0,0.0,0.0,0.0,0.0,0.0,0.0,0.0,0.0,0.0,0.0,0.0,0.0,0.0,0.0,0.0,0.0,0.0,0.0,0.0,0.0,0.0,0.0,0.0,0.0,0.0,0.0,0.0,0.0,0.0,0.0,0.0,0.0,0.0,0.0,0.0,0.0,0.0,0.0,0.0,0.0,0.0,0.0,0.0,0.0,0.0,0.0,0.0,0.0,0.0,0.0,0.0,0.0,0.0,0.0,-1.7311,-1.6808,-1.8122,-2.1209,-1.9564,-1.9347,-2.0871,-1.9943,-1.9393,0.0,0.0,0.0,0.0,0.0,0.0,0.0,0.0,0.0,0.0,0.0,0.0,0.0,0.0,0.0,0.0,0.0,0.0,0.0,0.0,0.0,0.0,0.0,0.0,0.0,0.0,0.0,0.0,0.0,0.0,0.0,0.0,0.0,0.0,0.0,0.0,0.0,0.0,0.0,0.0,0.0,-1.6777,-1.6606,-1.784,-1.8687,0.0,0.0,-1.7096,-1.6593,-1.6939,-1.6489,-1.4055,0.0,0.0,0.0,0.0,0.0,0.0,0.0,0.0,0.0,0.0,0.0,0.0,0.0,0.0,0.0,0.0,0.0,0.0,0.0,0.0,0.0,0.0,0.0,0.0,0.0,0.0,0.0,0.0,0.0,0.0,0.0,0.0,0.0,0.0,0.0,0.0,0.0,0.0,0.0,0.0,0.0,0.0,0.0,0.0,0.0,0.0,0.0,0.0,0.0,0.0,0.0,0.0,0.0,-1.5881,-1.6541,-1.7867,-1.9199,-2.0384,-1.9707,-1.9612,-2.032,-1.9691,-1.9327,0.0,0.0,0.0,0.0,0.0,0.0,0.0,0.0,0.0,0.0,0.0,0.0,0.0,0.0,0.0,0.0,0.0,0.0,0.0,0.0,0.0,0.0,0.0,0.0,0.0,0.0,0.0,0.0,-1.38,-1.3975,-1.4033,0.0,0.0,0.0,0.0,0.0,0.0,0.0,0.0,0.0,0.0,-1.7123,-1.6644,-1.767,0.0,0.0,-1.7231,-1.703,-1.6671,-1.6811,-1.642,-1.4739,-1.443,0.0,0.0,0.0,0.0,0.0,0.0,0.0,0.0,0.0,0.0,0.0,0.0,0.0,0.0,0.0,0.0,0.0,0.0,0.0,0.0,0.0,0.0,0.0,0.0,0.0,0.0,0.0,0.0,0.0,0.0,0.0,0.0,0.0,0.0,0.0,0.0,0.0,0.0,0.0,0.0,0.0,0.0,0.0,0.0,0.0,0.0,0.0,0.0,0.0,0.0,0.0,0.0,-1.6218,-1.6937,-1.8304,-1.95,-2.0476,-1.9859,-1.9711,-2.0106,-1.9662,-1.9284,0.0,0.0,0.0,0.0,0.0,0.0,0.0,0.0,0.0,0.0,0.0,0.0,0.0,0.0,0.0,0.0,0.0,0.0,0.0,0.0,0.0,0.0,0.0,0.0,0.0,0.0,0.0,0.0,-1.3681,-1.3729,-1.3586,0.0,0.0,0.0,0.0,0.0,0.0,0.0,0.0,0.0,0.0,-1.7133,-1.6914,-1.7759,-1.8147,-1.7441,-1.7217,-1.7019,-1.6699,-1.6542,-1.6106,-1.5026,0.0,0.0,0.0,0.0,0.0,0.0,0.0,0.0,0.0,0.0,0.0,0.0,0.0,0.0,0.0,0.0,0.0,0.0,0.0,0.0,0.0,0.0,0.0,0.0,0.0,0.0,0.0,-1.5652,0.0,0.0,-1.4971,0.0,0.0,0.0,0.0,0.0,0.0,0.0,0.0,0.0,0.0,0.0,0.0,0.0,0.0,0.0,0.0,0.0,0.0,0.0,0.0,0.0,0.0,-1.6567,-1.9206,-1.7826,-1.8624,-2.1803,-2.0004,-1.9436,-2.0319,-1.9929,-1.9265,-1.8373,0.0,0.0,0.0,0.0,0.0,0.0,0.0,0.0,0.0,0.0,0.0,0.0,0.0,0.0,0.0,0.0,0.0,0.0,0.0,0.0,0.0,0.0,0.0,0.0,0.0,0.0,-1.4035,-1.3954,-1.3579,0.0,0.0,0.0,0.0,0.0,0.0,0.0,0.0,0.0,0.0,-1.5447,-1.6823,-1.7632,-1.8347,-1.8786,-1.8916,-1.8066,-1.7156,-1.6588,-1.617,-1.5582,0.0,0.0,0.0,0.0,0.0,0.0,0.0,0.0,0.0,0.0,0.0,0.0,0.0,0.0,0.0,0.0,0.0,0.0,0.0,0.0,0.0,0.0,0.0,0.0,0.0,0.0,0.0,-1.6202,-1.6263,0.0,0.0,0.0,0.0,0.0,0.0,0.0,0.0,0.0,0.0,0.0,-1.8359,-1.8593,0.0,0.0,0.0,0.0,0.0,0.0,0.0,0.0,0.0,0.0,0.0,0.0,-1.6955,-1.8516,-1.8376,-1.9064,-2.0768,-1.9857,-1.9756,-2.0511,-2.0109,-1.9599,-1.8968,0.0,0.0,0.0,0.0,0.0,0.0,0.0,0.0,0.0,0.0,0.0,0.0,0.0,0.0,0.0,0.0,0.0,0.0,0.0,0.0,0.0,0.0,0.0,0.0,0.0,-1.2934,0.0,0.0,0.0,0.0,0.0,0.0,0.0,0.0,0.0,0.0,0.0,-1.418,-1.4754,-1.6294,-1.74,-1.7457,-1.8118,-1.8322,0.0,0.0,0.0,0.0,0.0,0.0,0.0,0.0,0.0,0.0,0.0,0.0,0.0,0.0,-1.4513,-1.3275,-1.304,-1.2986,-1.2793,0.0,0.0,0.0,0.0,0.0,0.0,0.0,0.0,0.0,0.0,0.0,0.0,0.0,0.0,-1.71,0.0,-1.7474,0.0,0.0,0.0,0.0,0.0,0.0,0.0,0.0,-1.7657,-1.8541,-1.9209,-1.965,-1.9948,0.0,-1.997,-1.9728,0.0,0.0,0.0,0.0,0.0,0.0,0.0,0.0,-1.7334,-1.8641,-1.8788,-1.9279,-2.0158,-1.9725,-1.9707,-2.0127,-1.9972,-1.9731,-1.9486,-1.8478,-1.81,0.0,0.0,0.0,0.0,0.0,0.0,0.0,0.0,0.0,0.0,0.0,0.0,0.0,0.0,0.0,0.0,0.0,0.0,0.0,0.0,0.0,0.0,0.0,-1.3586,0.0,0.0,0.0,0.0,0.0,0.0,0.0,0.0,0.0,-1.3148,-1.399,-1.4881,-1.5649,-1.6674,-1.7401,-1.7531,0.0,0.0,0.0,0.0,0.0,0.0,0.0,-1.6117,-1.6159,-1.6182,-1.6038,-1.5594,-1.5394,-1.5313,-1.5304,0.0,0.0,-1.4078,-1.3868,-1.3801,-1.3655,-1.3944,-1.413,-1.3891,-1.3904,-1.3944,0.0,0.0,0.0,0.0,0.0,0.0,0.0,0.0,-1.8209,-1.8372,0.0,-1.8749,0.0,0.0,0.0,0.0,-1.5923,-1.6957,0.0,0.0,-1.8772,-1.9578,-2.0012,-2.0588,-2.0754,-2.0637,-2.1551,-2.1549,-2.0588,-1.8518,0.0,0.0,0.0,0.0,0.0,0.0,-1.7779,-1.9497,-1.9012,-1.9178,-2.0128,-1.9657,-1.9332,-1.9383,-1.9525,-1.9658,-1.9755,-1.8883,-1.8395,-1.8376,-1.7898,0.0,0.0,0.0,0.0,0.0,0.0,0.0,0.0,0.0,0.0,0.0,0.0,0.0,0.0,0.0,0.0,0.0,0.0,0.0,0.0,-1.4929,0.0,0.0,0.0,0.0,0.0,0.0,0.0,0.0,0.0,0.0,-1.3992,-1.4392,-1.5137,-1.6437,0.0,0.0,0.0,0.0,-1.7252,-1.7252,-1.6857,-1.6748,-1.7164,-1.6924,-1.6981,-1.7879,0.0,0.0,-1.7317,-1.6434,-1.5831,-1.5758,-1.5845,-1.5776,-1.5744,-1.567,-1.5661,-1.5698,-1.5968,-1.627,-1.6254,-1.5826,-1.5564,-2.1211,0.0,0.0,0.0,0.0,-1.8811,-1.8991,-1.9669,-1.9669,-1.9736,-1.9856,-1.9952,0.0,0.0,0.0,0.0,0.0,0.0,-1.8743,-1.9621,-1.9966,-2.0651,-2.1614,-2.1726,-2.1817,-2.1769,-2.1773,-2.1553,-2.0954,-1.9789,-1.9132,-1.907,0.0,0.0,0.0,0.0,-1.8154,-1.9666,-1.9086,-1.9132,-1.9935,-1.9965,-1.9984,-2.006,-1.9762,-1.9678,-1.9801,-1.9167,-1.9046,-1.9487,-1.9344,0.0,0.0,0.0,0.0,0.0,0.0,0.0,0.0,0.0,0.0,0.0,0.0,0.0,0.0,0.0,0.0,0.0,0.0,0.0,-1.4626,-1.5566,-1.5714,0.0,0.0,0.0,0.0,0.0,0.0,0.0,0.0,0.0,-1.557,-1.5846,-1.6228,0.0,0.0,-1.7777,-1.8299,-1.8025,-1.7873,-1.8227,-1.8149,0.0,-1.824,-1.8192,-1.8297,-1.8908,-1.8964,-1.8669,-1.7823,-1.7687,-1.7564,-1.7173,-1.7353,-1.7449,-1.7049,-1.6505,-1.6266,-1.6505,-1.6881,-1.7055,-1.6782,-1.6631,-1.6456,-2.3363,-2.187,-2.0997,-2.0801,-2.0997,-2.0354,-2.0482,-2.11,-2.11,-2.1103,-2.1123,-2.1162,-2.0716,-1.9856,-1.9237,0.0,0.0,0.0,-2.0025,-2.0998,-2.1121,-2.167,-2.2482,-2.2494,-2.2395,-2.2272,-2.2034,-2.1787,-2.1566,-2.0787,-2.0398,-2.0301,0.0,0.0,-1.8483,-1.8318,-1.8774,-1.9829,-1.9408,-1.9399,-1.9916,-2.008,-2.0468,-2.1056,-2.0762,-2.0551,-2.0446,-1.9916,-1.9696,-1.9789,-1.9826,-1.9521,0.0,0.0,0.0,0.0,0.0,0.0,0.0,0.0,0.0,0.0,0.0,-1.5409,-1.4662,0.0,0.0,0.0,-1.5596,-1.5555,-1.5339,-1.6206,0.0,0.0,0.0,0.0,0.0,0.0,0.0,-1.601,-1.5982,-1.6156,-1.6688,-1.6785,-1.6921,-1.7235,-1.7488,-1.7849,-1.8469,0.0,-1.8132,-1.8624,-1.8698,-1.8753,-1.8949,-1.9146,-1.9398,-1.991,-1.9564,-1.9159,-1.8572,-1.8504,-1.8297,-1.7891,-1.8043,-1.8166,-1.7815,-1.7468,-1.7266,-1.7376,-1.7697,-1.788,-1.766,-1.736,-1.7062,-2.513,-2.4299,-2.2727,-2.2402,-2.2911,-2.22,-2.2103,-2.2418,-2.2427,-2.2409,-2.2373,-2.2391,-2.2144,-2.167,-2.0917,0.0,-2.0007,-2.0792,-2.1399,-2.1865,-2.2235,-2.2593,-2.2995,-2.3004,-2.2785,-2.2382,-2.2428,-2.2401,-2.2282,-2.1585,-2.1383,-2.1623,-1.9802,-1.8734,-1.8422,-1.907,-1.9604,-2.0017,-1.9921,-1.9907,-1.9911,-2.0091,-2.0779,-2.1987,-2.2025,-2.1826,-2.1445,-2.0981,-2.0412,-1.9772,-1.9753,-1.9488,-1.8867,0.0,0.0,0.0,0.0,0.0,0.0,0.0,0.0,0.0,0.0,0.0,0.0,0.0,0.0,0.0,-1.6362,0.0,-1.653,-1.6862,0.0,0.0,0.0,-1.6936,-1.7,-1.6972,-1.7101,-1.7495,0.0,0.0,-1.7449,-1.7348,-1.7326,-1.7706,-1.7458,-1.7559,-1.853,-1.8312,-1.8193,-1.879,-1.8818,-1.8971,-1.943,-1.9878,-2.0369,-2.073,-2.0123,-1.9535,-1.9342,-1.9023,-1.8476,-1.8081,-1.817,-1.8381,-1.823,-1.8468,-1.865,-1.8228,-1.8504,-1.8742,-1.8658,-1.8145,-1.763,-2.6637,-2.6434,-2.542,-2.4569,-2.3846,-2.3543,-2.3423,-2.3532,-2.3523,-2.3354,-2.305,-2.319,-2.2662,-2.167,-2.1452,-2.1271,-2.1279,-2.1715,-2.2351,-2.3053,-2.3158,-2.3474,-2.3859,-2.3877,-2.3657,-2.3224,-2.3206,-2.305,-2.2748,-2.2245,-2.1942,-2.1659,-2.0924,-2.0342,-1.9985,-2.014,-2.0429,-2.0814,-2.0237,-1.9981,-2.0133,-2.0185,-2.0586,-2.1395,-2.1395,-2.1583,-2.1906,-2.183,-2.1669,-2.148,-2.1508,-2.1014,-1.9897,-1.9688,0.0,0.0,0.0,0.0,0.0,0.0,0.0,0.0,0.0,-1.6807,-1.6211,0.0,-1.6915,0.0,-1.8457,-1.8493,-1.7408,-1.7714,0.0,0.0,-1.7097,-1.7156,-1.7715,-1.755,-1.7513,-1.7889,-1.7807,-1.7725,-1.7954,-1.7916,-1.792,-1.8126,-1.8224,-1.8419,-1.8924,-1.9016,-1.9218,-1.9628,-1.9736,-1.9813,-1.9987,-2.0663,-2.1144,-2.0938,-2.0955,-2.0787,-2.003,-1.9802,-1.9678,-1.9476,-1.9409,-1.9347,-1.9201,-1.9218,-1.9109,-1.9045,-1.91,-1.9164,-1.9155,-1.8719,-1.838,-2.7233,-2.6885,-2.6673,-2.6067,-2.5234,-2.4968,-2.4821,-2.4812,-2.4821,-2.4596,-2.42,-2.4113,-2.3693,-2.3082,-2.3033,-2.3033,-2.3109,-2.3439,-2.3886,-2.4345,-2.417,-2.4216,-2.4468,-2.4284,-2.3941,-2.3499,-2.3499,-2.338,-2.3142,-2.2574,-2.2263,-2.2217,-2.1632,-2.1282,-2.1019,-2.0827,-2.0888,-2.1099,-2.0973,-2.1031,-2.1213,-2.1322,-2.1641,-2.2269,-2.2109,-2.2014,-2.2101,-2.2101,-2.1835,-2.128,-2.1558,-2.1126,-1.9893,-1.9821,-1.9525,0.0,0.0,0.0,0.0,0.0,0.0,0.0,0.0,0.0,0.0,0.0,-1.7713,-1.8422,-1.88,-1.8724,-1.8159,-1.8301,-1.835,-1.8073,-1.7999,-1.8155,-1.8566,-1.844,-1.8394,-1.8614,-1.8703,-1.8779,-1.8779,-1.8889,-1.8945,-1.9053,-1.9383,-1.9492,-1.9243,-1.9279,-1.9533,-1.9998,-2.0303,-2.0609,-2.0979,-2.1374,-2.1581,-2.1538,-2.1549,-2.133,-2.0609,-2.0467,-2.0246,-1.9526,-1.9535,-1.9508,-1.9079,-1.9187,-1.9283,-1.9292,-1.9292,-1.9228,-1.9081,-1.8722,-1.84,-2.75,-2.6848,-2.7077,-2.6985,-2.6637,-2.6278,-2.6094,-2.6094,-2.6094,-2.5901,-2.5552,-2.5106,-2.4931,-2.4931,-2.4876,-2.4858,-2.4876,-2.5267,-2.5372,-2.5353,-2.5014,-2.4821,-2.4766,-2.4459,-2.4015,-2.3581,-2.3572,-2.3669,-2.3738,-2.2981,-2.2778,-2.314,-2.2372,-2.1965,-2.1935,-2.154,-2.1293,-2.1238,-2.1883,-2.235,-2.2615,-2.2818,-2.3168,-2.3732,-2.3351,-2.2837,-2.2347,-2.2256,-2.1672,-2.0557,-2.0934,-2.0653,-1.949,-1.9901,-1.9778,0.0,-1.9207,0.0,0.0,0.0,0.0,0.0,0.0,0.0,0.0,-1.8365,-1.8559,-1.8813,-1.8566,-1.8577,-1.8916,-1.8944,-1.8944,-1.8953,-1.9246,-1.9457,-1.9457,-1.9412,-1.9384,-1.9384,-1.9474,-1.9554,-1.9497,-1.9809,-1.9962,-2.0024,-2.0432,-2.0477,-1.982,-1.9674,-1.9884,-2.0227,-2.0686,-2.1243,-2.1953,-2.192,-2.1832,-2.216,-2.1974,-2.1529,-2.0971,-2.0872,-2.046,-1.9383,-1.953,-1.9578,-1.876,-1.9199,-1.9502,-1.9499,-1.945,-1.9319,-1.8955,-1.8594,-1.8174,-2.8187,-2.8003,-2.7416,-2.7132,-2.7031,-2.6637,-2.6472,-2.6463,-2.6463,-2.6426,-2.6325,-2.5975,-2.5791,-2.5764,-2.5451,-2.5313,-2.5313,-2.5335,-2.5372,-2.5372,-2.535,-2.5139,-2.4785,-2.4702,-2.4496,-2.4101,-2.4082,-2.4368,-2.4926,-2.4488,-2.4388,-2.4651,-2.3661,-2.3245,-2.3387,0.0,0.0,0.0,-2.2149,-2.2559,-2.3274,-2.333,-2.3668,-2.4283,-2.3853,0.0,-2.3389,-2.3021,-2.2467,-2.1797,-2.1395,0.0,0.0,0.0,0.0,0.0,0.0,0.0,0.0,0.0,0.0,0.0,-2.0154,-1.9925,-1.9591,-1.9838,-1.9971,-1.9732,-1.9884,-2.0099,-2.0131,-2.014,-2.0182,-2.0182,-2.0237,-2.0292,-2.0241,-1.9966,-1.9774,-1.9806,-1.9519,-1.9379,-1.9485,-1.9671,-2.0059,-2.0469,-2.074,-2.1081,-2.1172,-2.1114,-2.1183,-2.133,-2.1396,-2.1669,-2.219,-2.2237,-2.2215,-2.2244,-2.2269,-2.1843,-2.1146,-2.0938,-2.108,-2.0799,-2.073,-2.0679,-2.108,-2.1113,-2.0547,-2.0118,-2.0001,-1.9864,-1.9319,-1.9127,-1.9054,-2.8278,-2.8058,-2.7866,-2.7545,0.0,-2.6958,-2.6765,-2.6591,-2.6591,-2.6591,-2.6573,-2.6371,-2.6324,-2.6261,-2.6059,-2.5968,-2.5977,-2.6021,-2.6069,-2.6205,-2.606,-2.5964,-2.5908,-2.5348,-2.4942,-2.4726,-2.4726,-2.4913,-2.5266,-2.5302,-2.5245,-2.5108,-2.4361,-2.3934,-2.3767,-2.3464,-2.3191,-2.2998,-2.335,-2.3748,-2.4199,-2.4294,-2.4522,-2.4814,-2.4355,0.0,0.0,0.0,0.0,0.0,0.0,0.0,0.0,-2.0042,0.0,-1.9921,-2.0265,-2.0592,-2.0772,-2.0782,-2.0857,-2.1074,-2.1074,-2.0827,-2.0264,-2.036,-2.0512,-2.047,-2.0521,-2.0594,-2.0778,-2.064,-2.0521,-2.0521,-2.0521,-2.0521,-2.0503,-2.0305,-2.0186,-2.0283,-2.0589,-2.0891,-2.0891,-2.1679,-2.2199,-2.2425,-2.2636,-2.2685,-2.2581,-2.2018,-2.1658,-2.1898,-2.1953,-2.2127,-2.2531,-2.2652,-2.2615,-2.2615,-2.2652,-2.2357,-2.1701,-2.1315,-2.109,-2.0818,-2.037,-2.0239,-2.0307,-2.0313,-2.0157,-1.9844,-1.9726,-1.9696,-1.9332,-1.9155,-1.8944,-2.8297,-2.8003,-2.8278,-2.8012,-2.7389,-2.7315,-2.7095,-2.6784,-2.6646,0.0,0.0,-2.6591,-2.6591,-2.6591,-2.6591,-2.6591,-2.6591,-2.6591,-2.6812,-2.7233,-2.6897,-2.6892,-2.7152,-2.6222,-2.5674,-2.5489,-2.5343,-2.5392,-2.5528,-2.5714,-2.5651,-2.5275,-2.4846,-2.4402,-2.4046,-2.4112,-2.4188,-2.4188,-2.4637,-2.4946,-2.5073,-2.5254,-2.5336,-2.5347,-2.4847,-2.4618,-2.4607,-2.394,-2.3217,-2.2388,-2.2027,-2.1289,-2.0146,-2.0508,-2.0643,-2.0356,-2.0857,-2.1218,-2.1227,-2.1495,-2.1687,-2.1687,-2.1687,-2.1403,-2.0744,-2.0741,-2.0869,-2.119,-2.0915,-2.0836,-2.1181,-2.09,-2.0741,-2.0741,-2.0741,-2.0698,-2.0689,-2.0649,-2.0622,-2.0739,-2.1441,-2.2104,-2.2034,-2.292,-2.3902,-2.3929,-2.3828,-2.4169,-2.3656,-2.2652,-2.2051,-2.2368,-2.2433,-2.2575,-2.2881,-2.2979,-2.2964,-2.2771,-2.2793,-2.2652,-2.2226,-2.1748,-2.1074,-2.0293,-1.9868,-1.9674,-1.9174,-1.9514,-1.9522,-1.9397,-1.9413,-1.9429,-1.9274,-1.9054,-1.8779,-2.8865,-2.8783,-2.8517,-2.8324,-2.8196,-2.7838,-2.7711,-2.7545,-2.6885,-2.6591,-2.6591,-2.6591,-2.6591,-2.6591,-2.6591,-2.6591,-2.6591,-2.6591,-2.7025,-2.7684,-2.768,-2.7646,-2.7703,-2.7512,-2.7042,-2.6304,-2.5625,-2.5684,-2.6205,-2.5722,-2.5613,-2.5912,-2.5375,-2.4917,-2.4795,-2.5338,-2.5601,-2.5601,-2.5158,-2.5211,-2.5728,-2.5788,-2.5786,-2.5775,-2.5327,-2.5117,-2.5076,-2.4625,-2.4284,-2.4101,-2.3535,-2.3121,-2.2886,-2.2276,-2.1939,-2.1868,-2.1689,-2.1604,-2.1604,-2.1668,-2.1687,-2.1687,-2.1687,-2.1641,-2.1531,-2.1522,-2.1549,-2.1595,-2.1513,-2.154,-2.1595,-2.1522,-2.1467,-2.1495,-2.1513,-2.1513,-2.1467,-2.1227,-2.1025,-2.1025,-2.085,-2.0876,-2.1118,-2.1504,-2.2003,-2.2156,-2.301,-2.3391,-2.3481,-2.3209,-2.2859,-2.2881,-2.2903,-2.2936,-2.2905,-2.3001,-2.2815,-2.2289,-2.23,-2.2189,-2.1729,-2.1455,-2.1152,-2.0713,-2.0715,-2.0598,-1.9916,-2.0434,-2.0331,-1.9774,-1.9744,-1.9805,-1.9371,-1.921,-1.9146,-2.8984,-2.8966,-2.8783,-2.8599,-2.8361,-2.7996,-2.7813,-2.7794,-2.7389,-2.7105,-2.6894,-2.6692,-2.6591,-2.6591,-2.6591,-2.6591,-2.6646,-2.7062,-2.7558,-2.8131,-2.8583,-2.8922,-2.9037,-2.8697,-2.8146,-2.7469,-2.71,-2.6967,-2.7088,-2.7115,-2.7091,-2.6749,-2.5962,-2.5486,-2.5454,-2.577,-2.5895,-2.5895,-2.5601,-2.5601,-2.5895,-2.5895,-2.5895,-2.5895,-2.5666,-2.5568,-2.5568,-2.5031,-2.4589,-2.4333,-2.3908,-2.3318,-2.2543,-2.2832,-2.2629,-2.1697,-2.203,-2.2132,-2.1741,-2.1687,-2.1687,-2.1687,-2.1687,-2.1687,-2.1687,-2.1687,-2.1687,-2.1687,-2.1687,-2.1687,-2.1687,-2.1687,-2.1687,-2.1687,-2.1687,-2.1687,-2.1678,-2.154,-2.1456,-2.1429,-2.164,-2.1744,-2.1744,-2.2232,-2.2591,-2.2771,-2.3078,-2.3113,-2.3035,-2.2645,-2.2373,-2.2515,-2.268,-2.2713,-2.2569,-2.2815,-2.2852,-2.2628,-2.259,-2.2355,-2.186,-2.1422,-2.0894,-2.0636,-2.0538,-2.03,-1.9839,-2.0272,-2.0234,-1.9831,-1.96,-1.9571,-1.9323,-1.9146,-1.9063,-2.8984,-2.8984,-2.8984,-2.8801,-2.8498,-2.8177,-2.8097,-2.8031,-2.7948,-2.7739,-2.7344,-2.6894,-2.6774,-2.6854,-2.6845,-2.7008,-2.7215,-2.778,-2.8341,-2.8888,-2.9528,-3.0008,-3.0308,-2.976,-2.9165,-2.8587,-2.8389,-2.8051,-2.7736,-2.8081,-2.7888,-2.705,-2.6389,-2.6005,-2.5906,-2.5895,-2.5895,-2.5895,-2.5895,-2.5895,-2.5895,-2.5895,-2.5895,-2.5895,-2.5895,-2.5895,-2.5895,-2.538,-2.4956,-2.4617,-2.4397,-2.3754,-2.2729,-2.3513,-2.3348,-2.1996,-2.2383,-2.2495,-2.1785,-2.1687,-2.1687,-2.1687,-2.1687,-2.1687,-2.1687,-2.1687,-2.1687,-2.1687,-2.1687,-2.1687,-2.1687,-2.1687,-2.1687,-2.1687,-2.1687,-2.1687,-2.1687,-2.1687,-2.1687,-2.1785,-2.2362,-2.274,-2.2706,-2.3125,-2.3428,-2.3259,-2.3033,-2.2647,-2.2361,-2.198,-2.1809,-2.1755,-2.2048,-2.2216,-2.1963,-2.2392,-2.2617,-2.2654,-2.2665,-2.2467,-2.2054,-2.1316,-2.0734,-2.0494,-1.9986,-1.9605,-1.9434,-1.959,-1.9592,-1.9212,-1.9152,-1.9139,-1.8971,-1.874,-1.8724,-2.8984,-2.8984,-2.8984,-2.8966,-2.8911,-2.8865,-2.8838,-2.8842,-2.8498,-2.8104,-2.775,-2.7297,-2.7389,-2.7657,-2.7682,-2.8101,-2.8774,-2.8933,-2.9387,-3.011,-3.0276,-3.0487,-3.0815,-3.0732,-3.0253,-2.9406,-2.8721,-2.8189,-2.7699,-2.7115,-2.6614,-2.6367,-2.6454,-2.6332,-2.5961,-2.5906,-2.5895,-2.5895,-2.5895,-2.5895,-2.5895,-2.5895,-2.5895,-2.5895,-2.5895,-2.5895,-2.5895,-2.5853,-2.579,-2.5757,-2.5642,-2.56,-2.5377,-2.5031,-2.4402,-2.3524,-2.3062,-2.2485,-2.1776,-2.1687,-2.1687,-2.1687,-2.1687,-2.1687,-2.1687,-2.1687,-2.1687,-2.1687,-2.1687,-2.1687,-2.1687,-2.1687,-2.1687,-2.1687,-2.1687,-2.1687,-2.1687,-2.1687,-2.1687,-2.1687,-2.2362,-2.2583,-2.2185,-2.2536,-2.2732,-2.2355,-2.2026,-2.1785,-2.1759,-2.1605,-2.1213,-2.0752,-2.0926,-2.1274,-2.1318,-2.1787,-2.1977,-2.1624,-2.1863,-2.2101,-2.1993,-2.159,-2.1022,-2.0524,-2.0127,-1.9475,-1.8817,-1.8543,-1.8841,-1.8788,-1.8711,-1.8696,-1.8366,-1.8219,-1.8394,-2.8984,-2.8984,-2.8984,-2.8984,-2.8984,-2.8984,-2.9133,-2.9368,-2.9521,-2.9327,-2.8962,-2.9007,-2.8623,-2.7833,-2.8349,-2.8774,-2.9134,-2.9628,-3.0057,-3.0443,-3.0858,-3.1214,-3.1295,-3.1323,-3.0963,-3.033,-2.9694,-2.9209,-2.8666,-2.7802,-2.7324,-2.7203,-2.6834,-2.6486,-2.6321,-2.6048,-2.5895,-2.5895,-2.5895,-2.5895,-2.5895,-2.5895,-2.5895,-2.5895,-2.5895,-2.5895,-2.5895,-2.5895,-2.5728,-2.5338,-2.5338,-2.4956,-2.409,-2.4155,-2.3724,-2.2677,-2.2309,-2.1998,-2.1731,-2.1687,-2.1687,-2.1687,-2.1687,-2.1687,-2.1687,-2.1687,-2.1687,-2.1687,-2.1687,-2.1687,-2.1687,-2.1687,-2.1687,-2.1687,-2.1687,-2.1687,-2.1687,-2.1687,-2.1687,-2.1731,-2.2318,-2.2715,-2.2403,-2.2389,-2.2074,-2.1448,-2.1016,-2.0942,-2.0774,-2.0636,-2.0458,-2.0136,-2.0103,-2.0245,-2.0547,-2.1175,-2.1482,-2.1711,-2.1911,-2.2101,-2.2042,-2.1705,-2.1215,-2.0606,-2.025,-1.9858,-1.9282,-1.9317,-1.9486,-1.9051,-1.8645,-1.8705,-1.8788,-1.844,-1.8357,-2.94,-2.939,-2.9608,-2.9795,-2.9795,-2.9795,-2.9957,-3.0238,-3.0645,-3.0529,-3.0153,-3.0559,-3.0067,-2.9064,-2.9439,-2.9688,-2.9858,-3.0559,-3.0871,-3.0817,-3.1373,-3.1567,-3.1567,-3.1567,-3.1367,-3.0898,-3.0417,-2.9882,-2.9281,-2.8615,-2.8122,-2.7893,-2.7173,-2.6715,-2.6594,-2.6147,-2.5895,-2.5895,-2.5895,-2.5895,-2.5895,-2.5895,-2.5895,-2.5895,-2.5895,-2.5895,-2.5895,-2.5895,-2.5686,-2.52,-2.5158,-2.4647,-2.3484,-2.3854,-2.3464,-2.2167,-2.1785,-2.1687,-2.1687,-2.1687,-2.1687,-2.1687,-2.1687,-2.1687,-2.1687,-2.1687,-2.1687,-2.1687,-2.1687,-2.1687,-2.1687,-2.1687,-2.1687,-2.1687,-2.1687,-2.1687,-2.1687,-2.1687,-2.1687,-2.1776,-2.252,-2.3091,-2.2969,-2.2494,-2.1683,-2.0772,-2.0328,-2.0118,-1.9842,-1.9751,-1.9751,-1.971,-1.9476,-1.9527,-1.9932,-2.0518,-2.1088,-2.1443,-2.1606,-2.1863,-2.1987,-2.1728,-2.156,-2.1114,-2.0717,-2.0242,-1.9712,-1.988,-1.9733,-1.9325,-1.8862,-1.8531,-1.8485,-1.8219,-1.8192,-3.0323,-3.0441,-3.1285,-3.1516,-3.1642,-3.1574,-3.1669,-3.1626,-3.1727,-3.1502,-3.1126,-3.1495,-3.1625,-3.15,-3.1166,-3.121,-3.1481,-3.1954,-3.19,-3.1508,-3.1567,-3.1567,-3.1567,-3.1567,-3.1378,-3.0952,-3.0493,-2.9794,-2.8935,-2.8803,-2.8495,-2.7991,-2.75,-2.7031,-2.666,-2.6223,-2.5917,-2.5961,-2.5917,-2.5895,-2.5895,-2.5895,-2.5895,-2.5895,-2.5895,-2.5895,-2.5906,-2.5895,-2.5853,-2.5812,-2.5686,-2.538,-2.4775,-2.469,-2.4036,-2.2794,-2.2043,-2.1687,-2.1687,-2.1687,-2.1687,-2.1687,-2.1687,-2.1687,-2.1687,-2.1687,-2.1687,-2.1687,-2.1687,-2.1687,-2.1687,-2.1687,-2.1687,-2.1687,-2.1687,-2.1687,-2.1687,-2.1687,-2.1687,-2.19,-2.2824,-2.3501,-2.3621,-2.251,-2.1514,-2.0657,-1.987,-1.9402,-1.9421,-1.9366,-1.9375,-1.9375,-1.9329,-1.9292,-1.942,-1.9854,-2.0196,-2.0586,-2.1098,-2.1433,-2.1624,-2.1718,-2.1697,-2.1415,-2.0556,-2.0061,-1.9966,-1.9647,-1.9149,-1.8737,-1.836,-1.8082,-1.8449,-1.7834,-1.7899,-2.9518,-2.9618,-3.1179,-3.1469,-3.1005,-3.1516,-3.1977,-3.2204,-3.2483,-3.2521,-3.2496,-3.2856,-3.2868,-3.2631,-3.2771,-3.2565,-3.2164,-3.2306,-3.211,-3.1611,-3.1567,-3.1567,-3.1567,-3.1567,-3.1502,-3.1313,-3.0876,-3.0144,-2.9361,-2.9263,-2.9022,-2.8495,-2.7969,-2.7642,-2.738,-2.6715,-2.6365,-2.6332,-2.6081,-2.5895,-2.5917,-2.5895,-2.5895,-2.5895,-2.5895,-2.5895,-2.5895,-2.5517,-2.5031,-2.4584,-2.4166,-2.3604,-2.295,-2.2872,-2.2643,-2.2176,-2.1865,-2.1687,-2.1687,-2.1687,-2.1687,-2.1687,-2.1687,-2.1687,-2.1687,-2.1687,-2.1687,-2.1687,-2.1687,-2.1687,-2.1687,-2.1687,-2.1687,-2.1687,-2.1687,-2.1687,-2.1687,-2.1687,-2.1687,-2.1872,-2.2693,-2.3403,-2.3383,-2.2629,-2.1694,-2.1174,-2.0099,-1.9415,-1.9292,-1.9292,-1.9292,-1.9292,-1.9292,-1.9292,-1.9292,-1.945,-1.9726,-2.0128,-2.0518,-2.0895,-2.1126,-2.1318,-2.1288,-2.1019,-2.0226,-1.987,-1.9817,-1.9554,-1.9017,-1.8935,-1.8476,-1.8265,-1.8623,-1.8229,-1.8366,-3.0246,-3.0946,-3.215,-3.2332,-3.1825,-3.2389,-3.2828,-3.3101,-3.3388,-3.3566,-3.3606,-3.3737,-3.3683,-3.3573,-3.3726,-3.3475,-3.2853,-3.2689,-3.2339,-3.188,-3.1644,-3.1567,-3.1567,-3.1567,-3.1567,-3.1491,-3.1127,-3.0406,-2.9587,-2.9489,-2.9274,-2.8792,-2.8265,-2.7991,-2.786,-2.7195,-2.6846,-2.6726,-2.6529,-2.631,-2.6168,-2.6136,-2.6059,-2.595,-2.6048,-2.6048,-2.5906,-2.5464,-2.4988,-2.4456,-2.382,-2.3047,-2.2185,-2.183,-2.1687,-2.1687,-2.1687,-2.1687,-2.1687,-2.1687,-2.1687,-2.1687,-2.1687,-2.1687,-2.1687,-2.1687,-2.1687,-2.1687,-2.1687,-2.1687,-2.1687,-2.1687,-2.1687,-2.1687,-2.1687,-2.1687,-2.1687,-2.1687,-2.1747,-2.1879,-2.2231,-2.2715,-2.2901,-2.2137,-2.1486,-2.1088,-1.9997,-1.932,-1.9292,-1.9292,-1.9292,-1.9292,-1.9292,-1.9292,-1.9292,-1.9371,-1.9411,-1.9726,-1.9932,-2.0274,-2.0624,-2.0779,-2.0818,-2.0508,-2.0206,-1.9893,-1.9578,-1.9371,-1.9283,-1.9274,-1.8926,-1.8559,-1.8724,-1.8797,-1.8815,-3.2721,-3.3998,-3.4468,-3.4233,-3.4065,-3.4177,-3.4401,-3.4312,-3.439,-3.4346,-3.4283,-3.4032,-3.4065,-3.4294,-3.4032,-3.3803,-3.3672,-3.3224,-3.284,-3.2361,-3.1859,-3.1662,-3.1695,-3.16,-3.1567,-3.1556,-3.116,-3.045,-2.9711,-2.9576,-2.9314,-2.8836,-2.8353,-2.8089,-2.8012,-2.7599,-2.7326,-2.7293,-2.7228,-2.6977,-2.6649,-2.6584,-2.6399,-2.6103,-2.6409,-2.6441,-2.6005,-2.5877,-2.5751,-2.5687,-2.5094,-2.4176,-2.2838,-2.2132,-2.1731,-2.1687,-2.1687,-2.1687,-2.1687,-2.1687,-2.1687,-2.1687,-2.1687,-2.1687,-2.1687,-2.1687,-2.1687,-2.1687,-2.1687,-2.1687,-2.1687,-2.1687,-2.1687,-2.1687,-2.1687,-2.1687,-2.1687,-2.1687,-2.1815,-2.2016,-2.1932,-2.1665,-2.1559,-2.1324,-2.082,-2.0326,-1.9725,-1.9292,-1.9292,-1.9292,-1.9292,-1.9292,-1.9292,-1.9292,-1.9292,-1.9292,-1.9292,-1.9332,-1.9411,-1.9648,-2.001,-2.0235,-2.0352,-2.0157,-2.004,-1.9726,-1.949,-1.9292,-1.9292,-1.9228,-1.8944,-1.8806,-1.888,-1.8944,-1.8871,-3.2664,-3.2789,-3.3998,-3.411,-3.3649,-3.4233,-3.4468,-3.4468,-3.4468,-3.4468,-3.4435,-3.4371,-3.4382,-3.4458,-3.4349,-3.4294,-3.4229,-3.3475,-3.3037,-3.2796,-3.2012,-3.1826,-3.2022,-3.1782,-3.1567,-3.1545,-3.1476,-3.1083,-3.0482,-3.0133,-2.974,-2.9259,-2.8768,-2.8549,-2.8506,-2.808,-2.7773,-2.7729,-2.7479,-2.7228,-2.7064,-2.7053,-2.7009,-2.6922,-2.702,-2.7009,-2.6835,-2.613,-2.5711,-2.5689,-2.4717,-2.3724,-2.2925,-2.2574,-2.222,-2.1776,-2.1687,-2.1687,-2.1687,-2.1687,-2.1687,-2.1687,-2.1687,-2.1687,-2.1687,-2.1687,-2.1687,-2.1687,-2.1687,-2.1687,-2.1687,-2.1687,-2.1687,-2.1687,-2.1687,-2.1687,-2.1687,-2.1678,-2.1774,-2.181,-2.1679,-2.1656,-2.171,-2.1219,-2.051,-2.0443,-1.9811,-1.9301,-1.9292,-1.9292,-1.9292,-1.9292,-1.9292,-1.9292,-1.9292,-1.9292,-1.9292,-1.9292,-1.9292,-1.9301,-1.9578,-1.9736,-1.9844,-1.9864,-1.9747,-1.9562,-1.9335,-1.9246,-1.9219,-1.9246,-1.91,-1.9063,-1.91,-1.9045,-1.8935,-3.3006,-3.296,-3.3998,-3.4177,-3.3706,-3.4289,-3.4468,-3.4468,-3.4468,-3.4468,-3.4468,-3.4468,-3.4468,-3.4468,-3.4468,-3.4468,-3.438,-3.3683,-3.3344,-3.3136,-3.2121,-3.1924,-3.2263,-3.1859,-3.1567,-3.1567,-3.1567,-3.1378,-3.0898,-3.0603,-3.022,-2.974,-2.9307,-2.9077,-2.9033,-2.8549,-2.8309,-2.8254,-2.8014,-2.7763,-2.7621,-2.7544,-2.749,-2.7326,-2.749,-2.7533,-2.7511,-2.684,-2.6383,-2.6027,-2.4864,-2.3755,-2.3113,-2.2758,-2.2335,-2.1876,-2.1815,-2.1861,-2.1723,-2.1687,-2.1687,-2.1687,-2.1687,-2.1687,-2.1687,-2.1687,-2.1687,-2.1687,-2.1687,-2.1687,-2.1687,-2.1687,-2.1687,-2.1687,-2.1687,-2.1687,-2.1678,-2.154,-2.1458,-2.1415,-2.1248,-2.1259,-2.1036,-2.0781,-2.0148,-2.0242,-1.9776,-1.9292,-1.9292,-1.9292,-1.9292,-1.9292,-1.9292,-1.9292,-1.9292,-1.9292,-1.9292,-1.9292,-1.9292,-1.9292,-1.9411,-1.945,-1.9529,-1.9437,-1.934,-1.9155,-1.8981,-1.9008,-1.8999,-1.9081,-1.91,-1.9109,-1.9036,-1.899,-1.8944,-3.3706,-3.4468,-3.4468,-3.4468,-3.4412,-3.4468,-3.4468,-3.4468,-3.4468,-3.4468,-3.4468,-3.4468,-3.4468,-3.4468,-3.4468,-3.4468,-3.437,-3.3988,-3.3781,-3.3431,-3.2481,-3.1957,-3.2154,-3.1804,-3.1578,-3.1567,-3.1567,-3.14,-3.1029,-3.0887,-3.0679,-3.0231,-2.9784,-2.9536,-2.9358,-2.9044,-2.8803,-2.8727,-2.8727,-2.8497,-2.8056,-2.8034,-2.786,-2.7523,-2.7872,-2.808,-2.8023,-2.7934,-2.7706,-2.7138,-2.5552,-2.4371,-2.3609,-2.2858,-2.2335,-2.1942,-2.2135,-2.2071,-2.1842,-2.1966,-2.192,-2.1919,-2.1865,-2.1785,-2.1865,-2.1776,-2.1687,-2.1687,-2.1687,-2.1687,-2.1687,-2.1687,-2.1687,-2.1687,-2.1687,-2.1687,-2.1659,-2.1376,-2.1328,-2.119,-2.0805,-2.0429,-2.0274,-2.0071,-1.9804,-1.9519,-1.9359,-1.9301,-1.9292,-1.9292,-1.9292,-1.9292,-1.9292,-1.9292,-1.9292,-1.9292,-1.9292,-1.9292,-1.9292,-1.9292,-1.9292,-1.9283,-1.9081,-1.9008,-1.8962,-1.8797,-1.8687,-1.8678,-1.8678,-1.8678,-1.876,-1.8898,-1.8926,-1.8843,-1.8935,-3.4289,-3.4468,-3.4468,-3.4468,-3.4468,-3.4468,-3.4468,-3.4468,-3.4468,-3.4468,-3.4468,-3.4468,-3.4468,-3.4468,-3.4468,-3.4468,-3.4403,-3.4032,-3.4032,-3.4065,-3.2842,-3.2055,-3.1859,-3.1654,-3.1567,-3.1567,-3.1567,-3.1564,-3.1411,-3.1094,-3.0865,-3.0701,-3.0253,-2.9838,-2.951,-2.9379,-2.9095,-2.8858,-2.8814,-2.8771,-2.8604,-2.8596,-2.8552,-2.8464,-2.853,-2.8596,-2.8606,-2.8617,-2.8156,-2.7347,-2.6354,-2.5454,-2.472,-2.3953,-2.3251,-2.2714,-2.2629,-2.2556,-2.2354,-2.2606,-2.2754,-2.2523,-2.2397,-2.2495,-2.2495,-2.1998,-2.1776,-2.1687,-2.1687,-2.1687,-2.1687,-2.1687,-2.1687,-2.1687,-2.1714,-2.1714,-2.1668,-2.1604,-2.1531,-2.1485,-2.1181,-2.0805,-2.0438,-2.0067,-1.9774,-1.9457,-1.9311,-1.9292,-1.9292,-1.9292,-1.9292,-1.9292,-1.9292,-1.9292,-1.9292,-1.9292,-1.9292,-1.9292,-1.9292,-1.9301,-1.9283,-1.9265,-1.8898,-1.8559,-1.8595,-1.8485,-1.8348,-1.8275,-1.8275,-1.8275,-1.8375,-1.8495,-1.8605,-1.8614,-1.8815,-3.4468,-3.4468,-3.4468,-3.4468,-3.4468,-3.4468,-3.4468,-3.4468,-3.4468,-3.4468,-3.4468,-3.4468,-3.4468,-3.4468,-3.4468,-3.4468,-3.4413,-3.4229,-3.4152,-3.3945,-3.2929,-3.2143,-3.1738,-3.1567,-3.1567,-3.1567,-3.1567,-3.1567,-3.1575,-3.1323,-3.1214,-3.1116,-3.0734,-3.0351,-3.0133,-2.986,-2.9674,-2.939,-2.9241,-2.911,-2.9099,-2.8902,-2.8803,-2.8792,-2.8803,-2.8803,-2.8803,-2.8803,-2.8508,-2.7856,-2.7054,-2.6326,-2.5859,-2.4854,-2.4049,-2.3458,-2.3278,-2.2904,-2.2502,-2.2729,-2.2732,-2.2501,-2.2583,-2.2574,-2.2407,-2.2141,-2.2132,-2.1731,-2.1687,-2.1687,-2.1687,-2.1687,-2.1687,-2.1714,-2.1842,-2.1861,-2.1723,-2.1678,-2.1687,-2.1623,-2.1511,-2.1218,-2.0814,-2.042,-1.9985,-1.9619,-1.9402,-1.9347,-1.9292,-1.9292,-1.9265,-1.9237,-1.9265,-1.9283,-1.9274,-1.9274,-1.9396,-1.9396,-1.9433,-1.9415,-1.9356,-1.9292,-1.8806,-1.844,-1.832,-1.8164,-1.7981,-1.7862,-1.7853,-1.7889,-1.7944,-1.8182,-1.8393,-1.8476,-1.8678,-3.4468,-3.4468,-3.4468,-3.4468,-3.4468,-3.4468,-3.4468,-3.4468,-3.4468,-3.4468,-3.4468,-3.4468,-3.4468,-3.4468,-3.4468,-3.4468,-3.4457,-3.436,-3.3999,-3.3541,-3.282,-3.2252,-3.1826,-3.1611,-3.1578,-3.1567,-3.1567,-3.1567,-3.1556,-3.1586,-3.1545,-3.1476,-3.1138,-3.0941,-3.0701,-3.0439,-3.0286,-3.0035,-2.9598,-2.9401,-2.935,-2.9044,-2.8814,-2.8803,-2.8803,-2.8803,-2.8803,-2.8803,-2.8749,-2.8781,-2.7676,-2.7104,-2.6842,-2.5627,-2.4876,-2.4484,-2.4212,-2.3691,-2.3019,-2.3192,-2.2793,-2.2619,-2.2869,-2.264,-2.2333,-2.2396,-2.2323,-2.1741,-2.1733,-2.1806,-2.1806,-2.1778,-2.1861,-2.1961,-2.2199,-2.2135,-2.1916,-2.1778,-2.1733,-2.1687,-2.1687,-2.1485,-2.1172,-2.0796,-2.0411,-1.9802,-1.9564,-1.9476,-1.9366,-1.9292,-1.9219,-1.9118,-1.9182,-1.9265,-1.9256,-1.9256,-1.9454,-1.9577,-1.9632,-1.9611,-1.9522,-1.9329,-1.8797,-1.8394,-1.7999,-1.7706,-1.7504,-1.7431,-1.7458,-1.7605,-1.7779,-1.8136,-1.8531,-1.8411,-1.8531,-3.4468,-3.4468,-3.4468,-3.4468,-3.4468,-3.4468,-3.4468,-3.4468,-3.4468,-3.4468,-3.4468,-3.4468,-3.4457,-3.4446,-3.4457,-3.4468,-3.438,-3.4141,-3.3519,-3.2754,-3.2993,-3.2634,-3.2219,-3.1891,-3.1611,-3.16,-3.1578,-3.1567,-3.1567,-3.1567,-3.1567,-3.1534,-3.1436,-3.1269,-3.093,-3.0843,-3.0559,-3.0209,-2.9762,-2.9576,-2.9478,-2.9121,-2.8836,-2.8803,-2.8803,-2.8803,-2.8803,-2.8803,-2.8803,-2.8585,-2.8021,-2.753,-2.7353,-2.6561,-2.6014,-2.5859,-2.5793,-2.5531,-2.5258,-2.5271,-2.5391,-2.4309,-2.3994,-2.3846,-2.3104,-2.2653,-2.2278,-2.1851,-2.1961,-2.2144,-2.2163,-2.2153,-2.2263,-2.2474,-2.2666,-2.2721,-2.2602,-2.2336,-2.2016,-2.1797,-2.1687,-2.154,-2.1181,-2.1071,-2.0659,-2.0058,-1.9765,-1.9641,-1.9485,-1.9329,-1.9301,-1.9246,-1.932,-1.9421,-1.9396,-1.9491,-1.9826,-2.0046,-2.0102,-1.9987,-1.9897,-1.9461,-1.8946,-1.8257,-1.7504,-1.7284,-1.7174,-1.7119,-1.7156,-1.7367,-1.7614,-1.8045,-1.8348,-1.832,-1.854,-3.468,-3.4891,-3.4635,-3.468,-3.4836,-3.4624,-3.4468,-3.4468,-3.4468,-3.4468,-3.4468,-3.4468,-3.4403,-3.4218,-3.4392,-3.4414,-3.424,-3.4174,-3.377,-3.3257,-3.3311,-3.3136,-3.2765,-3.2437,-3.2219,-3.2001,-3.1717,-3.1578,-3.1567,-3.1567,-3.1567,-3.1567,-3.1567,-3.1487,-3.128,-3.1225,-3.1127,-3.0876,-3.0406,-3.0144,-3.0057,-2.9445,-2.8978,-2.8847,-2.8803,-2.8803,-2.8803,-2.8803,-2.8803,-2.8699,-2.8409,-2.8164,-2.793,-2.7163,-2.6733,-2.6924,-2.6205,-2.6054,-2.597,-2.6155,-2.5962,-2.528,-2.4897,-2.4429,-2.389,-2.3304,-2.2852,-2.2456,-2.2446,-2.2574,-2.2565,-2.2346,-2.2519,-2.2831,-2.3078,-2.3105,-2.2895,-2.2538,-2.2263,-2.197,-2.1815,-2.1632,-2.1412,-2.1282,-2.0906,-2.0365,-1.9989,-1.9837,-1.9549,-1.9439,-1.9558,-1.9567,-1.9595,-1.9595,-1.9543,-1.9796,-2.0298,-2.0599,-2.0841,-2.0699,-2.0526,-1.9881,-1.9171,-1.8432,-1.7733,-1.7138,-1.7009,-1.6945,-1.7027,-1.7202,-1.7513,-1.7926,-1.8311,-1.8557,-1.8852,-3.5058,-3.5477,-3.5013,-3.5058,-3.5433,-3.5013,-3.4847,-3.4791,-3.468,-3.468,-3.4579,-3.4579,-3.4283,-3.3999,-3.4327,-3.4229,-3.3999,-3.3988,-3.3748,-3.353,-3.3486,-3.3399,-3.3223,-3.3104,-3.2962,-3.2547,-3.2066,-3.1804,-3.16,-3.1567,-3.1567,-3.1567,-3.1567,-3.1534,-3.1556,-3.1567,-3.148,-3.136,-3.0985,-3.0756,-3.0668,-2.9991,-2.9401,-2.9055,-2.8836,-2.8814,-2.8803,-2.8803,-2.8803,-2.8803,-2.8803,-2.8803,-2.8466,-2.76,-2.6887,-2.7494,-2.6398,-2.5922,-2.6026,-2.6027,-2.5876,-2.537,-2.5121,-2.4687,-2.4103,-2.3758,-2.3402,-2.3,-2.2785,-2.2776,-2.2931,-2.2675,-2.2702,-2.305,-2.3425,-2.3389,-2.3105,-2.2731,-2.241,-2.2199,-2.1906,-2.1641,-2.1549,-2.1403,-2.1053,-2.071,-2.0384,-2.0144,-1.9903,-1.9932,-2.027,-2.0326,-2.0426,-2.0316,-2.0242,-2.0397,-2.091,-2.1097,-2.1444,-2.1368,-2.111,-2.0431,-1.9692,-1.884,-1.8128,-1.7604,-1.7275,-1.7348,-1.7376,-1.7275,-1.7651,-1.8274,-1.8649,-1.8896,-1.9136,-3.6048,-3.6157,-3.6048,-3.6048,-3.6114,-3.6048,-3.595,-3.5884,-3.5444,-3.5279,-3.5224,-3.4725,-3.4306,-3.4054,-3.4305,-3.4218,-3.389,-3.3726,-3.3497,-3.3431,-3.3388,-3.3399,-3.3672,-3.3672,-3.3595,-3.3355,-3.2743,-3.2132,-3.1749,-3.1567,-3.1633,-3.1589,-3.1567,-3.1567,-3.1567,-3.1567,-3.1567,-3.1524,-3.1203,-3.0996,-3.0832,-3.0351,-2.9784,-2.9303,-2.9,-2.8825,-2.8803,-2.8803,-2.8803,-2.8803,-2.8803,-2.8803,-2.8617,-2.7882,-2.7494,-2.7352,-2.6733,-2.6242,-2.6295,-2.6353,-2.6018,-2.5458,-2.5042,-2.4488,-2.3916,-2.362,-2.3518,-2.3128,-2.2767,-2.2693,-2.3325,-2.3041,-2.3215,-2.3703,-2.3981,-2.4018,-2.3776,-2.3263,-2.2648,-2.2382,-2.2025,-2.1687,-2.1614,-2.1566,-2.1379,-2.1308,-2.1269,-2.1157,-2.1055,-2.1293,-2.1675,-2.1603,-2.1401,-2.1272,-2.11,-2.1278,-2.1556,-2.1618,-2.1836,-2.2002,-2.1627,-2.1015,-2.0266,-1.9676,-1.8999,-1.8433,-1.8175,-1.799,-1.8109,-1.8293,-1.8577,-1.8804,-1.9015,-1.9225,-1.9283,-3.6495,-3.6712,-3.6429,-3.6483,-3.6646,-3.6429,-3.6266,-3.6266,-3.5993,-3.5872,-3.5774,-3.5521,-3.5018,-3.4517,-3.4481,-3.4317,-3.3912,-3.389,-3.3803,-3.3825,-3.3835,-3.3912,-3.4141,-3.4163,-3.3988,-3.3748,-3.3278,-3.2689,-3.2077,-3.2033,-3.1859,-3.1611,-3.1567,-3.1567,-3.1567,-3.1567,-3.1567,-3.1553,-3.1389,-3.1258,-3.1171,-3.0614,-2.9991,-2.951,-2.9099,-2.8836,-2.8803,-2.8803,-2.8803,-2.8803,-2.8803,-2.8803,-2.8571,-2.8139,-2.76,-2.7536,-2.6945,-2.6504,-2.6504,-2.6504,-2.6282,-2.5945,-2.5324,-2.4871,-2.4425,-2.4163,-2.373,-2.3529,-2.3187,-2.3198,-2.3785,-2.3455,-2.3602,-2.3987,-2.4211,-2.426,-2.4036,-2.34,-2.3035,-2.2686,-2.2216,-2.1922,-2.1687,-2.1666,-2.1704,-2.1798,-2.2017,-2.2149,-2.218,-2.2581,-2.2971,-2.2673,-2.2405,-2.2122,-2.1926,-2.2001,-2.2184,-2.226,-2.2231,-2.2355,-2.2351,-2.1787,-2.1337,-2.0859,-2.0173,-1.9487,-1.9121,-1.8972,-1.9182,-1.9304,-1.9347,-1.9399,-1.9445,-1.9558,-1.9595,-3.6916,-3.7239,-3.6808,-3.6862,-3.7185,-3.6862,-3.6646,-3.6646,-3.6538,-3.6483,-3.6429,-3.6274,-3.565,-3.4978,-3.4729,-3.4495,-3.4184,-3.456,-3.467,-3.4604,-3.4494,-3.4515,-3.4502,-3.4424,-3.4316,-3.4054,-3.3923,-3.3399,-3.2492,-3.2317,-3.2066,-3.1709,-3.1567,-3.1567,-3.1567,-3.1567,-3.1567,-3.1567,-3.1567,-3.1567,-3.1349,-3.0723,-3.0111,-2.9685,-2.9186,-2.8891,-2.9175,-2.8913,-2.8924,-2.8924,-2.8902,-2.8847,-2.883,-2.8314,-2.7968,-2.7783,-2.6999,-2.6514,-2.6254,-2.6205,-2.6022,-2.5635,-2.5353,-2.5099,-2.4894,-2.4375,-2.4156,-2.4128,-2.4001,-2.3701,-2.3901,-2.3897,-2.3946,-2.4189,-2.4405,-2.4461,-2.441,-2.4103,-2.3815,-2.3298,-2.259,-2.2158,-2.2011,-2.2122,-2.2168,-2.2374,-2.2601,-2.3165,-2.3262,-2.3794,-2.4013,-2.3678,-2.3384,-2.3046,-2.283,-2.2627,-2.2755,-2.2838,-2.2727,-2.2707,-2.2746,-2.263,-2.2212,-2.175,-2.1436,-2.0784,-2.0391,-1.9986,-2.008,-2.0107,-2.0021,-2.0021,-2.0182,-2.0099,-2.0026,-3.7814,-3.7868,-3.7814,-3.7826,-3.788,-3.7761,-3.7761,-3.7667,-3.7185,-3.7024,-3.697,-3.6491,-3.5875,-3.509,-3.4865,-3.4994,-3.5119,-3.5143,-3.513,-3.5024,-3.4747,-3.456,-3.4525,-3.4468,-3.4435,-3.4338,-3.4371,-3.3628,-3.2809,-3.2514,-3.2132,-3.1738,-3.1567,-3.1567,-3.1567,-3.1567,-3.1567,-3.1567,-3.1567,-3.1567,-3.1425,-3.0723,-3.0472,-3.022,-2.9587,-2.9132,-2.95,-2.9128,-2.8957,-2.9252,-2.8978,-2.9033,-2.9303,-2.9401,-2.9171,-2.8557,-2.7477,-2.6215,-2.582,-2.5703,-2.5411,-2.5039,-2.4538,-2.4399,-2.4399,-2.4341,-2.4202,-2.4183,-2.4378,-2.4305,-2.4119,-2.4286,-2.4498,-2.4804,-2.5043,-2.5158,-2.515,-2.4977,-2.4647,-2.4536,-2.4001,-2.3014,-2.2436,-2.258,-2.2731,-2.2955,-2.3244,-2.3821,-2.4313,-2.4746,-2.484,-2.4461,-2.3932,-2.3602,-2.3087,-2.2987,-2.2838,-2.3091,-2.3013,-2.2882,-2.2838,-2.2794,-2.2838,-2.2433,-2.2164,-2.1764,-2.109,-2.0824,-2.0946,-2.0903,-2.0765,-2.0824,-2.0924,-2.0759,-2.0475,-3.7709,-3.7974,-3.7974,-3.7974,-3.7974,-3.7974,-3.7974,-3.7921,-3.772,-3.7601,-3.7548,-3.74,-3.6697,-3.5771,-3.5398,-3.5101,-3.5072,-3.5082,-3.4934,-3.4947,-3.4748,-3.4593,-3.4525,-3.4468,-3.4468,-3.4468,-3.4402,-3.4119,-3.3322,-3.282,-3.2427,-3.1728,-3.1578,-3.1567,-3.1567,-3.1567,-3.1567,-3.1567,-3.1567,-3.1567,-3.1455,-3.0996,-3.057,-3.0493,-2.962,-2.9401,-2.9303,-2.9132,-2.888,-2.9077,-2.8858,-2.9044,-2.9347,-2.951,-2.9504,-2.9699,-2.911,-2.7952,-2.6644,-2.6074,-2.5446,-2.4871,-2.4498,-2.4251,-2.4211,-2.4251,-2.4251,-2.4202,-2.4722,-2.4783,-2.4707,-2.5266,-2.5554,-2.5757,-2.5758,-2.5885,-2.5933,-2.5797,-2.5618,-2.55,-2.5381,-2.454,-2.3746,-2.3624,-2.3877,-2.4025,-2.4288,-2.4657,-2.5084,-2.541,-2.5347,-2.5052,-2.4532,-2.4018,-2.3404,-2.2979,-2.2522,-2.2618,-2.2706,-2.2618,-2.2662,-2.2706,-2.2769,-2.2769,-2.2505,-2.2087,-2.1643,-2.1575,-2.1621,-2.1593,-2.1519,-2.1465,-2.1376,-2.1117,-2.0906,-3.7505,-3.7962,-3.7974,-3.7974,-3.7974,-3.7974,-3.7974,-3.7974,-3.7974,-3.7974,-3.7926,-3.7777,-3.7266,-3.6689,-3.6174,-3.5857,-3.5382,-3.5231,-3.508,-3.4958,-3.4791,-3.4658,-3.4524,-3.4468,-3.4468,-3.4468,-3.4468,-3.4185,-3.3792,-3.3366,-3.2776,-3.1837,-3.1633,-3.1589,-3.1567,-3.1567,-3.1567,-3.1567,-3.1567,-3.1567,-3.148,-3.1138,-3.0821,-3.045,-2.9936,-2.9467,-2.9503,-2.9088,-2.9022,-2.9449,-2.9339,-2.9489,-2.986,-3.0002,-3.022,-3.0421,-3.0311,-2.9738,-2.845,-2.751,-2.6418,-2.5534,-2.4705,-2.4211,-2.4202,-2.4301,-2.4489,-2.4587,-2.5236,-2.5402,-2.5421,-2.5856,-2.6104,-2.6275,-2.6479,-2.6645,-2.6798,-2.6789,-2.6718,-2.6568,-2.6501,-2.6505,-2.5765,-2.5145,-2.5049,-2.5183,-2.5379,-2.5562,-2.5786,-2.602,-2.5902,-2.5637,-2.4934,-2.4442,-2.3991,-2.3339,-2.2725,-2.2295,-2.2384,-2.24,-2.2508,-2.2596,-2.2694,-2.2675,-2.2688,-2.2638,-2.2343,-2.2305,-2.2275,-2.2186,-2.2086,-2.1915,-2.176,-2.1511,-2.1337,-3.7493,-3.7974,-3.7974,-3.7974,-3.7974,-3.7974,-3.7974,-3.7974,-3.7974,-3.7974,-3.7861,-3.75,-3.7256,-3.6992,-3.6818,-3.6701,-3.6875,-3.6938,-3.6263,-3.5774,-3.5598,-3.4947,-3.4624,-3.4468,-3.4468,-3.4468,-3.4468,-3.4261,-3.3912,-3.3748,-3.3126,-3.2427,-3.199,-3.1687,-3.1567,-3.1567,-3.1567,-3.1567,-3.1567,-3.1567,-3.1458,-3.1258,-3.1094,-3.1072,-3.0362,-3.0024,-3.1192,-3.01,-2.9674,-3.033,-3.0067,-3.0122,-3.0439,-3.0548,-3.0799,-3.1149,-3.1229,-3.0799,-3.0084,-2.9011,-2.7811,-2.6318,-2.5157,-2.4603,-2.4637,-2.502,-2.5157,-2.5294,-2.5974,-2.5912,-2.5717,-2.5726,-2.6666,-2.6892,-2.7238,-2.7463,-2.7694,-2.806,-2.791,-2.7666,-2.7533,-2.7522,-2.761,-2.6956,-2.6154,-2.618,-2.5776,-2.592,-2.6237,-2.6422,-2.639,-2.6066,-2.5316,-2.4857,-2.4623,-2.3948,-2.2926,-2.2614,-2.264,-2.2492,-2.2363,-2.2497,-2.2855,-2.2749,-2.28,-2.2927,-2.3064,-2.2871,-2.2741,-2.2732,-2.2594,-2.2419,-2.2263,-2.2062,-2.1879,-3.7204,-3.7974,-3.7974,-3.7974,-3.7974,-3.7974,-3.7974,-3.7974,-3.7974,-3.7773,-3.7429,-3.7187,-3.6944,-3.6666,-3.6225,-3.6118,-3.6033,-3.5649,-3.5477,-3.5235,-3.4902,-3.468,-3.4524,-3.4468,-3.4468,-3.4468,-3.4457,-3.4491,-3.4283,-3.3999,-3.3693,-3.3115,-3.2437,-3.1946,-3.176,-3.1589,-3.1567,-3.1567,-3.1567,-3.1567,-3.1534,-3.1425,-3.1302,-3.104,-3.0865,-3.0406,-3.0614,-3.0242,-3.0231,-3.0351,-3.033,-3.0581,-3.0854,-3.093,-3.1181,-3.1553,-3.1567,-3.1458,-3.115,-3.0141,-2.87,-2.7201,-2.631,-2.5888,-2.5528,-2.5887,-2.6022,-2.6254,-2.6686,-2.6639,-2.6791,-2.7306,-2.797,-2.7864,-2.7921,-2.8132,-2.8362,-2.8653,-2.8689,-2.8183,-2.8347,-2.8506,-2.8648,-2.872,-2.7852,-2.7114,-2.6681,-2.638,-2.6704,-2.663,-2.6491,-2.6186,-2.5407,-2.474,-2.4488,-2.3764,-2.3007,-2.2923,-2.2895,-2.2793,-2.2692,-2.3099,-2.3342,-2.3139,-2.2936,-2.3056,-2.3137,-2.3183,-2.3146,-2.312,-2.299,-2.2785,-2.2702,-2.2602,-2.2428,-3.6928,-3.7733,-3.7914,-3.7974,-3.7974,-3.7974,-3.7974,-3.7974,-3.7974,-3.7667,-3.7078,-3.697,-3.6646,-3.6211,-3.5927,-3.5582,-3.5493,-3.5145,-3.4814,-3.467,-3.4581,-3.4502,-3.4468,-3.4468,-3.4468,-3.4468,-3.4468,-3.4446,-3.4458,-3.4163,-3.3912,-3.3551,-3.3016,-3.2394,-3.1946,-3.1684,-3.1578,-3.1567,-3.1567,-3.1567,-3.1567,-3.1545,-3.152,-3.116,-3.0941,-3.0876,-3.0766,-3.0603,-3.0581,-3.069,-3.0756,-3.0843,-3.1007,-3.116,-3.1302,-3.1436,-3.1567,-3.1567,-3.1294,-3.0419,-2.9293,-2.8265,-2.726,-2.6979,-2.6835,-2.6787,-2.6829,-2.6877,-2.7305,-2.7589,-2.7636,-2.7882,-2.807,-2.7834,-2.8333,-2.8606,-2.8606,-2.8803,-2.8803,-2.8642,-2.8899,-2.9061,-2.8971,-2.9066,-2.8821,-2.8139,-2.7844,-2.7471,-2.7382,-2.7072,-2.634,-2.5943,-2.5371,-2.4713,-2.4135,-2.3642,-2.3242,-2.3158,-2.3158,-2.3233,-2.328,-2.3608,-2.3627,-2.3363,-2.3221,-2.3211,-2.333,-2.3467,-2.3474,-2.3435,-2.337,-2.3316,-2.3114,-2.3014,-2.2867,-3.6711,-3.7252,-3.7757,-3.7962,-3.7974,-3.7974,-3.7974,-3.7974,-3.7921,-3.756,-3.697,-3.6538,-3.6277,-3.6102,-3.5884,-3.5647,-3.5389,-3.521,-3.5012,-3.467,-3.4548,-3.4502,-3.4468,-3.4468,-3.4468,-3.4468,-3.4468,-3.4468,-3.4468,-3.437,-3.4196,-3.3857,-3.3355,-3.2732,-3.2391,-3.187,-3.16,-3.1567,-3.1567,-3.1567,-3.1567,-3.1567,-3.1564,-3.1444,-3.1192,-3.1116,-3.1203,-3.1029,-3.104,-3.1258,-3.1273,-3.1349,-3.1415,-3.1447,-3.1502,-3.1545,-3.1567,-3.1567,-3.1483,-3.044,-2.9859,-2.9476,-2.8533,-2.7813,-2.7431,-2.7445,-2.762,-2.7689,-2.7741,-2.7731,-2.7683,-2.7731,-2.7882,-2.8117,-2.8606,-2.8896,-2.8896,-2.8989,-2.9035,-2.922,-2.9347,-2.9428,-2.929,-2.9222,-2.9349,-2.9122,-2.8958,-2.8569,-2.7896,-2.7283,-2.6336,-2.6032,-2.5491,-2.4984,-2.4429,-2.3805,-2.3476,-2.3448,-2.3523,-2.373,-2.3739,-2.3824,-2.3737,-2.3551,-2.3531,-2.3609,-2.3726,-2.3813,-2.3785,-2.3767,-2.3932,-2.3935,-2.3675,-2.3407,-2.3242,-3.6398,-3.7204,-3.7385,-3.7661,-3.795,-3.7974,-3.7974,-3.7921,-3.756,-3.7078,-3.6538,-3.5927,-3.5444,-3.5235,-3.5168,-3.5112,-3.4924,-3.4825,-3.4615,-3.4593,-3.4514,-3.4502,-3.4468,-3.4468,-3.4468,-3.4468,-3.4468,-3.4468,-3.4468,-3.4468,-3.448,-3.4185,-3.3704,-3.2929,-3.2252,-3.1891,-3.2012,-3.1644,-3.1567,-3.1567,-3.1567,-3.1567,-3.1567,-3.1607,-3.1422,-3.1444,-3.1607,-3.1367,-3.1455,-3.1545,-3.1567,-3.1567,-3.1567,-3.1567,-3.1567,-3.1567,-3.1567,-3.1567,-3.1556,-3.1095,-3.086,-3.0396,-2.9885,-2.9116,-2.8855,-2.8796,-2.8718,-2.8481,-2.8355,-2.8391,-2.842,-2.842,-2.8513,-2.8502,-2.8839,-2.9024,-2.9163,-2.9255,-2.9405,-2.9726,-2.9943,-2.9669,-2.9428,-2.8945,-2.898,-2.8376,-2.7919,-2.7552,-2.6964,-2.669,-2.6149,-2.6102,-2.5803,-2.5304,-2.4775,-2.4307,-2.4135,-2.423,-2.4343,-2.4494,-2.4408,-2.422,-2.4169,-2.4173,-2.4066,-2.4017,-2.4051,-2.4076,-2.4045,-2.4042,-2.4165,-2.4192,-2.3999,-2.3758,-2.3611,-3.6014,-3.6663,-3.7048,-3.7385,-3.7709,-3.7902,-3.7974,-3.788,-3.7185,-3.6592,-3.6211,-3.5653,-3.5113,-3.4736,-3.4736,-3.4471,-3.4316,-3.4469,-3.4316,-3.4338,-3.4469,-3.4446,-3.4468,-3.4468,-3.4468,-3.4468,-3.4468,-3.4468,-3.4468,-3.4468,-3.4382,-3.4196,-3.4109,-3.3366,-3.2623,-3.2328,-3.2099,-3.176,-3.1567,-3.1567,-3.1567,-3.1567,-3.1567,-3.1567,-3.1545,-3.1567,-3.1567,-3.1567,-3.1567,-3.1567,-3.1567,-3.1567,-3.1567,-3.1567,-3.1567,-3.1567,-3.1567,-3.1567,-3.1556,-3.1556,-3.1309,-3.1113,-3.1029,-3.0614,-3.0046,-2.9774,-2.9594,-2.9343,-2.9164,-2.915,-2.9194,-2.9186,-2.8935,-2.8935,-2.8995,-2.9181,-2.9382,-2.9531,-2.9669,-3.0034,-3.0306,-2.9977,-2.9417,-2.8888,-2.8495,-2.7626,-2.6696,-2.6418,-2.6235,-2.61,-2.5955,-2.5936,-2.5829,-2.5334,-2.5072,-2.4917,-2.4887,-2.5011,-2.5088,-2.5079,-2.5001,-2.4792,-2.4788,-2.4686,-2.4534,-2.4429,-2.4414,-2.4372,-2.4285,-2.4236,-2.4223,-2.4242,-2.4192,-2.4073,-2.3859,-3.5605,-3.5761,-3.6711,-3.7144,-3.7288,-3.7769,-3.7974,-3.7933,-3.6862,-3.6375,-3.632,-3.5708,-3.5102,-3.4725,-3.5102,-3.4803,-3.4142,-3.4382,-3.4261,-3.4152,-3.4392,-3.4413,-3.4468,-3.4468,-3.4468,-3.4468,-3.4468,-3.4468,-3.4468,-3.4468,-3.4294,-3.4065,-3.4261,-3.3595,-3.2984,-3.2547,-3.2219,-3.1935,-3.1611,-3.1589,-3.1567,-3.1567,-3.1567,-3.1567,-3.1567,-3.1567,-3.1567,-3.1567,-3.1567,-3.1567,-3.1567,-3.1567,-3.1567,-3.1567,-3.1567,-3.1567,-3.1567,-3.1567,-3.1567,-3.1567,-3.1567,-3.1444,-3.1192,-3.0974,-3.0712,-3.0373,-3.0133,-2.9915,-2.9696,-2.986,-2.998,-2.9602,-2.9197,-2.92,-2.9193,-2.9409,-2.96,-2.9761,-2.9886,-3.0169,-3.0498,-3.0238,-2.9383,-2.8762,-2.8079,-2.72,-2.6504,-2.6322,-2.6149,-2.5965,-2.582,-2.5625,-2.5518,-2.5323,-2.5177,-2.5226,-2.5284,-2.5342,-2.544,-2.5489,-2.5391,-2.5284,-2.5137,-2.503,-2.4932,-2.4833,-2.4686,-2.4587,-2.4529,-2.444,-2.4341,-2.4242,-2.4242,-2.4202,-2.4073,-3.528,-3.5653,-3.5942,-3.6495,-3.7216,-3.7757,-3.7974,-3.7868,-3.7185,-3.6862,-3.6808,-3.5806,-3.5256,-3.5168,-3.4891,-3.4559,-3.4448,-3.437,-3.4436,-3.4425,-3.437,-3.4446,-3.4468,-3.4468,-3.4468,-3.4468,-3.4468,-3.4468,-3.4468,-3.4468,-3.4283,-3.3956,-3.425,-3.3683,-3.318,-3.2829,-3.2503,-3.2175,-3.1837,-3.16,-3.1567,-3.1567,-3.1567,-3.1567,-3.1567,-3.1567,-3.1567,-3.1567,-3.1567,-3.1567,-3.1567,-3.1567,-3.1567,-3.1567,-3.1567,-3.1567,-3.1567,-3.1567,-3.1567,-3.1567,-3.1567,-3.1567,-3.1404,-3.1214,-3.0985,-3.0777,-3.0581,-3.0406,-3.0199,-3.0264,-3.0297,-2.9991,-2.9895,-2.9947,-2.988,-2.982,-3.0033,-3.0146,-3.0269,-3.058,-3.0873,-3.0498,-2.9601,-2.8536,-2.7817,-2.6921,-2.6456,-2.6388,-2.6149,-2.5965,-2.5732,-2.5577,-2.5479,-2.543,-2.5479,-2.5528,-2.5586,-2.5596,-2.5693,-2.5693,-2.5586,-2.5489,-2.5382,-2.5284,-2.5137,-2.5039,-2.4892,-2.4784,-2.4784,-2.4587,-2.444,-2.4341,-2.4242,-2.4251,-2.4146,-3.4967,-3.5316,-3.5545,-3.623,-3.7144,-3.7541,-3.7673,-3.7604,-3.7252,-3.6996,-3.6677,-3.5813,-3.5204,-3.4764,-3.4647,-3.4483,-3.4218,-3.437,-3.4446,-3.4446,-3.4468,-3.4468,-3.4468,-3.4468,-3.4468,-3.4468,-3.4468,-3.4468,-3.4468,-3.4446,-3.4316,-3.4152,-3.4305,-3.3846,-3.3442,-3.318,-3.2949,-3.2492,-3.2077,-3.1676,-3.1567,-3.1567,-3.1567,-3.1567,-3.1567,-3.1567,-3.1567,-3.1567,-3.1567,-3.1567,-3.1567,-3.1567,-3.1567,-3.1567,-3.1567,-3.1567,-3.1567,-3.1567,-3.1567,-3.1567,-3.1567,-3.1567,-3.1567,-3.1476,-3.1345,-3.1192,-3.1061,-3.0908,-3.069,-3.0526,-3.0515,-3.0482,-3.0657,-3.082,-3.0625,-3.0405,-3.048,-3.0584,-3.0811,-3.1093,-3.1,-3.0664,-2.9829,-2.8712,-2.7918,-2.7677,-2.7442,-2.7285,-2.6822,-2.6294,-2.5965,-2.5635,-2.5635,-2.5635,-2.5684,-2.5684,-2.5684,-2.5635,-2.5684,-2.5684,-2.5684,-2.5684,-2.5538,-2.544,-2.5342,-2.5245,-2.5186,-2.5088,-2.5039,-2.4794,-2.4587,-2.444,-2.4341,-2.4251,-2.4101,-3.4775,-3.4895,-3.54,-3.6134,-3.7,-3.7096,-3.7132,-3.714,-3.7121,-3.6832,-3.6315,-3.5804,-3.5123,-3.4662,-3.4674,-3.4471,-3.434,-3.4403,-3.4468,-3.4524,-3.4468,-3.4468,-3.4468,-3.4468,-3.4468,-3.4468,-3.4468,-3.4468,-3.4468,-3.4491,-3.4447,-3.4414,-3.4065,-3.3781,-3.3812,-3.3321,-3.3015,-3.2667,-3.2186,-3.1771,-3.16,-3.1567,-3.1567,-3.1567,-3.1567,-3.1567,-3.1567,-3.1567,-3.1567,-3.1567,-3.1567,-3.1567,-3.1567,-3.1567,-3.1567,-3.1567,-3.1567,-3.1567,-3.1567,-3.1567,-3.1567,-3.1567,-3.1567,-3.1534,-3.1509,-3.1476,-3.1306,-3.1302,-3.1094,-3.1061,-3.1061,-3.093,-3.1003,-3.1141,-3.1128,-3.1113,-3.1252,-3.1338,-3.1472,-3.168,-3.166,-3.1319,-3.0876,-2.9851,-2.8998,-2.8734,-2.8296,-2.8071,-2.7668,-2.6927,-2.6564,-2.6082,-2.5723,-2.5723,-2.5684,-2.5684,-2.5684,-2.5684,-2.5684,-2.5684,-2.5684,-2.5684,-2.5684,-2.5586,-2.5538,-2.5586,-2.5538,-2.5391,-2.5186,-2.499,-2.4784,-2.4529,-2.4381,-2.4273,-2.4196,-3.4775,-3.4823,-3.54,-3.5785,-3.6038,-3.6423,-3.6591,-3.6639,-3.7052,-3.6789,-3.6375,-3.6132,-3.5711,-3.5043,-3.5057,-3.4857,-3.4527,-3.4604,-3.4502,-3.4579,-3.4579,-3.4624,-3.4524,-3.4635,-3.4524,-3.4468,-3.4468,-3.4524,-3.4524,-3.4447,-3.4373,-3.4105,-3.3941,-3.4042,-3.3924,-3.3453,-3.3134,-3.2979,-3.2536,-3.2066,-3.1804,-3.1622,-3.1567,-3.1567,-3.1567,-3.1567,-3.1567,-3.1567,-3.1567,-3.1567,-3.1567,-3.1567,-3.1567,-3.1567,-3.1567,-3.1567,-3.1567,-3.1567,-3.1567,-3.1567,-3.1567,-3.1567,-3.1567,-3.1567,-3.1567,-3.1567,-3.1556,-3.1524,-3.1553,-3.1513,-3.1509,-3.1385,-3.1344,-3.149,-3.1625,-3.1817,-3.2008,-3.2098,-3.2153,-3.2208,-3.2298,-3.2012,-3.1612,-3.1015,-3.0227,-2.9534,-2.8903,-2.8503,-2.8377,-2.79,-2.7683,-2.7143,-2.6004,-2.58,-2.5723,-2.5684,-2.5684,-2.5684,-2.5684,-2.5684,-2.5684,-2.5684,-2.5684,-2.5684,-2.5684,-2.5684,-2.5635,-2.543,-2.5284,-2.5137,-2.4892,-2.4637,-2.4325,-2.415,-2.4128,-3.4691,-3.451,-3.504,-3.5412,-3.5653,-3.5942,-3.6062,-3.6062,-3.6134,-3.599,-3.5817,-3.6074,-3.5923,-3.5358,-3.5352,-3.5305,-3.4978,-3.5256,-3.5367,-3.529,-3.4902,-3.4947,-3.4902,-3.4791,-3.4958,-3.4902,-3.4902,-3.4847,-3.4568,-3.4814,-3.4768,-3.4571,-3.451,-3.4471,-3.4351,-3.414,-3.3686,-3.3475,-3.3175,-3.2761,-3.2205,-3.1902,-3.1611,-3.1567,-3.1578,-3.1578,-3.1567,-3.1567,-3.1567,-3.1567,-3.1567,-3.1567,-3.1567,-3.1567,-3.1567,-3.1567,-3.1567,-3.1567,-3.1567,-3.1567,-3.1567,-3.1567,-3.1567,-3.1567,-3.1567,-3.1567,-3.1567,-3.1545,-3.1545,-3.1545,-3.1589,-3.1526,-3.175,-3.1973,-3.2108,-3.2299,-3.2559,-3.2742,-3.2805,-3.2793,-3.2747,-3.254,-3.2155,-3.171,-3.1099,-3.1268,-3.0468,-3.0205,-2.9829,-2.8945,-2.8746,-2.8136,-2.6976,-2.5984,-2.5723,-2.5684,-2.5684,-2.5684,-2.5684,-2.5684,-2.5684,-2.5684,-2.5684,-2.5684,-2.5684,-2.5684,-2.5635,-2.5479,-2.5382,-2.5235,-2.4941,-2.4637,-2.4365,-2.4085,-2.3981,-3.4474,-3.409,-3.457,-3.4991,-3.5351,-3.5497,-3.5521,-3.5461,-3.5087,-3.4907,-3.5111,-3.6082,-3.5765,-3.5378,-3.5358,-3.5442,-3.5554,-3.5572,-3.5927,-3.5664,-3.5334,-3.5058,-3.5002,-3.5157,-3.5058,-3.5224,-3.5323,-3.4947,-3.4524,-3.5035,-3.5476,-3.5484,-3.5574,-3.5722,-3.5856,-3.5418,-3.4623,-3.4513,-3.4198,-3.3709,-3.3021,-3.226,-3.1913,-3.1749,-3.1651,-3.1578,-3.1567,-3.1567,-3.1567,-3.1567,-3.1567,-3.1567,-3.1567,-3.1567,-3.1567,-3.1567,-3.1567,-3.1567,-3.1567,-3.1567,-3.1567,-3.1567,-3.1567,-3.1556,-3.1545,-3.1637,-3.1637,-3.1538,-3.1538,-3.1556,-3.1587,-3.1595,-3.1878,-3.2289,-3.2455,-3.2677,-3.3006,-3.3323,-3.3406,-3.3382,-3.3159,-3.2959,-3.2487,-3.2099,-3.2094,-3.2333,-3.2397,-3.2361,-3.1889,-3.0582,-2.9779,-2.8946,-2.7835,-2.6924,-2.6044,-2.5907,-2.6004,-2.5684,-2.5684,-2.5684,-2.5684,-2.5684,-2.5684,-2.5684,-2.5684,-2.5684,-2.5635,-2.5528,-2.543,-2.5274,-2.4932,-2.4578,-2.4325,-2.4076,-2.3834,-3.4474,-3.4042,-3.457,-3.4619,-3.4426,-3.4763,-3.498,-3.4991,-3.5328,-3.5244,-3.5231,-3.6225,-3.6458,-3.5434,-3.5946,-3.6008,-3.572,-3.585,-3.5256,-3.4791,-3.5113,-3.4891,-3.4947,-3.5389,-3.4836,-3.5113,-3.5609,-3.5444,-3.5124,-3.5708,-3.5908,-3.5642,-3.5627,-3.5844,-3.6144,-3.5756,-3.5417,-3.5321,-3.5165,-3.4713,-3.3814,-3.3094,-3.2422,-3.2099,-3.1837,-3.1654,-3.1567,-3.1567,-3.1567,-3.1567,-3.1567,-3.1567,-3.1567,-3.1567,-3.1567,-3.1567,-3.1567,-3.1567,-3.1567,-3.1567,-3.1567,-3.1458,-3.1498,-3.1487,-3.1567,-3.1737,-3.1666,-3.1479,-3.1457,-3.1396,-3.1362,-3.1198,-3.1338,-3.2045,-3.2416,-3.2888,-3.3268,-3.3672,-3.3995,-3.3803,-3.3505,-3.3102,-3.2536,-3.2195,-3.1968,-3.2069,-3.1936,-3.1912,-3.1958,-3.1317,-3.0675,-2.958,-2.847,-2.7537,-2.6547,-2.645,-2.6418,-2.6004,-2.5684,-2.5684,-2.5684,-2.5684,-2.5684,-2.5684,-2.5684,-2.5684,-2.5635,-2.5528,-2.5304,-2.5099,-2.4775,-2.447,-2.4276,-2.4076,-2.3892]},{"header":{"parameterUnit":"m.s-1","parameterCategory":1,"la1":31.0,"la2":29.5877,"lo1":-88.7671,"lo2":-86.6584,"dy":0.0162,"dx":0.0185,"nx":115,"ny":88,"refTime":"2023-06-15T18:00:00:Z","depth":0,"parameterNumber":3,"parameterNumberName":"V-component_of_WINDS"},"data":[0.0,0.0,0.0,0.0,0.0,0.0,0.0,0.0,0.0,0.0,0.0,0.0,0.0,0.0,0.0,0.0,0.0,0.0,0.0,0.0,0.0,0.0,0.0,0.0,0.0,0.0,0.0,0.0,0.0,0.0,0.0,0.0,0.0,0.0,0.0,0.0,0.0,0.0,0.0,0.0,0.0,0.0,0.0,0.0,0.0,0.0,0.0,0.0,0.0,0.0,0.0,0.0,0.0,0.0,0.0,0.0,0.0,0.0,0.0,0.0,0.0,0.0,0.0,0.0,0.0,0.0,0.0,0.0,0.0,0.0,0.0,0.0,0.0,0.0,0.0,0.0,0.0,0.0,0.0,0.0,0.0,0.0,0.0,0.0,0.0,0.0,0.0,0.0,0.0,0.0,0.0,0.0,0.0,0.0,0.0,0.0,0.0,0.0,0.0,0.0,0.0,0.0,0.0,0.0,0.0,0.0,0.0,0.0,0.0,0.0,0.0,0.0,0.0,0.0,0.0,0.0,0.0,0.0,0.0,0.0,0.0,0.0,0.0,0.0,0.0,0.0,0.0,0.0,0.0,0.0,0.0,0.0,0.0,0.0,0.0,0.0,0.0,0.0,0.0,0.0,0.0,0.0,0.0,0.0,0.0,0.0,0.0,0.0,0.0,0.0,0.0,0.0,0.0,0.0,0.0,0.0,0.0,0.0,0.0,0.0,0.0,0.0,0.0,0.0,0.0,0.0,0.0,0.0,0.0,0.0,0.0,0.0,0.0,0.0,0.0,0.0,0.0,0.0,0.0,0.0,0.0,0.0,0.0,0.0,0.0,0.0,0.0,0.0,0.0,0.0,0.0,0.0,0.0,0.0,0.0,0.0,0.0,0.0,0.0,0.0,0.0,0.0,0.0,0.0,0.0,0.0,0.0,0.0,0.0,0.0,0.0,0.0,0.0,0.0,0.0,0.0,0.0,0.0,0.0,0.0,0.0,0.0,0.0,0.0,0.0,0.0,0.0,0.0,0.0,0.0,0.0,0.0,0.0,0.0,0.0,0.0,0.0,0.0,0.0,0.0,0.0,0.0,0.0,0.0,0.0,0.0,0.0,0.0,0.0,0.0,0.0,0.0,0.0,0.0,0.0,0.0,0.0,0.0,0.0,0.0,0.0,0.0,0.0,0.0,0.0,0.0,0.0,0.0,0.0,0.0,0.0,0.0,0.0,0.0,0.0,0.0,0.0,0.0,0.0,0.0,0.0,0.0,0.0,0.0,0.0,0.0,0.0,0.0,0.0,0.0,0.0,0.0,0.0,0.0,0.0,0.0,0.0,0.0,0.0,0.0,0.0,0.0,0.0,0.0,0.0,0.0,0.0,0.0,0.0,0.0,0.0,0.0,0.0,0.0,0.0,0.0,0.0,0.0,0.0,0.0,0.0,0.0,0.0,0.0,0.0,0.0,0.0,0.0,0.0,0.0,0.0,0.0,0.0,0.0,0.0,0.0,0.0,0.0,0.0,0.0,0.0,0.0,0.0,0.0,0.0,0.0,0.0,0.0,0.0,0.0,0.0,0.0,0.0,0.0,0.0,0.0,0.0,0.0,0.0,0.0,0.0,0.0,0.0,0.0,0.0,0.0,0.0,0.0,0.0,0.0,0.0,0.0,0.0,0.0,0.0,0.0,0.0,0.0,0.0,0.0,0.0,0.0,0.0,0.0,0.0,0.0,0.0,0.0,0.0,0.0,0.0,0.0,0.0,0.0,0.0,0.0,0.0,0.0,0.0,0.0,0.0,0.0,0.0,0.0,0.0,0.0,0.0,0.0,0.0,0.0,0.0,0.0,0.0,0.0,0.0,0.0,0.0,0.0,0.0,0.0,0.0,0.0,0.0,0.0,0.0,0.0,0.0,0.0,0.0,0.0,0.0,0.0,0.0,0.0,0.0,0.0,0.0,0.0,0.0,0.0,0.0,0.0,0.0,0.0,0.0,0.0,0.0,0.0,0.0,0.0,0.0,0.0,0.0,0.0,0.0,0.0,0.0,0.0,0.0,0.0,0.0,0.0,0.0,0.0,0.0,0.0,0.0,0.0,0.0,0.0,0.0,0.0,0.0,0.0,0.0,0.0,0.0,0.0,0.0,0.0,0.0,0.0,0.0,0.0,0.0,0.0,0.0,0.0,0.0,0.0,0.0,0.0,0.0,0.0,0.0,0.0,0.0,0.0,0.0,0.0,0.0,0.0,0.0,0.0,0.0,0.0,0.0,0.0,0.0,0.0,0.0,0.0,0.0,0.0,0.0,0.0,0.0,0.0,0.0,0.0,0.0,0.0,0.0,0.0,0.0,0.0,0.0,0.0,0.0,0.0,0.0,0.0,0.0,0.0,0.0,0.0,0.0,0.0,0.0,0.0,0.0,0.0,0.0,0.0,0.0,0.0,0.0,0.0,0.0,0.0,0.0,0.0,0.0,0.0,0.0,0.0,0.0,0.0,0.0,0.0,0.0,0.0,0.0,0.0,0.0,0.0,0.0,0.0,0.0,0.0,0.0,0.0,0.0,0.0,0.0,0.0,0.0,0.0,0.0,0.0,0.0,0.0,0.0,0.0,0.0,0.0,0.0,0.0,0.0,0.0,0.0,0.0,0.0,0.0,0.0,0.0,0.0,0.0,0.0,0.0,0.0,0.0,0.0,0.0,0.0,0.0,0.0,0.0,0.0,0.0,0.0,0.0,0.0,0.0,0.0,0.0,0.0,0.0,0.0,0.0,0.0,0.0,0.0,0.0,0.0,0.0,0.0,0.0,0.0,0.0,0.0,0.0,0.0,0.0,0.0,0.0,0.0,0.0,0.0,0.0,0.0,0.0,0.0,0.0,0.0,0.0,0.0,0.0,0.0,0.0,0.0,0.0,0.0,0.0,0.0,0.0,0.0,0.0,0.0,0.0,0.0,0.0,0.0,0.0,0.0,0.0,0.0,0.0,0.0,0.0,0.0,0.0,0.0,0.0,0.0,0.0,0.0,0.0,0.0,0.0,0.0,0.0,0.0,0.0,0.0,0.0,0.0,0.0,0.0,0.0,0.0,0.0,0.0,0.0,0.0,0.0,0.0,0.0,0.0,0.0,0.0,0.0,0.0,0.0,0.0,0.0,0.0,0.0,0.0,0.0,0.0,0.0,0.0,0.0,0.0,0.0,0.0,0.0,0.0,0.0,0.0,0.0,0.0,0.0,0.0,0.0,0.0,0.0,0.0,0.0,0.0,0.0,0.0,0.0,0.0,0.0,0.0,0.0,0.0,0.0,0.0,0.0,0.0,0.0,0.0,0.0,0.0,0.0,0.0,0.0,0.0,0.0,0.0,0.0,0.0,0.0,0.0,0.0,0.0,0.0,0.0,0.0,0.0,0.0,0.0,0.0,0.0,0.0,0.0,0.0,0.0,0.0,0.0,0.0,0.0,0.0,0.0,0.0,0.0,0.0,0.0,0.0,0.0,0.0,0.0,0.0,0.0,0.0,0.0,0.0,0.0,0.0,0.0,0.0,0.0,0.0,0.0,0.0,0.0,0.0,0.0,0.0,0.0,0.0,0.0,0.0,0.0,0.0,0.0,0.0,0.0,0.0,0.0,0.0,0.0,0.0,0.0,0.0,0.0,0.0,0.0,0.0,0.0,0.0,0.0,0.0,0.0,0.0,0.0,0.0,0.0,0.0,0.0,0.0,0.0,0.0,0.0,0.0,0.0,0.0,0.0,0.0,0.0,0.0,0.0,0.0,0.0,0.0,0.0,0.0,0.0,0.0,0.0,0.0,0.0,0.0,0.0,0.0,0.0,0.0,0.0,0.0,0.0,0.0,0.0,0.0,0.0,0.0,0.0,0.0,0.0,0.0,0.0,0.0,0.0,0.0,0.0,0.0,0.0,0.0,0.0,0.0,0.0,0.0,0.0,0.0,0.0,0.0,0.0,0.0,0.0,0.0,0.0,0.0,0.0,0.0,0.0,0.0,0.0,0.0,0.0,0.0,0.0,0.0,0.0,0.0,0.0,0.0,0.0,0.0,0.0,0.0,0.0,0.0,0.0,0.0,0.0,0.0,0.0,0.0,0.0,0.0,0.0,0.0,0.0,0.0,0.0,0.0,0.0,0.0,0.0,0.0,0.0,0.0,0.0,0.0,0.0,0.0,0.0,0.0,0.0,0.0,0.0,0.0,0.0,0.0,0.0,0.0,0.0,0.0,0.0,0.0,0.0,0.0,0.0,0.0,0.0,0.0,0.0,0.0,0.0,0.0,0.0,0.0,0.0,0.0,-1.7061,0.0,0.0,0.0,0.0,0.0,0.0,0.0,0.0,0.0,0.0,0.0,0.0,0.0,0.0,0.0,0.0,0.0,0.0,0.0,0.0,0.0,0.0,0.0,0.0,0.0,0.0,0.0,0.0,0.0,0.0,0.0,0.0,0.0,0.0,0.0,0.0,0.0,0.0,0.0,0.0,0.0,0.0,0.0,0.0,0.0,0.0,0.0,0.0,0.0,0.0,0.0,0.0,0.0,0.0,0.0,0.0,0.0,0.0,0.0,0.0,0.0,0.0,0.0,0.0,0.0,0.0,0.0,0.0,0.0,0.0,0.0,0.0,0.0,0.0,0.0,0.0,0.0,0.0,0.0,0.0,0.0,0.0,0.0,0.0,0.0,0.0,0.0,0.0,0.0,0.0,0.0,0.0,0.0,0.0,0.0,0.0,0.0,0.0,0.0,0.0,0.0,0.0,0.0,0.0,0.0,0.0,0.0,0.0,0.0,0.0,-1.6713,-1.7585,-1.6094,-1.5963,-1.7436,0.0,0.0,0.0,0.0,0.0,0.0,0.0,0.0,0.0,0.0,0.0,0.0,0.0,0.0,0.0,0.0,0.0,0.0,0.0,0.0,0.0,0.0,0.0,0.0,0.0,0.0,0.0,0.0,0.0,0.0,0.0,0.0,0.0,0.0,0.0,0.0,0.0,0.0,0.0,0.0,0.0,0.0,0.0,0.0,0.0,0.0,0.0,0.0,0.0,0.0,0.0,0.0,0.0,0.0,0.0,0.0,0.0,0.0,0.0,0.0,0.0,0.0,0.0,0.0,0.0,0.0,0.0,0.0,0.0,0.0,0.0,0.0,0.0,0.0,0.0,0.0,0.0,0.0,0.0,0.0,0.0,0.0,0.0,0.0,0.0,0.0,0.0,0.0,0.0,0.0,0.0,0.0,0.0,0.0,0.0,0.0,0.0,0.0,0.0,0.0,0.0,0.0,0.0,0.0,0.0,0.0,0.0,0.0,0.0,0.0,0.0,0.0,-1.6158,-1.5896,-1.7753,0.0,0.0,0.0,0.0,0.0,0.0,0.0,0.0,0.0,0.0,0.0,0.0,0.0,0.0,0.0,0.0,0.0,0.0,0.0,0.0,0.0,0.0,0.0,0.0,0.0,0.0,0.0,0.0,0.0,0.0,0.0,0.0,0.0,0.0,0.0,0.0,0.0,0.0,0.0,0.0,0.0,0.0,0.0,0.0,0.0,0.0,0.0,0.0,0.0,0.0,0.0,0.0,0.0,0.0,0.0,0.0,0.0,0.0,0.0,0.0,0.0,0.0,0.0,0.0,0.0,0.0,0.0,0.0,0.0,0.0,0.0,0.0,0.0,0.0,0.0,0.0,0.0,0.0,0.0,0.0,0.0,0.0,0.0,0.0,0.0,0.0,0.0,0.0,0.0,0.0,0.0,0.0,0.0,0.0,0.0,0.0,0.0,0.0,0.0,0.0,0.0,0.0,0.0,0.0,0.0,0.0,0.0,0.0,0.0,0.0,-1.846,-1.9398,-1.8892,0.0,-1.8893,0.0,0.0,0.0,0.0,0.0,0.0,0.0,0.0,0.0,0.0,0.0,0.0,0.0,0.0,0.0,0.0,0.0,0.0,0.0,0.0,0.0,0.0,0.0,0.0,0.0,0.0,0.0,0.0,0.0,0.0,0.0,0.0,0.0,0.0,0.0,0.0,0.0,0.0,0.0,0.0,0.0,0.0,0.0,0.0,0.0,0.0,0.0,0.0,0.0,0.0,0.0,0.0,0.0,0.0,0.0,0.0,0.0,0.0,0.0,0.0,0.0,0.0,0.0,0.0,0.0,0.0,0.0,0.0,0.0,0.0,0.0,0.0,0.0,0.0,0.0,0.0,0.0,0.0,0.0,0.0,0.0,0.0,0.0,0.0,0.0,0.0,0.0,0.0,0.0,0.0,0.0,0.0,0.0,0.0,0.0,0.0,0.0,0.0,0.0,0.0,0.0,0.0,0.0,0.0,0.0,0.0,0.0,0.0,0.0,0.0,-1.8562,-1.9677,-1.9454,-1.9105,0.0,0.0,0.0,0.0,0.0,0.0,0.0,0.0,0.0,0.0,0.0,0.0,0.0,0.0,0.0,0.0,0.0,0.0,0.0,0.0,0.0,0.0,0.0,0.0,0.0,0.0,0.0,0.0,0.0,0.0,0.0,0.0,0.0,0.0,0.0,0.0,0.0,0.0,0.0,0.0,0.0,0.0,0.0,0.0,0.0,0.0,0.0,0.0,0.0,0.0,0.0,0.0,0.0,0.0,0.0,0.0,0.0,0.0,0.0,0.0,0.0,0.0,0.0,0.0,0.0,0.0,0.0,0.0,0.0,0.0,0.0,0.0,0.0,0.0,0.0,0.0,0.0,0.0,0.0,0.0,0.0,0.0,0.0,0.0,0.0,0.0,0.0,0.0,0.0,0.0,0.0,0.0,0.0,0.0,0.0,0.0,0.0,0.0,0.0,0.0,0.0,0.0,0.0,0.0,0.0,0.0,0.0,0.0,0.0,0.0,-1.8631,-1.8719,-1.9652,-1.9424,-1.9043,-1.8649,0.0,0.0,0.0,0.0,0.0,0.0,0.0,0.0,0.0,0.0,0.0,0.0,0.0,0.0,0.0,0.0,0.0,0.0,0.0,0.0,0.0,0.0,0.0,0.0,0.0,0.0,0.0,0.0,0.0,0.0,0.0,0.0,0.0,0.0,0.0,0.0,0.0,0.0,0.0,0.0,0.0,0.0,0.0,0.0,0.0,0.0,0.0,0.0,0.0,0.0,0.0,0.0,0.0,0.0,0.0,0.0,0.0,0.0,0.0,0.0,0.0,0.0,0.0,0.0,0.0,0.0,0.0,0.0,0.0,0.0,0.0,0.0,0.0,0.0,0.0,0.0,0.0,0.0,0.0,0.0,0.0,0.0,0.0,0.0,0.0,0.0,0.0,0.0,0.0,0.0,0.0,0.0,0.0,0.0,0.0,0.0,0.0,0.0,0.0,0.0,0.0,0.0,0.0,0.0,0.0,0.0,0.0,0.0,-2.1477,-1.9931,-1.918,-1.9488,-1.8965,-1.8888,0.0,0.0,0.0,0.0,0.0,0.0,0.0,0.0,0.0,0.0,0.0,0.0,0.0,0.0,0.0,0.0,0.0,0.0,0.0,0.0,0.0,0.0,0.0,0.0,0.0,0.0,0.0,0.0,0.0,0.0,0.0,0.0,0.0,0.0,0.0,0.0,0.0,0.0,0.0,0.0,0.0,0.0,0.0,0.0,0.0,0.0,0.0,0.0,0.0,0.0,0.0,0.0,0.0,0.0,0.0,0.0,0.0,0.0,0.0,0.0,0.0,0.0,0.0,0.0,0.0,0.0,0.0,0.0,0.0,0.0,0.0,0.0,0.0,0.0,0.0,0.0,0.0,0.0,0.0,0.0,0.0,0.0,0.0,0.0,0.0,0.0,0.0,0.0,0.0,0.0,0.0,0.0,0.0,0.0,0.0,0.0,0.0,0.0,0.0,0.0,0.0,0.0,0.0,0.0,0.0,0.0,0.0,0.0,0.0,-2.0211,-2.015,-1.9729,-1.899,-1.958,-1.9781,0.0,0.0,0.0,0.0,0.0,0.0,0.0,0.0,0.0,0.0,0.0,0.0,0.0,0.0,0.0,0.0,0.0,0.0,0.0,0.0,0.0,0.0,0.0,0.0,0.0,0.0,0.0,0.0,0.0,0.0,0.0,0.0,0.0,0.0,0.0,0.0,0.0,0.0,0.0,0.0,0.0,0.0,0.0,0.0,0.0,0.0,0.0,0.0,0.0,0.0,0.0,0.0,0.0,0.0,0.0,0.0,0.0,0.0,0.0,0.0,0.0,0.0,0.0,0.0,0.0,0.0,0.0,0.0,0.0,0.0,0.0,0.0,0.0,0.0,0.0,0.0,0.0,0.0,0.0,0.0,0.0,0.0,0.0,0.0,0.0,0.0,0.0,0.0,0.0,0.0,0.0,0.0,0.0,0.0,0.0,0.0,0.0,0.0,0.0,0.0,0.0,0.0,0.0,0.0,0.0,0.0,0.0,0.0,0.0,-1.972,0.0,-2.0146,-1.8974,-1.9871,-2.0087,0.0,0.0,0.0,0.0,0.0,0.0,0.0,0.0,0.0,0.0,0.0,0.0,0.0,0.0,0.0,0.0,0.0,0.0,0.0,0.0,0.0,0.0,0.0,0.0,0.0,0.0,0.0,0.0,0.0,0.0,0.0,0.0,0.0,0.0,0.0,0.0,0.0,0.0,0.0,0.0,0.0,0.0,0.0,0.0,0.0,0.0,0.0,0.0,0.0,0.0,0.0,0.0,0.0,0.0,0.0,0.0,0.0,0.0,0.0,0.0,0.0,0.0,0.0,0.0,0.0,0.0,0.0,0.0,0.0,0.0,0.0,0.0,0.0,0.0,0.0,0.0,0.0,0.0,0.0,0.0,0.0,0.0,0.0,0.0,0.0,0.0,0.0,0.0,0.0,0.0,0.0,0.0,0.0,0.0,0.0,0.0,0.0,0.0,0.0,0.0,0.0,0.0,0.0,0.0,0.0,0.0,0.0,0.0,-2.0272,-2.0302,-2.0649,-2.0397,-1.9487,-1.9702,-1.9723,0.0,0.0,0.0,0.0,0.0,0.0,0.0,0.0,0.0,0.0,0.0,0.0,0.0,0.0,0.0,0.0,0.0,0.0,0.0,0.0,0.0,0.0,0.0,0.0,0.0,0.0,0.0,0.0,0.0,0.0,0.0,0.0,0.0,0.0,0.0,0.0,0.0,0.0,0.0,0.0,0.0,0.0,0.0,0.0,0.0,0.0,0.0,0.0,0.0,0.0,0.0,0.0,0.0,0.0,0.0,0.0,0.0,0.0,0.0,0.0,0.0,0.0,0.0,0.0,0.0,0.0,0.0,0.0,0.0,0.0,0.0,0.0,0.0,0.0,0.0,0.0,0.0,0.0,0.0,0.0,0.0,0.0,0.0,0.0,0.0,0.0,0.0,0.0,0.0,0.0,0.0,0.0,0.0,0.0,0.0,0.0,0.0,0.0,0.0,0.0,0.0,0.0,0.0,0.0,0.0,0.0,0.0,0.0,0.0,-2.0441,-2.0883,-2.1216,-2.1294,-2.056,-2.0521,0.0,0.0,0.0,0.0,0.0,0.0,0.0,0.0,0.0,0.0,0.0,0.0,0.0,0.0,0.0,0.0,0.0,0.0,0.0,0.0,0.0,0.0,0.0,0.0,0.0,0.0,0.0,0.0,0.0,0.0,0.0,0.0,0.0,0.0,0.0,0.0,0.0,0.0,0.0,0.0,0.0,0.0,0.0,0.0,0.0,0.0,0.0,0.0,0.0,0.0,0.0,0.0,0.0,0.0,0.0,0.0,0.0,0.0,0.0,0.0,0.0,0.0,0.0,0.0,0.0,0.0,0.0,0.0,0.0,0.0,0.0,0.0,0.0,0.0,0.0,0.0,0.0,0.0,0.0,0.0,0.0,0.0,0.0,0.0,0.0,0.0,0.0,0.0,0.0,0.0,0.0,0.0,0.0,0.0,0.0,0.0,0.0,0.0,0.0,0.0,0.0,0.0,0.0,0.0,0.0,0.0,0.0,0.0,0.0,-2.1717,-2.1691,-2.1808,-2.2084,-2.1406,-2.1108,-2.1277,0.0,0.0,0.0,0.0,0.0,0.0,0.0,0.0,0.0,0.0,0.0,0.0,0.0,0.0,0.0,0.0,0.0,0.0,0.0,0.0,0.0,0.0,0.0,0.0,0.0,0.0,0.0,0.0,0.0,0.0,0.0,0.0,0.0,0.0,0.0,0.0,0.0,0.0,0.0,0.0,0.0,0.0,0.0,0.0,0.0,0.0,0.0,0.0,0.0,0.0,0.0,0.0,0.0,0.0,0.0,0.0,0.0,0.0,0.0,0.0,0.0,0.0,0.0,0.0,0.0,0.0,0.0,0.0,0.0,0.0,0.0,0.0,0.0,0.0,0.0,0.0,0.0,0.0,0.0,0.0,0.0,0.0,0.0,0.0,0.0,0.0,0.0,0.0,0.0,0.0,0.0,0.0,0.0,0.0,0.0,0.0,0.0,0.0,0.0,0.0,0.0,0.0,0.0,0.0,0.0,0.0,0.0,0.0,-2.395,-2.3142,-2.2615,-2.2289,-2.2428,-2.1727,0.0,0.0,0.0,0.0,0.0,0.0,0.0,0.0,0.0,0.0,0.0,0.0,0.0,0.0,0.0,0.0,0.0,0.0,0.0,0.0,0.0,0.0,0.0,0.0,0.0,0.0,0.0,0.0,0.0,0.0,0.0,0.0,0.0,0.0,0.0,0.0,0.0,0.0,0.0,0.0,0.0,0.0,0.0,0.0,0.0,0.0,0.0,0.0,0.0,0.0,0.0,0.0,0.0,0.0,0.0,0.0,0.0,0.0,0.0,0.0,0.0,0.0,0.0,0.0,0.0,0.0,0.0,0.0,0.0,0.0,0.0,0.0,0.0,0.0,0.0,0.0,0.0,0.0,0.0,0.0,0.0,0.0,0.0,0.0,0.0,0.0,0.0,0.0,0.0,0.0,0.0,0.0,0.0,0.0,0.0,0.0,0.0,0.0,0.0,0.0,0.0,0.0,0.0,0.0,0.0,0.0,0.0,0.0,0.0,-2.5648,-2.7055,-2.7296,-2.6208,-2.5101,-2.4208,0.0,0.0,0.0,0.0,0.0,0.0,0.0,0.0,0.0,0.0,0.0,0.0,0.0,0.0,0.0,0.0,0.0,0.0,0.0,0.0,0.0,0.0,0.0,0.0,0.0,0.0,0.0,0.0,0.0,0.0,0.0,0.0,0.0,0.0,0.0,0.0,0.0,0.0,0.0,0.0,0.0,0.0,0.0,0.0,0.0,0.0,0.0,0.0,0.0,0.0,0.0,0.0,0.0,0.0,0.0,0.0,0.0,0.0,0.0,0.0,0.0,0.0,0.0,0.0,0.0,0.0,0.0,0.0,0.0,0.0,0.0,0.0,0.0,0.0,0.0,0.0,0.0,0.0,0.0,0.0,0.0,0.0,0.0,0.0,0.0,0.0,0.0,0.0,0.0,0.0,0.0,0.0,0.0,0.0,0.0,0.0,0.0,0.0,0.0,0.0,0.0,0.0,0.0,0.0,0.0,0.0,0.0,0.0,-2.5806,-2.7147,-3.0116,-3.1316,-3.0526,-2.8535,-2.6596,0.0,0.0,0.0,0.0,0.0,0.0,0.0,0.0,0.0,0.0,0.0,0.0,0.0,0.0,0.0,0.0,0.0,0.0,0.0,0.0,0.0,0.0,0.0,0.0,0.0,0.0,0.0,0.0,0.0,0.0,0.0,0.0,0.0,0.0,0.0,0.0,0.0,0.0,0.0,0.0,0.0,0.0,0.0,0.0,0.0,0.0,0.0,0.0,0.0,0.0,0.0,0.0,0.0,0.0,0.0,0.0,0.0,0.0,0.0,0.0,0.0,0.0,0.0,0.0,0.0,0.0,0.0,0.0,0.0,0.0,0.0,0.0,0.0,0.0,0.0,0.0,0.0,0.0,0.0,0.0,0.0,0.0,0.0,0.0,0.0,0.0,0.0,0.0,0.0,0.0,0.0,0.0,0.0,0.0,0.0,0.0,0.0,0.0,0.0,0.0,0.0,0.0,0.0,0.0,0.0,0.0,0.0,0.0,-2.7066,-2.8566,-3.2425,-3.4528,-3.4571,-3.2039,-2.8843,0.0,0.0,0.0,0.0,0.0,0.0,0.0,0.0,0.0,0.0,0.0,0.0,0.0,0.0,0.0,0.0,0.0,0.0,0.0,0.0,0.0,0.0,0.0,0.0,0.0,0.0,0.0,0.0,0.0,0.0,0.0,0.0,0.0,0.0,0.0,0.0,0.0,0.0,0.0,0.0,0.0,0.0,0.0,0.0,0.0,0.0,0.0,0.0,0.0,0.0,0.0,0.0,0.0,0.0,0.0,0.0,0.0,0.0,0.0,0.0,0.0,0.0,0.0,0.0,0.0,0.0,0.0,0.0,0.0,0.0,0.0,0.0,0.0,0.0,0.0,0.0,0.0,0.0,0.0,0.0,0.0,0.0,0.0,0.0,0.0,0.0,0.0,0.0,0.0,0.0,0.0,0.0,0.0,0.0,0.0,0.0,0.0,0.0,0.0,0.0,0.0,0.0,0.0,0.0,0.0,0.0,0.0,0.0,-2.7833,-3.0322,-3.3704,-3.5771,-3.6342,-3.3472,-3.0567,0.0,0.0,0.0,0.0,0.0,0.0,0.0,0.0,0.0,0.0,0.0,0.0,0.0,0.0,0.0,0.0,0.0,0.0,0.0,0.0,0.0,0.0,0.0,0.0,0.0,0.0,0.0,0.0,0.0,0.0,0.0,0.0,0.0,0.0,0.0,0.0,0.0,0.0,0.0,0.0,0.0,0.0,0.0,0.0,0.0,0.0,0.0,0.0,-1.7254,0.0,0.0,0.0,0.0,0.0,0.0,0.0,0.0,0.0,0.0,0.0,0.0,0.0,0.0,0.0,0.0,0.0,0.0,0.0,0.0,0.0,0.0,0.0,0.0,0.0,0.0,0.0,0.0,0.0,0.0,0.0,0.0,0.0,0.0,0.0,0.0,0.0,0.0,0.0,0.0,0.0,0.0,0.0,0.0,0.0,0.0,0.0,0.0,0.0,0.0,0.0,0.0,0.0,0.0,0.0,0.0,0.0,0.0,0.0,-2.8385,-3.0904,-3.4272,-3.6205,-3.6495,-3.4364,-3.1982,0.0,0.0,0.0,0.0,0.0,0.0,0.0,0.0,0.0,0.0,0.0,0.0,0.0,0.0,0.0,0.0,0.0,0.0,0.0,0.0,0.0,0.0,0.0,0.0,0.0,0.0,0.0,0.0,0.0,0.0,0.0,0.0,0.0,0.0,0.0,0.0,0.0,0.0,0.0,0.0,0.0,0.0,0.0,0.0,0.0,0.0,0.0,0.0,0.0,0.0,0.0,0.0,0.0,0.0,0.0,0.0,0.0,0.0,0.0,0.0,0.0,0.0,0.0,0.0,0.0,0.0,0.0,0.0,0.0,0.0,0.0,0.0,0.0,0.0,0.0,0.0,0.0,0.0,0.0,0.0,0.0,0.0,0.0,0.0,0.0,0.0,0.0,0.0,0.0,0.0,0.0,0.0,0.0,0.0,0.0,0.0,0.0,0.0,0.0,0.0,0.0,0.0,0.0,0.0,0.0,0.0,0.0,-2.6719,-2.896,-3.1349,-3.4482,-3.6189,-3.627,-3.4862,-3.3031,-3.0829,0.0,0.0,0.0,0.0,0.0,0.0,0.0,0.0,0.0,0.0,0.0,0.0,0.0,0.0,0.0,0.0,0.0,0.0,0.0,0.0,0.0,0.0,0.0,0.0,0.0,0.0,0.0,0.0,0.0,0.0,0.0,0.0,0.0,0.0,0.0,0.0,0.0,0.0,-1.6431,-1.6388,0.0,0.0,0.0,0.0,0.0,0.0,0.0,0.0,-1.6727,0.0,0.0,0.0,0.0,0.0,0.0,0.0,0.0,0.0,0.0,0.0,0.0,0.0,0.0,0.0,0.0,0.0,0.0,0.0,0.0,0.0,0.0,0.0,0.0,0.0,0.0,0.0,0.0,0.0,0.0,0.0,0.0,0.0,0.0,0.0,0.0,0.0,0.0,0.0,0.0,0.0,0.0,0.0,0.0,0.0,0.0,0.0,0.0,0.0,0.0,0.0,0.0,0.0,0.0,0.0,0.0,-2.7401,-2.7972,-2.9926,-3.3247,-3.4659,-3.5671,-3.6238,-3.4878,-3.3364,-3.1763,0.0,0.0,0.0,0.0,0.0,0.0,0.0,0.0,0.0,0.0,0.0,0.0,0.0,0.0,0.0,0.0,0.0,0.0,0.0,0.0,0.0,0.0,0.0,0.0,0.0,0.0,0.0,0.0,0.0,0.0,0.0,0.0,0.0,0.0,0.0,0.0,0.0,0.0,0.0,-1.6413,-1.6624,0.0,0.0,0.0,0.0,0.0,0.0,0.0,0.0,-1.7388,0.0,0.0,0.0,0.0,0.0,0.0,0.0,0.0,0.0,0.0,0.0,0.0,0.0,0.0,0.0,0.0,0.0,0.0,0.0,0.0,0.0,0.0,0.0,0.0,0.0,0.0,0.0,0.0,0.0,0.0,0.0,0.0,0.0,0.0,0.0,0.0,0.0,0.0,0.0,0.0,0.0,0.0,0.0,0.0,0.0,0.0,0.0,0.0,0.0,0.0,0.0,0.0,0.0,0.0,0.0,-2.7978,-2.7897,-2.9479,-3.2993,-3.3915,-3.4568,-3.5088,-3.3404,-3.2319,0.0,0.0,0.0,0.0,0.0,0.0,0.0,0.0,0.0,0.0,0.0,0.0,0.0,0.0,0.0,0.0,0.0,0.0,0.0,0.0,0.0,0.0,0.0,0.0,0.0,0.0,0.0,0.0,0.0,0.0,0.0,0.0,0.0,0.0,0.0,0.0,0.0,0.0,0.0,0.0,-1.7288,-1.748,-1.6377,0.0,0.0,0.0,0.0,0.0,0.0,-1.6369,-1.6943,0.0,0.0,0.0,0.0,0.0,0.0,0.0,0.0,0.0,0.0,0.0,0.0,0.0,0.0,0.0,0.0,0.0,0.0,0.0,0.0,0.0,0.0,0.0,0.0,0.0,0.0,0.0,0.0,0.0,0.0,0.0,0.0,0.0,0.0,0.0,0.0,0.0,0.0,0.0,0.0,0.0,0.0,0.0,0.0,0.0,0.0,0.0,0.0,0.0,0.0,0.0,0.0,0.0,0.0,0.0,-2.8452,-2.7969,-2.9178,-3.2193,-3.2971,-3.3417,-3.3615,-3.1753,-3.1056,0.0,0.0,0.0,0.0,0.0,0.0,0.0,0.0,0.0,0.0,0.0,0.0,0.0,0.0,0.0,0.0,0.0,0.0,0.0,0.0,0.0,0.0,0.0,0.0,0.0,0.0,0.0,0.0,0.0,0.0,0.0,0.0,0.0,0.0,0.0,0.0,0.0,0.0,0.0,0.0,0.0,-1.8547,-1.759,-1.8175,0.0,0.0,0.0,0.0,-1.6742,-1.6637,0.0,0.0,0.0,0.0,0.0,0.0,0.0,0.0,0.0,0.0,0.0,0.0,0.0,0.0,0.0,0.0,0.0,0.0,0.0,0.0,0.0,0.0,0.0,0.0,0.0,0.0,0.0,0.0,0.0,0.0,0.0,0.0,0.0,0.0,0.0,0.0,0.0,0.0,0.0,0.0,0.0,0.0,0.0,0.0,0.0,0.0,0.0,0.0,0.0,0.0,0.0,0.0,0.0,0.0,0.0,0.0,-2.9531,-2.9583,-3.0291,-3.1727,-3.2337,-3.2508,-3.2222,-3.0781,-3.035,0.0,0.0,0.0,0.0,0.0,0.0,0.0,0.0,0.0,0.0,0.0,0.0,0.0,0.0,0.0,0.0,0.0,0.0,0.0,0.0,0.0,0.0,0.0,0.0,0.0,0.0,0.0,0.0,0.0,0.0,0.0,0.0,0.0,0.0,0.0,0.0,0.0,0.0,0.0,0.0,0.0,-1.9793,-1.8516,-1.8952,-1.9154,0.0,0.0,-1.7614,-1.8128,-1.8084,0.0,0.0,0.0,0.0,0.0,0.0,0.0,0.0,0.0,0.0,0.0,0.0,0.0,0.0,0.0,0.0,0.0,0.0,0.0,0.0,0.0,0.0,0.0,0.0,0.0,0.0,0.0,0.0,0.0,0.0,0.0,0.0,0.0,0.0,0.0,0.0,0.0,0.0,0.0,0.0,0.0,0.0,0.0,0.0,0.0,0.0,0.0,0.0,0.0,0.0,0.0,0.0,0.0,0.0,0.0,-2.7332,-2.9784,-2.9286,-2.9865,-3.1738,-3.1858,-3.1925,-3.1979,-3.0237,-2.9777,0.0,0.0,0.0,0.0,0.0,0.0,0.0,0.0,0.0,0.0,0.0,0.0,0.0,0.0,0.0,0.0,0.0,0.0,0.0,0.0,0.0,0.0,0.0,0.0,0.0,0.0,0.0,0.0,0.0,0.0,0.0,0.0,0.0,0.0,0.0,0.0,0.0,0.0,0.0,0.0,0.0,0.0,-1.9168,-2.0013,0.0,0.0,0.0,-1.9953,-2.0066,0.0,0.0,0.0,0.0,0.0,0.0,0.0,0.0,0.0,0.0,0.0,0.0,0.0,0.0,0.0,0.0,0.0,0.0,0.0,0.0,0.0,0.0,0.0,0.0,0.0,0.0,0.0,0.0,0.0,0.0,0.0,0.0,0.0,0.0,0.0,0.0,0.0,0.0,0.0,0.0,0.0,0.0,0.0,0.0,0.0,0.0,0.0,0.0,0.0,0.0,0.0,0.0,0.0,0.0,0.0,0.0,0.0,-3.0229,-2.9058,-2.9546,-3.1817,-3.1487,-3.1391,-3.1672,-2.9826,0.0,0.0,0.0,0.0,0.0,0.0,0.0,0.0,0.0,0.0,0.0,0.0,0.0,0.0,0.0,0.0,0.0,0.0,0.0,0.0,0.0,0.0,0.0,0.0,0.0,0.0,0.0,-2.1792,0.0,0.0,0.0,0.0,0.0,0.0,0.0,0.0,0.0,0.0,0.0,0.0,0.0,0.0,-2.1866,-2.0366,-2.1465,-2.2358,0.0,0.0,-2.1878,-2.1716,-2.119,-2.0883,0.0,0.0,0.0,0.0,0.0,0.0,0.0,0.0,0.0,0.0,0.0,0.0,0.0,0.0,0.0,0.0,0.0,0.0,0.0,0.0,0.0,0.0,0.0,0.0,0.0,0.0,0.0,0.0,0.0,0.0,0.0,0.0,0.0,0.0,0.0,0.0,0.0,0.0,0.0,0.0,0.0,0.0,0.0,0.0,0.0,0.0,0.0,0.0,0.0,0.0,0.0,0.0,0.0,0.0,0.0,-3.1069,-2.9784,-3.0012,-3.1892,-3.1234,-3.0886,-3.0943,-2.9567,-2.93,0.0,0.0,0.0,0.0,0.0,0.0,0.0,0.0,0.0,0.0,0.0,0.0,0.0,0.0,0.0,0.0,0.0,0.0,0.0,0.0,0.0,0.0,0.0,0.0,0.0,0.0,0.0,0.0,0.0,0.0,0.0,0.0,0.0,0.0,0.0,0.0,0.0,0.0,0.0,0.0,0.0,-2.3683,-2.2699,-2.346,-2.4189,0.0,0.0,-2.2381,-2.2733,-2.2428,-2.2081,-2.1799,0.0,0.0,0.0,0.0,0.0,0.0,0.0,0.0,0.0,0.0,0.0,0.0,0.0,0.0,0.0,0.0,0.0,0.0,0.0,0.0,0.0,0.0,0.0,0.0,0.0,0.0,0.0,0.0,0.0,0.0,0.0,0.0,0.0,0.0,0.0,0.0,0.0,0.0,0.0,0.0,0.0,0.0,0.0,0.0,0.0,0.0,0.0,0.0,0.0,0.0,0.0,0.0,0.0,-2.9868,-3.186,-3.1024,-3.1254,-3.2541,-3.2317,-3.1848,-3.1215,-3.0249,-2.9903,0.0,0.0,0.0,0.0,0.0,0.0,0.0,0.0,0.0,0.0,0.0,0.0,0.0,0.0,0.0,0.0,0.0,0.0,0.0,0.0,0.0,0.0,0.0,0.0,0.0,0.0,0.0,0.0,-2.1661,-2.1572,-2.1557,0.0,0.0,0.0,0.0,0.0,0.0,0.0,0.0,0.0,0.0,-2.3676,-2.2961,-2.388,0.0,0.0,-2.35,-2.3333,-2.2893,-2.2718,-2.2497,-2.2215,-2.2487,0.0,0.0,0.0,0.0,0.0,0.0,0.0,0.0,0.0,0.0,0.0,0.0,0.0,0.0,0.0,0.0,0.0,0.0,0.0,0.0,0.0,0.0,0.0,0.0,0.0,0.0,0.0,0.0,0.0,0.0,0.0,0.0,0.0,0.0,0.0,0.0,0.0,0.0,0.0,0.0,0.0,0.0,0.0,0.0,0.0,0.0,0.0,0.0,0.0,0.0,0.0,0.0,-3.0663,-3.2535,-3.1944,-3.2214,-3.3495,-3.3297,-3.2885,-3.2254,-3.1542,-3.1087,0.0,0.0,0.0,0.0,0.0,0.0,0.0,0.0,0.0,0.0,0.0,0.0,0.0,0.0,0.0,0.0,0.0,0.0,0.0,0.0,0.0,0.0,0.0,0.0,0.0,0.0,0.0,0.0,-2.1736,-2.1706,-2.1796,0.0,0.0,0.0,0.0,0.0,0.0,0.0,0.0,0.0,0.0,-2.3909,-2.3658,-2.4782,-2.5441,-2.4792,-2.4877,-2.4705,-2.3905,-2.3299,-2.2842,-2.2541,0.0,0.0,0.0,0.0,0.0,0.0,0.0,0.0,0.0,0.0,0.0,0.0,0.0,0.0,0.0,0.0,0.0,0.0,0.0,0.0,0.0,0.0,0.0,0.0,0.0,0.0,0.0,-2.9437,0.0,0.0,-2.9702,0.0,0.0,0.0,0.0,0.0,0.0,0.0,0.0,0.0,0.0,0.0,0.0,0.0,0.0,0.0,0.0,0.0,0.0,0.0,0.0,0.0,0.0,-3.1825,-3.3182,-3.2325,-3.2751,-3.4556,-3.396,-3.3749,-3.4069,-3.3414,-3.2786,-3.2309,0.0,0.0,0.0,0.0,0.0,0.0,0.0,0.0,0.0,0.0,0.0,0.0,0.0,0.0,0.0,0.0,0.0,0.0,0.0,0.0,0.0,0.0,0.0,0.0,0.0,0.0,-2.1509,-2.1539,-2.1731,0.0,0.0,0.0,0.0,0.0,0.0,0.0,0.0,0.0,0.0,-2.39,-2.465,-2.5064,-2.6447,-2.7591,-2.8444,-2.7555,-2.6609,-2.5975,-2.443,-2.3156,0.0,0.0,0.0,0.0,0.0,0.0,0.0,0.0,0.0,0.0,0.0,0.0,0.0,0.0,0.0,0.0,0.0,0.0,0.0,0.0,0.0,0.0,0.0,0.0,0.0,0.0,0.0,-3.2144,-3.2091,0.0,0.0,0.0,0.0,0.0,0.0,0.0,0.0,0.0,0.0,0.0,-3.5362,-3.5526,0.0,0.0,0.0,0.0,0.0,0.0,0.0,0.0,0.0,0.0,0.0,0.0,-3.2658,-3.455,-3.3582,-3.3781,-3.5346,-3.4655,-3.4218,-3.4136,-3.2735,-3.1672,-3.1029,0.0,0.0,0.0,0.0,0.0,0.0,0.0,0.0,0.0,0.0,0.0,0.0,0.0,0.0,0.0,0.0,0.0,0.0,0.0,0.0,0.0,0.0,0.0,0.0,0.0,-2.2234,0.0,0.0,0.0,0.0,0.0,0.0,0.0,0.0,0.0,0.0,0.0,-2.3835,-2.4493,-2.4793,-2.5083,-2.54,-2.6178,-2.6535,0.0,0.0,0.0,0.0,0.0,0.0,0.0,0.0,0.0,0.0,0.0,0.0,0.0,0.0,-2.7366,-2.5502,-2.5117,-2.5146,-2.5244,0.0,0.0,0.0,0.0,0.0,0.0,0.0,0.0,0.0,0.0,0.0,0.0,0.0,0.0,-3.3834,0.0,-3.3928,0.0,0.0,0.0,0.0,0.0,0.0,0.0,0.0,-3.5805,-3.6586,-3.6901,-3.6956,-3.7616,0.0,-3.7958,-3.5959,0.0,0.0,0.0,0.0,0.0,0.0,0.0,0.0,-3.3297,-3.5059,-3.4514,-3.469,-3.572,-3.5403,-3.51,-3.4861,-3.3321,-3.2119,-3.126,-3.1527,-3.1588,0.0,0.0,0.0,0.0,0.0,0.0,0.0,0.0,0.0,0.0,0.0,0.0,0.0,0.0,0.0,0.0,0.0,0.0,0.0,0.0,0.0,0.0,0.0,-2.2893,0.0,0.0,0.0,0.0,0.0,0.0,0.0,0.0,0.0,-2.4663,-2.4354,-2.4645,-2.5915,-2.5432,-2.5201,-2.5869,0.0,0.0,0.0,0.0,0.0,0.0,0.0,-2.4465,-2.4764,-2.5401,-2.6044,-2.6607,-2.7844,-2.8799,-2.8782,0.0,0.0,-2.7043,-2.6712,-2.6725,-2.68,-2.7441,-2.7807,-2.7337,-2.7659,-2.7967,0.0,0.0,0.0,0.0,0.0,0.0,0.0,0.0,-3.4426,-3.4826,0.0,-3.5356,0.0,0.0,0.0,0.0,-3.5349,-3.5753,0.0,0.0,-3.7344,-3.781,-3.7737,-3.8315,-3.8625,-3.871,-3.908,-3.8478,-3.7046,-3.6246,0.0,0.0,0.0,0.0,0.0,0.0,-3.3703,-3.4725,-3.5015,-3.5414,-3.5849,-3.611,-3.6262,-3.6169,-3.5134,-3.4049,-3.3041,-3.2624,-3.2431,-3.2397,-3.2708,0.0,0.0,0.0,0.0,0.0,0.0,0.0,0.0,0.0,0.0,0.0,0.0,0.0,0.0,0.0,0.0,0.0,0.0,0.0,0.0,-2.4066,0.0,0.0,0.0,0.0,0.0,0.0,0.0,0.0,0.0,0.0,-2.6316,-2.5181,-2.5129,-2.7287,0.0,0.0,0.0,0.0,-2.7081,-2.7081,-2.7374,-2.7464,-2.7137,-2.6502,-2.6211,-2.6695,0.0,0.0,-2.8398,-2.912,-2.9541,-2.9558,-2.9644,-2.9593,-2.961,-2.9472,-2.9455,-2.9523,-3.011,-3.0679,-3.0732,-3.0647,-3.0628,-3.9997,0.0,0.0,0.0,0.0,-3.8567,-3.9153,-3.945,-3.945,-3.9155,-3.8656,-3.7923,0.0,0.0,0.0,0.0,0.0,0.0,-3.8643,-3.8928,-3.9936,-4.053,-4.0756,-4.1624,-4.1687,-4.105,-4.0627,-3.9903,-3.8895,-3.7612,-3.6655,-3.5959,0.0,0.0,0.0,0.0,-3.4874,-3.6504,-3.5707,-3.5794,-3.7003,-3.6297,-3.5594,-3.4832,-3.4665,-3.4083,-3.3036,-3.3115,-3.3072,-3.2836,-3.2921,0.0,0.0,0.0,0.0,0.0,0.0,0.0,0.0,0.0,0.0,0.0,0.0,0.0,0.0,0.0,0.0,0.0,0.0,0.0,-2.4342,-2.4911,-2.5394,0.0,0.0,0.0,0.0,0.0,0.0,0.0,0.0,0.0,-2.9282,-2.7725,-2.7276,0.0,0.0,-2.6669,-2.8312,-2.7558,-2.7004,-2.7472,-2.7617,0.0,-2.7557,-2.7355,-2.7449,-2.8098,-2.8788,-2.9304,-2.9371,-2.9953,-3.0499,-3.0743,-3.1225,-3.1641,-3.1813,-3.1041,-3.0593,-3.1041,-3.1748,-3.2076,-3.1646,-3.2034,-3.2124,-4.394,-4.124,-4.055,-4.0388,-4.066,-4.116,-4.1533,-4.1748,-4.1748,-4.1418,-4.0793,-4.0222,-3.9375,-3.8348,-3.8269,0.0,0.0,0.0,-4.0495,-4.0989,-4.1453,-4.1962,-4.2506,-4.3096,-4.2905,-4.1999,-4.155,-4.1084,-4.056,-3.9094,-3.8262,-3.7981,0.0,0.0,-3.6177,-3.5471,-3.5873,-3.7392,-3.6598,-3.6581,-3.7456,-3.6412,-3.5363,-3.4445,-3.4554,-3.4203,-3.3284,-3.3559,-3.3688,-3.3679,-3.3657,-3.3812,0.0,0.0,0.0,0.0,0.0,0.0,0.0,0.0,0.0,0.0,0.0,-2.8903,-2.7575,0.0,0.0,0.0,-2.7777,-2.7284,-2.6236,-2.7038,0.0,0.0,0.0,0.0,0.0,0.0,0.0,-3.011,-3.0058,-3.0386,-3.1386,-2.9819,-2.9088,-3.0462,-2.882,-2.7951,-2.9131,0.0,-2.7394,-2.7676,-2.7721,-2.7802,-2.8093,-2.8385,-2.8827,-2.9518,-2.9982,-3.0219,-3.0011,-3.0419,-3.0908,-3.1303,-3.189,-3.2605,-3.3242,-3.2852,-3.2472,-3.2679,-3.3283,-3.3628,-3.3214,-3.3438,-3.3306,-4.7138,-4.5699,-4.3657,-4.3034,-4.3318,-4.2874,-4.2573,-4.2386,-4.2403,-4.2368,-4.2299,-4.2223,-4.1757,-4.097,-4.0504,0.0,-4.0569,-4.1138,-4.1771,-4.2454,-4.2262,-4.2603,-4.3362,-4.3379,-4.2965,-4.2206,-4.2181,-4.213,-4.2016,-4.0595,-4.0215,-4.0774,-3.734,-3.5607,-3.5769,-3.6246,-3.687,-3.7646,-3.7564,-3.7439,-3.7348,-3.6339,-3.5453,-3.4763,-3.4739,-3.4426,-3.3743,-3.3987,-3.4309,-3.4682,-3.4648,-3.4798,-3.5205,0.0,0.0,0.0,0.0,0.0,0.0,0.0,0.0,0.0,0.0,0.0,0.0,0.0,0.0,0.0,-2.9518,0.0,-2.929,-2.9955,0.0,0.0,0.0,-3.1852,-3.1972,-3.1921,-3.2162,-3.2904,0.0,0.0,-3.2817,-3.154,-3.0702,-3.1295,-2.9861,-2.8937,-2.9439,-2.8814,-2.8148,-2.7989,-2.7899,-2.8126,-2.8806,-2.954,-3.0198,-3.0661,-3.062,-3.0443,-3.0288,-3.0444,-3.0825,-3.1238,-3.1953,-3.2821,-3.3928,-3.4642,-3.5076,-3.4372,-3.48,-3.5249,-3.5183,-3.4857,-3.4507,-5.0097,-4.9585,-4.7934,-4.633,-4.4967,-4.5588,-4.5847,-4.5813,-4.5796,-4.5466,-4.4875,-4.4076,-4.3074,-4.1962,-4.1876,-4.1859,-4.1876,-4.2619,-4.328,-4.3817,-4.3784,-4.4147,-4.4872,-4.4906,-4.4492,-4.3793,-4.3759,-4.3465,-4.2896,-4.1947,-4.1267,-4.0843,-3.9353,-3.8358,-3.7884,-3.7978,-3.8422,-3.9146,-3.806,-3.7089,-3.6227,-3.5951,-3.5566,-3.5085,-3.5085,-3.4878,-3.4468,-3.4516,-3.4594,-3.4712,-3.4672,-3.4973,-3.562,-3.4976,0.0,0.0,0.0,0.0,0.0,0.0,0.0,0.0,0.0,-3.161,-3.0489,0.0,-3.1398,0.0,-3.1968,-3.179,-3.0925,-3.147,0.0,0.0,-3.1987,-3.2265,-3.3406,-3.3007,-3.2938,-3.3734,-3.349,-3.3423,-3.3766,-3.3431,-3.2919,-3.2202,-3.0406,-2.9692,-3.1033,-2.9778,-2.883,-2.9237,-2.9329,-2.9443,-2.9702,-3.0707,-3.1348,-3.0969,-3.1287,-3.1258,-3.019,-3.006,-3.0374,-3.1243,-3.2223,-3.3258,-3.4286,-3.5303,-3.5939,-3.5818,-3.5921,-3.6042,-3.6025,-3.6055,-3.5879,-5.1218,-5.0562,-5.0033,-4.8896,-4.7458,-4.7709,-4.7808,-4.779,-4.7808,-4.7374,-4.6612,-4.571,-4.4915,-4.4221,-4.4246,-4.4246,-4.4273,-4.5026,-4.552,-4.5786,-4.5458,-4.5544,-4.5897,-4.5552,-4.5027,-4.4311,-4.4311,-4.4087,-4.3638,-4.2568,-4.1981,-4.1895,-4.0791,-4.0026,-3.9635,-3.9272,-3.9284,-3.9681,-3.8729,-3.7649,-3.6557,-3.6017,-3.5575,-3.5209,-3.4871,-3.4723,-3.4691,-3.4691,-3.4859,-3.5155,-3.5008,-3.5247,-3.598,-3.5484,-3.5134,0.0,0.0,0.0,0.0,0.0,0.0,0.0,0.0,0.0,0.0,0.0,-3.3053,-3.3579,-3.3571,-3.3434,-3.31,-3.3445,-3.3708,-3.3901,-3.3852,-3.4145,-3.501,-3.468,-3.4594,-3.5007,-3.4627,-3.4319,-3.4319,-3.3902,-3.34,-3.2752,-3.1553,-3.0818,-3.102,-3.0189,-2.9582,-2.9859,-3.0172,-3.0626,-3.1177,-3.1688,-3.1996,-3.1931,-3.1947,-3.1623,-3.0554,-3.0344,-3.0516,-3.1097,-3.2193,-3.3368,-3.4243,-3.5431,-3.6266,-3.6284,-3.6284,-3.6163,-3.5887,-3.5679,-3.5252,-5.1584,-5.0493,-5.0925,-5.0752,-5.0097,-4.9292,-4.8947,-4.8947,-4.8947,-4.8586,-4.7931,-4.7217,-4.6889,-4.6889,-4.6786,-4.6751,-4.6786,-4.7396,-4.7717,-4.7683,-4.7044,-4.6682,-4.6579,-4.588,-4.5165,-4.4466,-4.4449,-4.4397,-4.4294,-4.2882,-4.2504,-4.2953,-4.1636,-4.0879,-4.0717,-4.0087,-3.9732,-3.9629,-3.9276,-3.8516,-3.736,-3.634,-3.5676,-3.5351,-3.4619,-3.4422,-3.4742,-3.4684,-3.4937,-3.5605,-3.5362,-3.5504,-3.6178,-3.6087,-3.5865,0.0,-3.6218,0.0,0.0,0.0,0.0,0.0,0.0,0.0,0.0,-3.4631,-3.4904,-3.5476,-3.501,-3.4938,-3.5576,-3.5628,-3.5628,-3.5645,-3.6197,-3.6594,-3.6594,-3.6508,-3.6456,-3.6456,-3.5497,-3.4827,-3.4815,-3.4052,-3.3554,-3.3244,-3.3018,-3.2298,-3.0887,-3.0586,-3.0473,-3.02,-3.0668,-3.1494,-3.2546,-3.2498,-3.2368,-3.2854,-3.2579,-3.1843,-3.1017,-3.0872,-3.0912,-3.1094,-3.2105,-3.3237,-3.4018,-3.5269,-3.6105,-3.6195,-3.6199,-3.6048,-3.5556,-3.5062,-3.418,-5.3011,-5.2666,-5.1563,-5.1028,-5.0838,-5.0097,-4.9786,-4.9769,-4.9769,-4.97,-4.951,-4.8723,-4.8379,-4.8327,-4.7741,-4.7482,-4.7482,-4.7648,-4.7717,-4.7717,-4.7551,-4.7155,-4.6613,-4.6458,-4.5949,-4.5207,-4.5173,-4.4997,-4.4623,-4.3727,-4.2887,-4.2058,-4.1503,-4.0773,-3.9901,0.0,0.0,0.0,-3.9149,-3.8394,-3.6976,-3.671,-3.6446,-3.6086,-3.5364,0.0,-3.5087,-3.4534,-3.4431,-3.4883,-3.5085,0.0,0.0,0.0,0.0,0.0,0.0,0.0,0.0,0.0,0.0,0.0,-3.7905,-3.7473,-3.6943,-3.7409,-3.756,-3.7111,-3.7495,-3.7801,-3.7961,-3.7978,-3.7956,-3.7956,-3.806,-3.8163,-3.8168,-3.765,-3.7288,-3.7249,-3.6517,-3.5971,-3.5981,-3.6324,-3.591,-3.432,-3.4431,-3.3902,-3.1987,-3.1674,-3.1628,-3.1623,-3.172,-3.2125,-3.2975,-3.2967,-3.2935,-3.3056,-3.3016,-3.2384,-3.1276,-3.0969,-3.1179,-3.1648,-3.2229,-3.3094,-3.4316,-3.505,-3.5588,-3.5832,-3.5898,-3.5929,-3.6048,-3.5973,-3.5835,-5.3184,-5.277,-5.2408,-5.1804,0.0,-5.07,-5.0338,-5.0011,-5.0011,-5.0011,-4.9976,-4.9597,-4.9378,-4.939,-4.901,-4.8838,-4.8855,-4.881,-4.8518,-4.7889,-4.7501,-4.684,-4.5909,-4.573,-4.5463,-4.5069,-4.5069,-4.4944,-4.4657,-4.3713,-4.2751,-4.1787,-4.1254,-4.0531,-3.9653,-3.9833,-3.9767,-3.9337,-3.9151,-3.8659,-3.7893,-3.732,-3.6961,-3.6788,-3.6108,0.0,0.0,0.0,0.0,0.0,0.0,0.0,0.0,-3.73,0.0,-3.7564,-3.8619,-3.9242,-3.9169,-3.9605,-3.9853,-3.9738,-3.9738,-3.9272,-3.8112,-3.8392,-3.8577,-3.8599,-3.8594,-3.8732,-3.9077,-3.8819,-3.8594,-3.8594,-3.8594,-3.8594,-3.856,-3.8289,-3.8065,-3.7947,-3.7336,-3.6831,-3.6831,-3.6804,-3.6493,-3.5456,-3.5531,-3.5268,-3.3795,-3.2643,-3.2109,-3.2465,-3.2546,-3.2805,-3.3404,-3.3582,-3.3607,-3.3607,-3.3582,-3.3145,-3.2174,-3.2127,-3.2321,-3.2521,-3.3079,-3.3934,-3.4734,-3.5362,-3.581,-3.5985,-3.6049,-3.6088,-3.6262,-3.6025,-3.5628,-5.3218,-5.2666,-5.3184,-5.2684,-5.1511,-5.1373,-5.0959,-5.0373,-5.0114,0.0,0.0,-5.0011,-5.0011,-5.0011,-5.0011,-5.0011,-5.0011,-5.0011,-4.9382,-4.8256,-4.7661,-4.6697,-4.5412,-4.5076,-4.4806,-4.4597,-4.468,-4.4652,-4.4552,-4.3654,-4.2691,-4.1755,-4.1147,-4.0411,-3.953,-3.9444,-3.9375,-3.9375,-3.9142,-3.8969,-3.8887,-3.7975,-3.7473,-3.7489,-3.6837,-3.6497,-3.6481,-3.6689,-3.662,-3.6355,-3.7302,-3.7437,-3.6532,-3.787,-3.8418,-3.7885,-3.9123,-3.9905,-3.9922,-4.0532,-4.0894,-4.0894,-4.0894,-4.0359,-3.9117,-3.9008,-3.925,-3.9853,-3.9336,-3.929,-3.9836,-3.941,-3.9008,-3.9008,-3.9008,-3.9031,-3.9014,-3.8836,-3.8784,-3.8699,-3.8091,-3.7619,-3.7593,-3.7311,-3.6806,-3.6672,-3.6692,-3.6257,-3.5237,-3.3582,-3.2692,-3.3161,-3.3259,-3.3469,-3.3922,-3.4068,-3.4126,-3.4161,-3.4193,-3.3982,-3.3421,-3.3408,-3.34,-3.2874,-3.3814,-3.4423,-3.477,-3.5386,-3.6049,-3.6006,-3.613,-3.6255,-3.6249,-3.5835,-3.5318,-5.4287,-5.4132,-5.3632,-5.327,-5.3028,-5.2356,-5.1981,-5.1804,-5.0562,-5.0011,-5.0011,-5.0011,-5.0011,-5.0011,-5.0011,-5.0011,-5.0011,-5.0011,-4.9644,-4.9056,-4.8923,-4.7885,-4.6106,-4.6016,-4.5341,-4.4212,-4.4496,-4.4485,-4.4157,-4.4328,-4.3373,-4.1569,-4.1511,-4.0761,-3.9203,-3.8738,-3.8588,-3.8588,-3.8832,-3.8821,-3.8504,-3.8322,-3.823,-3.8213,-3.7549,-3.715,-3.7177,-3.668,-3.6344,-3.6326,-3.6765,-3.6911,-3.6804,-3.8198,-3.8976,-3.8949,-4.0051,-4.0739,-4.0739,-4.086,-4.0894,-4.0894,-4.0894,-4.0808,-4.0601,-4.0584,-4.0636,-4.0722,-4.0567,-4.0618,-4.0722,-4.0584,-4.048,-4.0532,-4.0567,-4.0567,-4.048,-3.9922,-3.9543,-3.9543,-3.8906,-3.8448,-3.8494,-3.8794,-3.8693,-3.8087,-3.792,-3.7525,-3.5729,-3.4408,-3.389,-3.3922,-3.3955,-3.4003,-3.4118,-3.4101,-3.4226,-3.457,-3.4586,-3.4332,-3.37,-3.3597,-3.3443,-3.2749,-3.3394,-3.3695,-3.3559,-3.4432,-3.5126,-3.5129,-3.5437,-3.6006,-3.6241,-3.6128,-3.6008,-5.4512,-5.4477,-5.4132,-5.3787,-5.3339,-5.2515,-5.217,-5.2136,-5.1511,-5.0976,-5.058,-5.02,-5.0011,-5.0011,-5.0011,-5.0011,-4.9982,-4.9713,-4.9082,-4.8236,-4.7924,-4.6965,-4.5579,-4.5702,-4.5263,-4.4281,-4.444,-4.4223,-4.3667,-4.3604,-4.2627,-4.0896,-4.0266,-3.9527,-3.8732,-3.8476,-3.8391,-3.8391,-3.8588,-3.8588,-3.8391,-3.8391,-3.8391,-3.8391,-3.8051,-3.7906,-3.7906,-3.7818,-3.7594,-3.7202,-3.7892,-3.8052,-3.7518,-3.8664,-3.9393,-3.9446,-4.0155,-4.0655,-4.0888,-4.0894,-4.0894,-4.0894,-4.0894,-4.0894,-4.0894,-4.0894,-4.0894,-4.0894,-4.0894,-4.0894,-4.0894,-4.0894,-4.0894,-4.0894,-4.0894,-4.0894,-4.0877,-4.0618,-4.0353,-4.0302,-3.9856,-3.9532,-3.9532,-3.9596,-3.9527,-3.8949,-3.8791,-3.7995,-3.6596,-3.5803,-3.5119,-3.4587,-3.4759,-3.4808,-3.4505,-3.4226,-3.4201,-3.4349,-3.4374,-3.4341,-3.4149,-3.4034,-3.3765,-3.3511,-3.3846,-3.3784,-3.3264,-3.4415,-3.5047,-3.4873,-3.545,-3.6045,-3.6245,-3.6008,-3.5852,-5.4512,-5.4512,-5.4512,-5.4167,-5.3598,-5.2994,-5.2705,-5.2718,-5.2563,-5.2033,-5.1291,-5.058,-5.009,-4.9848,-4.983,-4.9742,-4.9607,-4.9226,-4.8475,-4.7489,-4.7025,-4.6209,-4.5145,-4.5391,-4.5126,-4.4337,-4.4348,-4.4031,-4.3328,-4.3035,-4.2134,-4.0674,-3.9307,-3.8553,-3.8408,-3.8391,-3.8391,-3.8391,-3.8391,-3.8391,-3.8391,-3.8391,-3.8391,-3.8391,-3.8391,-3.8391,-3.8391,-3.8711,-3.8614,-3.8089,-3.8854,-3.8954,-3.8203,-3.894,-3.9539,-3.9682,-4.0071,-4.0478,-4.0864,-4.0894,-4.0894,-4.0894,-4.0894,-4.0894,-4.0894,-4.0894,-4.0894,-4.0894,-4.0894,-4.0894,-4.0894,-4.0894,-4.0894,-4.0894,-4.0894,-4.0894,-4.0894,-4.0894,-4.0894,-4.0864,-4.0551,-4.0296,-4.0337,-4.0054,-3.9673,-3.9387,-3.8908,-3.8161,-3.7308,-3.6853,-3.6296,-3.5414,-3.537,-3.5381,-3.4894,-3.448,-3.4333,-3.4308,-3.4325,-3.4431,-3.4535,-3.4446,-3.4252,-3.4192,-3.4356,-3.4215,-3.366,-3.4538,-3.5164,-3.4749,-3.5273,-3.5901,-3.568,-3.5338,-3.5214,-5.4512,-5.4512,-5.4512,-5.4477,-5.4374,-5.4287,-5.4236,-5.4101,-5.3598,-5.2856,-5.1916,-5.1338,-5.0313,-4.9385,-4.9303,-4.9043,-4.8606,-4.8511,-4.8192,-4.7721,-4.7638,-4.6946,-4.5793,-4.5777,-4.5064,-4.4009,-4.4227,-4.4035,-4.3375,-4.3604,-4.2904,-4.119,-3.9968,-3.9039,-3.8489,-3.8408,-3.8391,-3.8391,-3.8391,-3.8391,-3.8391,-3.8391,-3.8391,-3.8391,-3.8391,-3.8391,-3.8391,-3.842,-3.8415,-3.8367,-3.8467,-3.8495,-3.8432,-3.8821,-3.9242,-3.9639,-4.0045,-4.0461,-4.0847,-4.0894,-4.0894,-4.0894,-4.0894,-4.0894,-4.0894,-4.0894,-4.0894,-4.0894,-4.0894,-4.0894,-4.0894,-4.0894,-4.0894,-4.0894,-4.0894,-4.0894,-4.0894,-4.0894,-4.0894,-4.0894,-4.0551,-4.0429,-4.0648,-4.0343,-3.9874,-3.9212,-3.8635,-3.7828,-3.6939,-3.7233,-3.721,-3.6034,-3.5525,-3.5318,-3.5131,-3.4866,-3.4747,-3.4944,-3.4818,-3.4691,-3.469,-3.4804,-3.49,-3.4242,-3.4341,-3.4334,-3.4209,-3.4691,-3.4974,-3.4603,-3.4823,-3.5163,-3.4542,-3.4355,-3.4594,-5.4512,-5.4512,-5.4512,-5.4512,-5.4512,-5.4512,-5.4078,-5.3393,-5.3532,-5.2501,-5.0801,-5.0752,-5.0207,-4.9195,-4.8855,-4.8606,-4.8368,-4.8113,-4.7869,-4.7671,-4.7404,-4.6936,-4.6505,-4.6439,-4.5905,-4.4965,-4.4756,-4.4234,-4.3516,-4.2914,-4.2176,-4.1393,-4.0161,-3.936,-3.9023,-3.8618,-3.8391,-3.8391,-3.8391,-3.8391,-3.8391,-3.8391,-3.8391,-3.8391,-3.8391,-3.8391,-3.8391,-3.8391,-3.8504,-3.8738,-3.8738,-3.8985,-3.9504,-3.9418,-3.9679,-4.0286,-4.0558,-4.0728,-4.0871,-4.0894,-4.0894,-4.0894,-4.0894,-4.0894,-4.0894,-4.0894,-4.0894,-4.0894,-4.0894,-4.0894,-4.0894,-4.0894,-4.0894,-4.0894,-4.0894,-4.0894,-4.0894,-4.0894,-4.0894,-4.0871,-4.0576,-4.0355,-4.0417,-3.9978,-3.9416,-3.8892,-3.8505,-3.7877,-3.7189,-3.7421,-3.7386,-3.6894,-3.6266,-3.5783,-3.5588,-3.5241,-3.5055,-3.4913,-3.4811,-3.4691,-3.4682,-3.4317,-3.4117,-3.4125,-3.4292,-3.4136,-3.3567,-3.4669,-3.5335,-3.4816,-3.4791,-3.518,-3.5335,-3.468,-3.4525,-5.4289,-5.4271,-5.4108,-5.4028,-5.4028,-5.4028,-5.3491,-5.2771,-5.3213,-5.2219,-5.0308,-5.036,-5.004,-4.9342,-4.8754,-4.8328,-4.8016,-4.7852,-4.7651,-4.7454,-4.7064,-4.6911,-4.6911,-4.6911,-4.6504,-4.5807,-4.5095,-4.4302,-4.3411,-4.2423,-4.179,-4.145,-4.038,-3.97,-3.9428,-3.8764,-3.8391,-3.8391,-3.8391,-3.8391,-3.8391,-3.8391,-3.8391,-3.8391,-3.8391,-3.8391,-3.8391,-3.8391,-3.8532,-3.8805,-3.8832,-3.9158,-3.9867,-3.9601,-3.9833,-4.0614,-4.0864,-4.0894,-4.0894,-4.0894,-4.0894,-4.0894,-4.0894,-4.0894,-4.0894,-4.0894,-4.0894,-4.0894,-4.0894,-4.0894,-4.0894,-4.0894,-4.0894,-4.0894,-4.0894,-4.0894,-4.0894,-4.0894,-4.0894,-4.0847,-4.0419,-4.0096,-3.9985,-3.9357,-3.8717,-3.8659,-3.8232,-3.7836,-3.7318,-3.7146,-3.7146,-3.7167,-3.6628,-3.6247,-3.5958,-3.5627,-3.527,-3.5078,-3.5001,-3.4818,-3.4763,-3.4188,-3.3924,-3.4455,-3.4308,-3.4364,-3.4401,-3.5227,-3.56,-3.5044,-3.483,-3.4852,-3.4766,-3.4266,-3.4214,-5.3733,-5.3667,-5.3111,-5.2974,-5.2922,-5.294,-5.2837,-5.2635,-5.2803,-5.23,-5.1295,-5.0402,-4.9882,-4.9684,-4.904,-4.806,-4.7227,-4.771,-4.7628,-4.7044,-4.6911,-4.6911,-4.6911,-4.6911,-4.652,-4.5888,-4.5208,-4.4172,-4.2797,-4.2602,-4.2245,-4.1596,-4.0867,-4.017,-3.9619,-3.8877,-3.8424,-3.8489,-3.8424,-3.8391,-3.8391,-3.8391,-3.8391,-3.8391,-3.8391,-3.8391,-3.8408,-3.8391,-3.842,-3.8448,-3.8532,-3.8711,-3.9077,-3.9131,-3.9513,-4.0288,-4.0704,-4.0894,-4.0894,-4.0894,-4.0894,-4.0894,-4.0894,-4.0894,-4.0894,-4.0894,-4.0894,-4.0894,-4.0894,-4.0894,-4.0894,-4.0894,-4.0894,-4.0894,-4.0894,-4.0894,-4.0894,-4.0894,-4.0894,-4.0758,-4.0136,-3.9698,-3.9604,-3.8695,-3.8319,-3.8145,-3.737,-3.649,-3.6525,-3.6422,-3.6439,-3.6439,-3.6353,-3.6284,-3.6237,-3.6002,-3.5788,-3.5566,-3.5287,-3.5062,-3.4944,-3.484,-3.4807,-3.4775,-3.4723,-3.4922,-3.538,-3.5536,-3.5452,-3.4964,-3.4169,-3.4007,-3.4697,-3.3542,-3.3662,-5.4224,-5.4126,-5.3196,-5.3025,-5.3298,-5.2974,-5.2309,-5.1663,-5.2111,-5.1418,-5.0159,-4.9994,-4.9776,-4.93,-4.9512,-4.8852,-4.7686,-4.7896,-4.7605,-4.6975,-4.6911,-4.6911,-4.6911,-4.6911,-4.6813,-4.6423,-4.5775,-4.469,-4.3428,-4.3282,-4.2926,-4.2245,-4.1563,-4.1077,-4.0688,-3.97,-3.9088,-3.9039,-3.8667,-3.8391,-3.8424,-3.8391,-3.8391,-3.8391,-3.8391,-3.8391,-3.8391,-3.8644,-3.8914,-3.9152,-3.9435,-3.9773,-4.0154,-4.0221,-4.0328,-4.0631,-4.0799,-4.0894,-4.0894,-4.0894,-4.0894,-4.0894,-4.0894,-4.0894,-4.0894,-4.0894,-4.0894,-4.0894,-4.0894,-4.0894,-4.0894,-4.0894,-4.0894,-4.0894,-4.0894,-4.0894,-4.0894,-4.0894,-4.0894,-4.0707,-3.9806,-3.9143,-3.9109,-3.8035,-3.7293,-3.7905,-3.7114,-3.6418,-3.6284,-3.6284,-3.6284,-3.6284,-3.6284,-3.6284,-3.6284,-3.6199,-3.6049,-3.5849,-3.5627,-3.5385,-3.5247,-3.5131,-3.5081,-3.5243,-3.5209,-3.5389,-3.5843,-3.5921,-3.5766,-3.5611,-3.4749,-3.4352,-3.5025,-3.4283,-3.4542,-5.3732,-5.3332,-5.2592,-5.2503,-5.2835,-5.2468,-5.1779,-5.1093,-5.1536,-5.0953,-4.9941,-5.0017,-4.9936,-4.9775,-5.0001,-4.9629,-4.8706,-4.8463,-4.7945,-4.7265,-4.7024,-4.6911,-4.6911,-4.6911,-4.6911,-4.6797,-4.6147,-4.5079,-4.3864,-4.3719,-4.3298,-4.2586,-4.1905,-4.1596,-4.1401,-4.0413,-3.98,-3.9716,-3.9331,-3.9007,-3.8796,-3.8748,-3.8634,-3.8472,-3.8618,-3.8618,-3.8408,-3.8655,-3.8942,-3.9232,-3.9644,-4.0121,-4.0648,-4.084,-4.0894,-4.0894,-4.0894,-4.0894,-4.0894,-4.0894,-4.0894,-4.0894,-4.0894,-4.0894,-4.0894,-4.0894,-4.0894,-4.0894,-4.0894,-4.0894,-4.0894,-4.0894,-4.0894,-4.0894,-4.0894,-4.0894,-4.0894,-4.0894,-4.0685,-4.0192,-3.9193,-3.8756,-3.8782,-3.7487,-3.7121,-3.7752,-3.6925,-3.6335,-3.6284,-3.6284,-3.6284,-3.6284,-3.6284,-3.6284,-3.6284,-3.6241,-3.622,-3.6049,-3.5958,-3.5744,-3.5543,-3.5453,-3.543,-3.5611,-3.5805,-3.598,-3.6152,-3.6241,-3.6266,-3.6249,-3.5594,-3.4904,-3.5214,-3.5352,-3.5387,-5.2238,-5.1487,-5.1221,-5.1355,-5.1466,-5.1392,-5.1242,-5.1231,-5.1226,-5.1161,-5.0827,-5.0455,-5.0503,-5.0843,-5.0455,-5.0115,-4.992,-4.9256,-4.8573,-4.7977,-4.7232,-4.6941,-4.6989,-4.6959,-4.6911,-4.6894,-4.6196,-4.5144,-4.3945,-4.3848,-4.346,-4.2651,-4.2035,-4.1742,-4.1628,-4.0917,-4.0513,-4.0464,-4.0367,-4.0089,-3.9603,-3.9505,-3.923,-3.8699,-3.9153,-3.9201,-3.8553,-3.8545,-3.863,-3.8625,-3.892,-3.9451,-4.0263,-4.0655,-4.0871,-4.0894,-4.0894,-4.0894,-4.0894,-4.0894,-4.0894,-4.0894,-4.0894,-4.0894,-4.0894,-4.0894,-4.0894,-4.0894,-4.0894,-4.0894,-4.0894,-4.0894,-4.0894,-4.0894,-4.0894,-4.0894,-4.0894,-4.0894,-4.0494,-3.9515,-3.8666,-3.8099,-3.7912,-3.7214,-3.6894,-3.7146,-3.6806,-3.6284,-3.6284,-3.6284,-3.6284,-3.6284,-3.6284,-3.6284,-3.6284,-3.6284,-3.6284,-3.6262,-3.622,-3.6092,-3.5915,-3.5766,-3.57,-3.581,-3.5876,-3.6049,-3.6178,-3.6284,-3.6284,-3.6163,-3.5628,-3.537,-3.5508,-3.5628,-3.549,-5.2274,-5.2219,-5.1487,-5.1413,-5.1692,-5.1355,-5.1221,-5.1221,-5.1221,-5.1221,-5.1172,-5.0957,-5.0973,-5.1086,-5.0924,-5.0843,-5.0746,-4.9629,-4.8864,-4.8508,-4.7459,-4.7184,-4.7475,-4.7119,-4.6911,-4.6878,-4.6666,-4.6083,-4.5192,-4.4674,-4.4091,-4.3379,-4.265,-4.2326,-4.2261,-4.163,-4.1272,-4.1207,-4.0739,-4.0367,-4.0218,-4.0202,-4.0043,-3.9914,-4.0059,-4.0043,-3.9878,-3.9667,-3.9591,-3.9558,-3.946,-3.9679,-4.0213,-4.0412,-4.0607,-4.0847,-4.0894,-4.0894,-4.0894,-4.0894,-4.0894,-4.0894,-4.0894,-4.0894,-4.0894,-4.0894,-4.0894,-4.0894,-4.0894,-4.0894,-4.0894,-4.0894,-4.0894,-4.0894,-4.0894,-4.0894,-4.0894,-4.0877,-4.0737,-4.0274,-3.901,-3.8374,-3.8275,-3.7409,-3.653,-3.6881,-3.6582,-3.6301,-3.6284,-3.6284,-3.6284,-3.6284,-3.6284,-3.6284,-3.6284,-3.6284,-3.6284,-3.6284,-3.6284,-3.6301,-3.6152,-3.6067,-3.5985,-3.5929,-3.5994,-3.6028,-3.6172,-3.6197,-3.6146,-3.6197,-3.5921,-3.5852,-3.5921,-3.5818,-3.5611,-5.2059,-5.2112,-5.1487,-5.1392,-5.1655,-5.1317,-5.1221,-5.1221,-5.1221,-5.1221,-5.1221,-5.1221,-5.1221,-5.1221,-5.1221,-5.1221,-5.1091,-4.9936,-4.9434,-4.9127,-4.7621,-4.733,-4.7831,-4.7232,-4.6911,-4.6911,-4.6911,-4.652,-4.5807,-4.537,-4.4804,-4.4091,-4.3347,-4.3007,-4.2942,-4.2326,-4.197,-4.1889,-4.1533,-4.116,-4.095,-4.0931,-4.0756,-4.0607,-4.0756,-4.0915,-4.0883,-4.0743,-4.0529,-4.027,-4.0082,-4.0228,-4.0646,-4.0846,-4.0923,-4.0927,-4.1136,-4.1222,-4.0963,-4.0894,-4.0894,-4.0894,-4.0894,-4.0894,-4.0894,-4.0894,-4.0894,-4.0894,-4.0894,-4.0894,-4.0894,-4.0894,-4.0894,-4.0894,-4.0894,-4.0894,-4.0877,-4.0618,-4.0463,-4.0065,-3.9135,-3.855,-3.8048,-3.7587,-3.6442,-3.6613,-3.6423,-3.6284,-3.6284,-3.6284,-3.6284,-3.6284,-3.6284,-3.6284,-3.6284,-3.6284,-3.6284,-3.6284,-3.6284,-3.6284,-3.622,-3.6199,-3.6156,-3.5985,-3.5993,-3.5648,-3.5697,-3.5749,-3.5732,-3.5887,-3.5921,-3.5939,-3.5801,-3.5714,-3.5628,-5.1655,-5.1221,-5.1221,-5.1221,-5.1258,-5.1221,-5.1221,-5.1221,-5.1221,-5.1221,-5.1221,-5.1221,-5.1221,-5.1221,-5.1221,-5.1221,-5.1075,-5.039,-5.0082,-4.9564,-4.8155,-4.7378,-4.767,-4.7151,-4.6927,-4.6911,-4.6911,-4.6552,-4.6002,-4.5791,-4.5484,-4.482,-4.4156,-4.3686,-4.3524,-4.2958,-4.2602,-4.2489,-4.2489,-4.2149,-4.1693,-4.1661,-4.1401,-4.0804,-4.1322,-4.163,-4.1644,-4.161,-4.1269,-4.0615,-4.0596,-4.0862,-4.1307,-4.1772,-4.1677,-4.1267,-4.174,-4.1619,-4.1188,-4.0989,-4.0903,-4.0793,-4.0799,-4.0864,-4.0799,-4.0847,-4.0894,-4.0894,-4.0894,-4.0894,-4.0894,-4.0894,-4.0894,-4.0894,-4.0894,-4.0894,-4.0843,-4.0308,-4.0112,-3.9853,-3.9129,-3.8422,-3.7929,-3.755,-3.7051,-3.6517,-3.6314,-3.6301,-3.6284,-3.6284,-3.6284,-3.6284,-3.6284,-3.6284,-3.6284,-3.6284,-3.6284,-3.6284,-3.6284,-3.6284,-3.6284,-3.6266,-3.5887,-3.5749,-3.5663,-3.5352,-3.5145,-3.5128,-3.5128,-3.5128,-3.5283,-3.5542,-3.5594,-3.5439,-3.5611,-5.1317,-5.1221,-5.1221,-5.1221,-5.1221,-5.1221,-5.1221,-5.1221,-5.1221,-5.1221,-5.1221,-5.1221,-5.1221,-5.1221,-5.1221,-5.1221,-5.1005,-5.0455,-5.0455,-5.0503,-4.869,-4.7524,-4.7232,-4.704,-4.6911,-4.6911,-4.6911,-4.6795,-4.6568,-4.6099,-4.5759,-4.5516,-4.4852,-4.4237,-4.3751,-4.3557,-4.3136,-4.2683,-4.2619,-4.2554,-4.2407,-4.2295,-4.223,-4.2101,-4.2198,-4.2295,-4.2311,-4.2327,-4.1743,-4.064,-4.0873,-4.1233,-4.1654,-4.2123,-4.2381,-4.2494,-4.2672,-4.2534,-4.1822,-4.142,-4.1049,-4.0529,-4.051,-4.0478,-4.0478,-4.0728,-4.0847,-4.0894,-4.0894,-4.0894,-4.0894,-4.0894,-4.0894,-4.0894,-4.0946,-4.0946,-4.086,-4.0739,-4.0601,-4.0515,-3.9836,-3.9129,-3.8439,-3.784,-3.7288,-3.6594,-3.6318,-3.6284,-3.6284,-3.6284,-3.6284,-3.6284,-3.6284,-3.6284,-3.6284,-3.6284,-3.6284,-3.6284,-3.6284,-3.6301,-3.6266,-3.6232,-3.5542,-3.4904,-3.4973,-3.4766,-3.4507,-3.4369,-3.4369,-3.4369,-3.4559,-3.4783,-3.499,-3.5007,-3.5387,-5.1221,-5.1221,-5.1221,-5.1221,-5.1221,-5.1221,-5.1221,-5.1221,-5.1221,-5.1221,-5.1221,-5.1221,-5.1221,-5.1221,-5.1221,-5.1221,-5.114,-5.0746,-5.0633,-5.0325,-4.8819,-4.7653,-4.7054,-4.6911,-4.6911,-4.6911,-4.6911,-4.6911,-4.6811,-4.6439,-4.6277,-4.6131,-4.5565,-4.4998,-4.4674,-4.4269,-4.3994,-4.3573,-4.325,-4.3055,-4.3039,-4.2748,-4.2602,-4.2586,-4.2602,-4.2602,-4.2602,-4.2602,-4.2166,-4.1592,-4.156,-4.1725,-4.1993,-4.2618,-4.2943,-4.298,-4.3322,-4.3189,-4.2209,-4.1753,-4.1329,-4.0698,-4.0429,-4.0412,-4.0527,-4.0673,-4.0655,-4.0871,-4.0894,-4.0894,-4.0894,-4.0894,-4.0894,-4.0946,-4.1188,-4.1222,-4.0963,-4.0877,-4.0894,-4.0774,-4.0457,-3.9905,-3.9146,-3.8405,-3.7685,-3.6995,-3.649,-3.6387,-3.6284,-3.6284,-3.6232,-3.618,-3.6232,-3.6266,-3.6249,-3.6249,-3.6383,-3.6383,-3.6452,-3.6418,-3.6404,-3.6284,-3.537,-3.468,-3.4456,-3.4162,-3.3818,-3.3593,-3.3576,-3.3645,-3.3837,-3.4286,-3.4683,-3.4749,-3.5128,-5.1221,-5.1221,-5.1221,-5.1221,-5.1221,-5.1221,-5.1221,-5.1221,-5.1221,-5.1221,-5.1221,-5.1221,-5.1221,-5.1221,-5.1221,-5.1221,-5.1205,-5.094,-5.0406,-4.9726,-4.8657,-4.7815,-4.7184,-4.6975,-4.6927,-4.6911,-4.6911,-4.6911,-4.6894,-4.6828,-4.6878,-4.6666,-4.6164,-4.5872,-4.5516,-4.5127,-4.4901,-4.4528,-4.3881,-4.3589,-4.3411,-4.2958,-4.2619,-4.2602,-4.2602,-4.2602,-4.2602,-4.2602,-4.2522,-4.257,-4.2414,-4.2341,-4.2439,-4.3183,-4.3305,-4.3056,-4.3568,-4.352,-4.2396,-4.2056,-4.1763,-4.1123,-4.0627,-4.0531,-4.0813,-4.0822,-4.0796,-4.0888,-4.0981,-4.1119,-4.1119,-4.1067,-4.1222,-4.1412,-4.1861,-4.174,-4.1326,-4.1067,-4.0981,-4.0894,-4.0894,-4.0515,-3.9819,-3.9112,-3.8387,-3.734,-3.6891,-3.6628,-3.6422,-3.6284,-3.6146,-3.5956,-3.6077,-3.6232,-3.6215,-3.6215,-3.6396,-3.653,-3.6633,-3.6689,-3.6715,-3.6353,-3.5352,-3.4594,-3.3852,-3.33,-3.2921,-3.2783,-3.2835,-3.311,-3.3438,-3.4199,-3.4852,-3.4717,-3.4852,-5.1221,-5.1221,-5.1221,-5.1221,-5.1221,-5.1221,-5.1221,-5.1221,-5.1221,-5.1221,-5.1221,-5.1221,-5.1205,-5.1188,-5.1205,-5.1221,-5.1091,-5.0617,-4.9694,-4.856,-4.8799,-4.8382,-4.7767,-4.7281,-4.6975,-4.6959,-4.6927,-4.6911,-4.6911,-4.6911,-4.6911,-4.6862,-4.6716,-4.6358,-4.5856,-4.5726,-4.5305,-4.4787,-4.4123,-4.3848,-4.3702,-4.3072,-4.2651,-4.2602,-4.2602,-4.2602,-4.2602,-4.2602,-4.2602,-4.2679,-4.2841,-4.2903,-4.3039,-4.3556,-4.3726,-4.3681,-4.3788,-4.367,-4.2879,-4.2372,-4.205,-4.1579,-4.104,-4.0787,-4.1256,-4.1506,-4.1353,-4.1205,-4.1412,-4.1757,-4.1792,-4.1774,-4.1981,-4.2378,-4.2741,-4.2844,-4.262,-4.212,-4.1516,-4.1101,-4.0894,-4.0618,-3.9836,-3.9629,-3.8853,-3.7823,-3.7271,-3.6939,-3.6646,-3.6353,-3.6301,-3.6197,-3.6335,-3.6525,-3.6383,-3.6465,-3.6706,-3.6921,-3.7024,-3.6908,-3.6934,-3.6504,-3.5539,-3.4246,-3.2921,-3.2507,-3.23,-3.2196,-3.2265,-3.2662,-3.3128,-3.3938,-3.4507,-3.4456,-3.4869,-5.1054,-5.0886,-5.1108,-5.1054,-5.0924,-5.1092,-5.1221,-5.1221,-5.1221,-5.1221,-5.1221,-5.1221,-5.1005,-5.073,-5.0989,-5.1021,-5.0762,-5.0665,-5.0066,-4.9305,-4.9386,-4.9127,-4.8576,-4.8091,-4.7767,-4.7443,-4.7022,-4.6927,-4.6911,-4.6911,-4.6911,-4.6911,-4.6911,-4.6682,-4.6374,-4.6293,-4.6147,-4.5775,-4.5079,-4.469,-4.4561,-4.3654,-4.2861,-4.2667,-4.2602,-4.2602,-4.2602,-4.2602,-4.2602,-4.2649,-4.282,-4.2958,-4.3111,-4.3575,-4.3839,-4.3722,-4.4157,-4.3793,-4.3115,-4.2682,-4.2365,-4.1866,-4.1435,-4.1577,-4.1799,-4.2151,-4.2198,-4.2122,-4.2327,-4.2568,-4.2551,-4.2137,-4.2465,-4.3051,-4.3517,-4.3569,-4.3172,-4.2499,-4.1871,-4.1429,-4.1136,-4.0791,-4.0377,-4.0026,-3.9319,-3.8301,-3.7594,-3.721,-3.6766,-3.6559,-3.6784,-3.6801,-3.6853,-3.6853,-3.6659,-3.6745,-3.7095,-3.7353,-3.7598,-3.7342,-3.7125,-3.6521,-3.5773,-3.4484,-3.3264,-3.2231,-3.199,-3.1869,-3.2024,-3.2352,-3.2938,-3.3714,-3.4438,-3.4993,-3.5456,-5.0771,-5.0432,-5.0826,-5.0771,-5.0486,-5.0826,-5.094,-5.0978,-5.1054,-5.1054,-5.1146,-5.1146,-5.0827,-5.0406,-5.0892,-5.0746,-5.0406,-5.039,-5.0034,-4.971,-4.9645,-4.9515,-4.9139,-4.9078,-4.8868,-4.8252,-4.754,-4.7151,-4.6959,-4.6911,-4.6911,-4.6911,-4.6911,-4.6862,-4.6894,-4.6911,-4.6781,-4.6603,-4.5937,-4.5597,-4.5467,-4.4464,-4.3589,-4.2975,-4.2651,-4.2619,-4.2602,-4.2602,-4.2602,-4.2602,-4.2602,-4.2602,-4.2805,-4.3323,-4.3768,-4.3366,-4.4042,-4.4007,-4.3422,-4.3103,-4.2852,-4.2222,-4.212,-4.2331,-4.2711,-4.286,-4.2877,-4.2917,-4.2965,-4.2948,-4.3241,-4.2758,-4.281,-4.3465,-4.4173,-4.4104,-4.3569,-4.275,-4.2258,-4.1861,-4.1309,-4.0808,-4.0636,-4.0359,-3.9595,-3.8848,-3.8136,-3.7489,-3.7042,-3.6805,-3.7043,-3.7146,-3.7136,-3.7418,-3.7281,-3.7664,-3.7917,-3.806,-3.8291,-3.8155,-3.7694,-3.6954,-3.6268,-3.5063,-3.3916,-3.3022,-3.249,-3.2628,-3.2679,-3.249,-3.3197,-3.4458,-3.5166,-3.5632,-3.599,-5.0073,-4.9995,-5.0073,-5.0073,-5.005,-5.0073,-5.0168,-5.0191,-5.0502,-5.0618,-5.0656,-5.1,-5.0741,-5.0369,-5.0859,-5.073,-5.0126,-5.0001,-4.9661,-4.9447,-4.9499,-4.9515,-4.992,-4.992,-4.9807,-4.9451,-4.8544,-4.7637,-4.707,-4.6911,-4.7008,-4.6943,-4.6911,-4.6911,-4.6911,-4.6911,-4.6911,-4.6846,-4.6261,-4.5953,-4.571,-4.4998,-4.4156,-4.3443,-4.2894,-4.2635,-4.2602,-4.2602,-4.2602,-4.2602,-4.2602,-4.2602,-4.2728,-4.3141,-4.3366,-4.3456,-4.3839,-4.3999,-4.3762,-4.375,-4.395,-4.3984,-4.3593,-4.3503,-4.382,-4.3958,-4.3769,-4.3269,-4.293,-4.2792,-4.3983,-4.3448,-4.3776,-4.4578,-4.4983,-4.5052,-4.4716,-4.3751,-4.2706,-4.2206,-4.1533,-4.0894,-4.0756,-4.056,-3.9996,-3.9347,-3.8768,-3.8071,-3.7501,-3.7254,-3.726,-3.7324,-3.735,-3.7693,-3.7968,-3.8584,-3.8988,-3.8999,-3.9191,-3.9389,-3.8815,-3.7815,-3.6845,-3.6144,-3.5266,-3.4395,-3.4002,-3.3746,-3.4059,-3.4404,-3.4938,-3.5459,-3.5856,-3.6253,-3.6266,-4.9773,-4.9613,-4.9797,-4.9757,-4.9637,-4.9797,-4.9916,-4.9916,-5.0113,-5.0175,-5.0269,-5.0377,-4.9895,-4.9411,-4.9936,-5.0166,-5.0041,-5.0244,-5.0115,-5.0147,-5.0163,-5.0276,-5.0617,-5.0649,-5.039,-5.0034,-4.9337,-4.8463,-4.7556,-4.7491,-4.7232,-4.6975,-4.6911,-4.6911,-4.6911,-4.6911,-4.6911,-4.6779,-4.6536,-4.6342,-4.6212,-4.5386,-4.4464,-4.3751,-4.3039,-4.2651,-4.2602,-4.2602,-4.2602,-4.2602,-4.2602,-4.2602,-4.2759,-4.3021,-4.3323,-4.3432,-4.3756,-4.4001,-4.4001,-4.4001,-4.4066,-4.4266,-4.4196,-4.4296,-4.4521,-4.4619,-4.463,-4.4251,-4.3724,-4.363,-4.4734,-4.4113,-4.4389,-4.5113,-4.5414,-4.5388,-4.5087,-4.4009,-4.3208,-4.2442,-4.1564,-4.1013,-4.0894,-4.064,-4.0287,-3.9836,-3.9313,-3.8655,-3.7937,-3.7768,-3.767,-3.7827,-3.7941,-3.822,-3.8557,-3.8986,-3.9511,-3.9647,-3.9798,-4.0019,-3.991,-3.8904,-3.8395,-3.7923,-3.6962,-3.5891,-3.54,-3.5125,-3.57,-3.6211,-3.6387,-3.6581,-3.6667,-3.6784,-3.6853,-4.9437,-4.9194,-4.9517,-4.9477,-4.9235,-4.9477,-4.9637,-4.9637,-4.9717,-4.9757,-4.9797,-4.9813,-4.918,-4.8365,-4.8688,-4.9379,-4.9855,-5.0403,-5.0564,-5.0822,-5.0661,-5.0811,-5.1151,-5.1156,-5.0876,-5.0487,-5.0293,-4.9515,-4.8171,-4.7912,-4.754,-4.7121,-4.6911,-4.6911,-4.6911,-4.6911,-4.6911,-4.6911,-4.6911,-4.6911,-4.6587,-4.5548,-4.4642,-4.401,-4.3169,-4.2732,-4.3153,-4.2764,-4.278,-4.278,-4.2748,-4.2667,-4.2843,-4.3186,-4.3481,-4.3715,-4.3951,-4.4018,-4.4128,-4.4157,-4.4288,-4.4513,-4.4697,-4.4818,-4.491,-4.5127,-4.5311,-4.5259,-4.4552,-4.4225,-4.4716,-4.4475,-4.4448,-4.4783,-4.5066,-4.5169,-4.4841,-4.4163,-4.3408,-4.2577,-4.1606,-4.113,-4.0965,-4.0638,-4.0302,-4.0053,-3.9544,-3.9034,-3.843,-3.8264,-3.8242,-3.845,-3.863,-3.8833,-3.905,-3.9191,-3.9613,-3.9858,-3.9966,-4.0135,-4.0203,-3.9999,-3.9562,-3.9037,-3.8474,-3.7496,-3.6977,-3.662,-3.708,-3.7421,-3.7555,-3.7754,-3.7956,-3.7801,-3.7663,-4.8728,-4.8687,-4.8728,-4.8744,-4.8702,-4.8769,-4.8769,-4.8867,-4.9235,-4.9356,-4.9396,-4.9654,-4.904,-4.8187,-4.7988,-4.8498,-4.9009,-4.9496,-5.0055,-5.0605,-5.0321,-5.0521,-5.1065,-5.1221,-5.1172,-5.0908,-5.0957,-4.9855,-4.8641,-4.8204,-4.7637,-4.7054,-4.6911,-4.6911,-4.6911,-4.6911,-4.6911,-4.6911,-4.6911,-4.6911,-4.67,-4.5548,-4.5176,-4.4804,-4.3864,-4.3088,-4.3735,-4.3184,-4.2829,-4.3266,-4.2861,-4.2942,-4.3443,-4.3589,-4.4282,-4.4611,-4.462,-4.4174,-4.4497,-4.4632,-4.4686,-4.494,-4.5194,-4.5291,-4.5291,-4.53,-4.5397,-4.5363,-4.4436,-4.4074,-4.4421,-4.404,-4.3856,-4.4065,-4.449,-4.4695,-4.4565,-4.3922,-4.3233,-4.2712,-4.1781,-4.1306,-4.1001,-4.0631,-4.0279,-4.0061,-3.9758,-3.9256,-3.8815,-3.8564,-3.8526,-3.8675,-3.8959,-3.9183,-3.9488,-3.9614,-3.9858,-4.0096,-4.0163,-4.0238,-4.0263,-4.0288,-4.0263,-3.9751,-3.9275,-3.8962,-3.8442,-3.8254,-3.8477,-3.87,-3.8951,-3.9163,-3.9353,-3.9043,-3.8508,-4.8266,-4.8604,-4.8604,-4.8604,-4.8604,-4.8604,-4.8604,-4.8646,-4.8826,-4.8893,-4.8934,-4.9072,-4.8698,-4.8122,-4.8276,-4.8758,-4.9283,-4.9754,-5.0358,-5.0729,-5.0558,-5.0688,-5.1065,-5.1221,-5.1221,-5.1221,-5.1124,-5.0584,-4.9402,-4.8657,-4.8074,-4.7038,-4.6927,-4.6911,-4.6911,-4.6911,-4.6911,-4.6911,-4.6911,-4.6911,-4.6633,-4.5953,-4.5322,-4.5208,-4.3913,-4.3589,-4.3443,-4.3088,-4.2716,-4.3007,-4.2683,-4.2958,-4.3508,-4.3751,-4.4155,-4.487,-4.4719,-4.4624,-4.4896,-4.5162,-4.5205,-4.5101,-4.5238,-4.5371,-4.5414,-4.5371,-4.5371,-4.5397,-4.4714,-4.4367,-4.4343,-4.4094,-4.3928,-4.3945,-4.4058,-4.4164,-4.4136,-4.3468,-4.2847,-4.244,-4.2033,-4.1557,-4.1026,-4.0509,-4.0134,-3.9886,-3.9634,-3.9268,-3.881,-3.8481,-3.8569,-3.8761,-3.9069,-3.9387,-3.9732,-4.0002,-4.0217,-4.0387,-4.0337,-4.0387,-4.0362,-4.0337,-4.0347,-4.0347,-3.998,-3.9744,-3.9654,-3.9735,-3.9821,-4.0081,-4.0364,-4.0371,-4.0308,-3.9715,-3.9319,-4.8004,-4.8589,-4.8604,-4.8604,-4.8604,-4.8604,-4.8604,-4.8604,-4.8604,-4.8604,-4.8543,-4.8461,-4.8239,-4.814,-4.8333,-4.8569,-4.9036,-5.0199,-5.0685,-5.0864,-5.0978,-5.1022,-5.1183,-5.1221,-5.1221,-5.1221,-5.1221,-5.0681,-5.0098,-4.9467,-4.8592,-4.72,-4.7008,-4.6943,-4.6911,-4.6911,-4.6911,-4.6911,-4.6911,-4.6911,-4.6781,-4.6164,-4.5694,-4.5144,-4.4383,-4.3686,-4.3638,-4.3023,-4.2926,-4.3557,-4.3395,-4.3719,-4.4269,-4.448,-4.4804,-4.5421,-4.5472,-4.5359,-4.5419,-4.5447,-4.5414,-4.5245,-4.5147,-4.5414,-4.5397,-4.5344,-4.522,-4.5167,-4.4718,-4.4444,-4.4366,-4.4114,-4.3877,-4.3729,-4.3743,-4.3802,-4.3731,-4.3186,-4.2862,-4.2725,-4.2307,-4.1704,-4.1132,-4.0437,-3.999,-3.9721,-3.9456,-3.9268,-3.9051,-3.8849,-3.8857,-3.9103,-3.9139,-3.9402,-3.9633,-4.002,-4.0372,-4.0744,-4.0695,-4.062,-4.0605,-4.0556,-4.0523,-4.0489,-4.0616,-4.1157,-4.1474,-4.1295,-4.1133,-4.1181,-4.1213,-4.1216,-4.1032,-4.0457,-4.0129,-4.7989,-4.8604,-4.8604,-4.8604,-4.8604,-4.8604,-4.8604,-4.8604,-4.8604,-4.8604,-4.8569,-4.8106,-4.7901,-4.7883,-4.8091,-4.8155,-4.7948,-4.8907,-4.9797,-5.0269,-5.037,-5.0848,-5.1092,-5.1221,-5.1221,-5.1221,-5.1221,-5.0795,-5.0276,-5.0034,-4.9111,-4.8074,-4.7427,-4.7089,-4.6911,-4.6911,-4.6911,-4.6911,-4.6911,-4.6911,-4.6749,-4.6342,-4.6099,-4.6067,-4.5014,-4.4512,-4.6245,-4.4625,-4.3994,-4.4965,-4.4577,-4.4658,-4.5127,-4.5289,-4.5662,-4.618,-4.6408,-4.6203,-4.5996,-4.5758,-4.5607,-4.5585,-4.5501,-4.5314,-4.514,-4.4906,-4.4807,-4.4708,-4.4316,-4.399,-4.3878,-4.3783,-4.3515,-4.3352,-4.3274,-4.3317,-4.3262,-4.3003,-4.2774,-4.2909,-4.26,-4.1978,-4.1615,-4.1017,-4.0467,-4.0218,-4.0362,-4.02,-4.0018,-3.9825,-3.9588,-3.9569,-3.9358,-3.9396,-3.9404,-3.9955,-4.1042,-4.1327,-4.1268,-4.1104,-4.0974,-4.0901,-4.1127,-4.1252,-4.1559,-4.2446,-4.3037,-4.2565,-4.2213,-4.2085,-4.2049,-4.2053,-4.1981,-4.1602,-4.1257,-4.7619,-4.8604,-4.8604,-4.8604,-4.8604,-4.8604,-4.8604,-4.8604,-4.8604,-4.8785,-4.9,-4.8792,-4.8805,-4.899,-4.9292,-4.9371,-4.9481,-5.0094,-5.0432,-5.0672,-5.0902,-5.1054,-5.1183,-5.1221,-5.1221,-5.1221,-5.1205,-5.1135,-5.0827,-5.0406,-4.9953,-4.9094,-4.8091,-4.7362,-4.7087,-4.6943,-4.6911,-4.6911,-4.6911,-4.6911,-4.6862,-4.67,-4.6407,-4.6018,-4.5759,-4.5079,-4.5386,-4.4836,-4.482,-4.4998,-4.4965,-4.5338,-4.5743,-4.5856,-4.6228,-4.6779,-4.6911,-4.6749,-4.6509,-4.6192,-4.593,-4.5382,-4.5228,-4.5066,-4.4777,-4.439,-4.4288,-4.4128,-4.3869,-4.3577,-4.3506,-4.3277,-4.2968,-4.2804,-4.279,-4.2909,-4.2851,-4.268,-4.2633,-4.2782,-4.2626,-4.2261,-4.1976,-4.169,-4.1195,-4.0772,-4.0987,-4.1111,-4.0925,-4.0811,-4.0598,-4.0516,-4.0365,-4.0571,-4.0655,-4.1264,-4.1936,-4.1892,-4.1841,-4.1763,-4.1685,-4.1996,-4.2219,-4.2286,-4.2352,-4.2909,-4.3286,-4.3373,-4.3304,-4.3141,-4.3011,-4.2965,-4.281,-4.262,-4.2292,-4.7265,-4.8296,-4.8527,-4.8604,-4.8604,-4.8604,-4.8604,-4.8604,-4.8604,-4.8867,-4.9316,-4.9396,-4.9637,-4.9955,-5.0136,-4.9999,-4.999,-5.0426,-5.0655,-5.0801,-5.0908,-5.1151,-5.1221,-5.1221,-5.1221,-5.1221,-5.1221,-5.1188,-5.1086,-5.0649,-5.0276,-4.9742,-4.8949,-4.8026,-4.7362,-4.6973,-4.6927,-4.6911,-4.6911,-4.6911,-4.6911,-4.6878,-4.673,-4.6196,-4.5872,-4.5775,-4.5613,-4.537,-4.5338,-4.55,-4.5597,-4.5726,-4.5969,-4.6196,-4.6407,-4.6716,-4.6911,-4.6911,-4.6835,-4.6617,-4.6203,-4.5787,-4.5256,-4.4901,-4.444,-4.4035,-4.3781,-4.3752,-4.3486,-4.3306,-4.3276,-4.3141,-4.3019,-4.2963,-4.2706,-4.2711,-4.2711,-4.2602,-4.2602,-4.2664,-4.2443,-4.2285,-4.2252,-4.1997,-4.1739,-4.1425,-4.1671,-4.1801,-4.1765,-4.1688,-4.1646,-4.1619,-4.1605,-4.1954,-4.2334,-4.2432,-4.2475,-4.2431,-4.2431,-4.2569,-4.2654,-4.292,-4.3177,-4.3254,-4.333,-4.3424,-4.3648,-4.4018,-4.4147,-4.419,-4.4069,-4.3966,-4.3586,-4.3396,-4.312,-4.6988,-4.7681,-4.8327,-4.8589,-4.8604,-4.8604,-4.8604,-4.8604,-4.8646,-4.8949,-4.9396,-4.9717,-4.9931,-5.0034,-5.0191,-4.9976,-4.9728,-5.0285,-5.047,-5.0327,-5.086,-5.1151,-5.1221,-5.1221,-5.1221,-5.1221,-5.1221,-5.1221,-5.1221,-5.1075,-5.0697,-5.0196,-4.9451,-4.8528,-4.791,-4.7249,-4.6959,-4.6911,-4.6911,-4.6911,-4.6911,-4.6911,-4.6795,-4.6617,-4.6245,-4.6131,-4.6261,-4.6002,-4.6018,-4.6342,-4.6473,-4.6587,-4.6684,-4.6732,-4.6813,-4.6878,-4.6911,-4.6911,-4.6896,-4.665,-4.6421,-4.6157,-4.5551,-4.5056,-4.4764,-4.4135,-4.3355,-4.3358,-4.3232,-4.3216,-4.3246,-4.3216,-4.3141,-4.2988,-4.2711,-4.2539,-4.2539,-4.2476,-4.2445,-4.2318,-4.2206,-4.2126,-4.2222,-4.2221,-4.211,-4.2077,-4.2332,-4.2454,-4.2549,-4.2621,-4.2663,-4.2689,-4.2741,-4.2949,-4.3178,-4.3057,-4.3014,-4.2963,-4.31,-4.3366,-4.3383,-4.3425,-4.3718,-4.4062,-4.4139,-4.4053,-4.4389,-4.4785,-4.4734,-4.4699,-4.501,-4.4897,-4.4527,-4.4138,-4.3828,-4.6588,-4.7619,-4.785,-4.8204,-4.8573,-4.8604,-4.8604,-4.8646,-4.8949,-4.9316,-4.9717,-5.0136,-5.0502,-5.0672,-5.0695,-5.0496,-5.046,-5.0552,-5.072,-5.0688,-5.1048,-5.1151,-5.1221,-5.1221,-5.1221,-5.1221,-5.1221,-5.1221,-5.1221,-5.1221,-5.1118,-5.0681,-4.9969,-4.8819,-4.7815,-4.7281,-4.7459,-4.7024,-4.6911,-4.6911,-4.6911,-4.6911,-4.6911,-4.686,-4.6585,-4.6617,-4.686,-4.6504,-4.6633,-4.6878,-4.6911,-4.6911,-4.6911,-4.6911,-4.6911,-4.6911,-4.6911,-4.6911,-4.6894,-4.6757,-4.6514,-4.6142,-4.58,-4.5158,-4.4326,-4.3921,-4.3388,-4.303,-4.3043,-4.2996,-4.2836,-4.2836,-4.2774,-4.2758,-4.2555,-4.2429,-4.2333,-4.227,-4.219,-4.1964,-4.1785,-4.198,-4.2126,-4.2412,-4.2364,-4.2771,-4.3094,-4.3353,-4.3468,-4.366,-4.3736,-4.3764,-4.3805,-4.3938,-4.4014,-4.385,-4.3878,-4.3938,-4.4143,-4.4416,-4.4375,-4.4032,-4.4283,-4.4637,-4.4672,-4.4698,-4.4879,-4.5043,-4.5104,-4.5216,-4.5328,-4.538,-4.5018,-4.4682,-4.4406,-4.6095,-4.6927,-4.7419,-4.785,-4.8266,-4.8512,-4.8604,-4.8702,-4.9235,-4.9677,-4.9955,-5.0331,-5.0733,-5.1016,-5.1016,-5.0865,-5.0876,-5.1102,-5.0876,-5.0908,-5.1102,-5.1188,-5.1221,-5.1221,-5.1221,-5.1221,-5.1221,-5.1221,-5.1221,-5.1221,-5.0973,-5.0697,-5.0568,-4.9467,-4.8366,-4.7929,-4.7589,-4.7087,-4.6911,-4.6911,-4.6911,-4.6911,-4.6911,-4.6911,-4.6878,-4.6911,-4.6911,-4.6911,-4.6911,-4.6911,-4.6911,-4.6911,-4.6911,-4.6911,-4.6911,-4.6911,-4.6911,-4.6911,-4.6894,-4.6894,-4.6637,-4.6345,-4.6002,-4.5386,-4.4544,-4.435,-4.3978,-4.3605,-4.3136,-4.3217,-4.3281,-4.3169,-4.2797,-4.2797,-4.2685,-4.2558,-4.2158,-4.2077,-4.1884,-4.1624,-4.1522,-4.1737,-4.211,-4.2427,-4.2645,-4.3259,-4.3885,-4.4076,-4.4207,-4.431,-4.4395,-4.4361,-4.4401,-4.4438,-4.4541,-4.4606,-4.4667,-4.4889,-4.4913,-4.4896,-4.4872,-4.4497,-4.4834,-4.5113,-4.4952,-4.4875,-4.5083,-4.5239,-4.5197,-4.5224,-4.5319,-4.5353,-4.538,-4.5156,-4.4872,-4.5572,-4.5772,-4.6988,-4.7542,-4.7727,-4.8343,-4.8604,-4.8661,-4.9477,-4.9836,-4.9876,-5.0292,-5.0717,-5.1,-5.0717,-5.052,-5.0498,-5.0973,-5.0795,-5.0633,-5.0989,-5.114,-5.1221,-5.1221,-5.1221,-5.1221,-5.1221,-5.1221,-5.1221,-5.1221,-5.0843,-5.0503,-5.0795,-4.9807,-4.89,-4.8252,-4.7767,-4.7346,-4.6975,-4.6943,-4.6911,-4.6911,-4.6911,-4.6911,-4.6911,-4.6911,-4.6911,-4.6911,-4.6911,-4.6911,-4.6911,-4.6911,-4.6911,-4.6911,-4.6911,-4.6911,-4.6911,-4.6911,-4.6911,-4.6911,-4.6911,-4.6617,-4.6245,-4.5921,-4.5532,-4.503,-4.4674,-4.435,-4.4026,-4.4269,-4.4447,-4.3784,-4.3185,-4.3088,-4.2976,-4.2591,-4.2077,-4.1819,-4.161,-4.1429,-4.1309,-4.1524,-4.2062,-4.2442,-4.2827,-4.3529,-4.4001,-4.4133,-4.4281,-4.4412,-4.4497,-4.4609,-4.4648,-4.4759,-4.4841,-4.4814,-4.4803,-4.4793,-4.4737,-4.4709,-4.4765,-4.4803,-4.4886,-4.4923,-4.4978,-4.5032,-4.5113,-4.5167,-4.5177,-4.5247,-4.53,-4.5353,-4.5353,-4.5397,-4.5156,-4.5157,-4.5634,-4.6003,-4.6711,-4.7635,-4.8327,-4.8604,-4.8687,-4.9235,-4.9477,-4.9517,-5.0198,-5.0467,-5.0695,-5.0886,-5.0876,-5.0951,-5.1075,-5.1054,-5.1038,-5.1075,-5.1188,-5.1221,-5.1221,-5.1221,-5.1221,-5.1221,-5.1221,-5.1221,-5.1221,-5.0827,-5.0341,-5.0778,-4.9936,-4.9192,-4.8557,-4.8188,-4.7702,-4.72,-4.6959,-4.6911,-4.6911,-4.6911,-4.6911,-4.6911,-4.6911,-4.6911,-4.6911,-4.6911,-4.6911,-4.6911,-4.6911,-4.6911,-4.6911,-4.6911,-4.6911,-4.6911,-4.6911,-4.6911,-4.6911,-4.6911,-4.6911,-4.6668,-4.6277,-4.5937,-4.5629,-4.5338,-4.5079,-4.4771,-4.4868,-4.4917,-4.4464,-4.401,-4.388,-4.3476,-4.2686,-4.2105,-4.1398,-4.1187,-4.0859,-4.0785,-4.1309,-4.1885,-4.2406,-4.2834,-4.361,-4.403,-4.4026,-4.4281,-4.4412,-4.457,-4.4637,-4.4692,-4.472,-4.4692,-4.4665,-4.4654,-4.4671,-4.4615,-4.4615,-4.4654,-4.4709,-4.4748,-4.4803,-4.4886,-4.494,-4.5022,-4.5059,-4.5059,-4.5167,-4.5247,-4.53,-4.5353,-4.5371,-4.5294,-4.4856,-4.5203,-4.5495,-4.6372,-4.7542,-4.805,-4.8219,-4.8348,-4.8988,-4.9206,-4.9005,-4.952,-4.9812,-4.9763,-5.0177,-5.0526,-5.073,-5.1075,-5.1188,-5.1188,-5.1221,-5.1221,-5.1221,-5.1221,-5.1221,-5.1221,-5.1221,-5.1221,-5.1221,-5.1188,-5.0876,-5.0633,-5.0859,-5.0179,-4.958,-4.9192,-4.8735,-4.8171,-4.7556,-4.7073,-4.6911,-4.6911,-4.6911,-4.6911,-4.6911,-4.6911,-4.6911,-4.6911,-4.6911,-4.6911,-4.6911,-4.6911,-4.6911,-4.6911,-4.6911,-4.6911,-4.6911,-4.6911,-4.6911,-4.6911,-4.6911,-4.6911,-4.6911,-4.6666,-4.6471,-4.6245,-4.605,-4.5824,-4.55,-4.5257,-4.5241,-4.5192,-4.5026,-4.4844,-4.3839,-4.2823,-4.1952,-4.1051,-4.0611,-4.0248,-4.0492,-4.1064,-4.1627,-4.2169,-4.2582,-4.2925,-4.3075,-4.3036,-4.3556,-4.4196,-4.4412,-4.4626,-4.4626,-4.4626,-4.4598,-4.4598,-4.4598,-4.4626,-4.4598,-4.4598,-4.4598,-4.4598,-4.4682,-4.4737,-4.4793,-4.4848,-4.4858,-4.4913,-4.494,-4.5076,-4.5167,-4.5247,-4.53,-4.5371,-4.5207,-4.461,-4.4664,-4.5311,-4.6249,-4.7357,-4.7481,-4.7527,-4.7644,-4.8596,-4.8767,-4.8301,-4.8608,-4.8789,-4.9046,-4.9635,-5.0156,-5.0553,-5.1005,-5.1221,-5.1183,-5.1221,-5.1221,-5.1221,-5.1221,-5.1221,-5.1221,-5.1221,-5.1221,-5.1221,-5.1135,-5.107,-5.1021,-5.0503,-4.9964,-4.966,-4.9285,-4.8832,-4.8431,-4.7718,-4.7103,-4.6959,-4.6911,-4.6911,-4.6911,-4.6911,-4.6911,-4.6911,-4.6911,-4.6911,-4.6911,-4.6911,-4.6911,-4.6911,-4.6911,-4.6911,-4.6911,-4.6911,-4.6911,-4.6911,-4.6911,-4.6911,-4.6911,-4.6911,-4.6862,-4.6714,-4.6666,-4.6522,-4.6407,-4.6099,-4.605,-4.605,-4.5856,-4.5641,-4.5311,-4.4559,-4.3518,-4.2525,-4.1682,-4.1016,-4.0732,-4.0797,-4.128,-4.1442,-4.1947,-4.1996,-4.2201,-4.2449,-4.2411,-4.2605,-4.3514,-4.4102,-4.4389,-4.4553,-4.4553,-4.4598,-4.4598,-4.4598,-4.4598,-4.4598,-4.4598,-4.4598,-4.4598,-4.4598,-4.4654,-4.4682,-4.4654,-4.4682,-4.4765,-4.4858,-4.4968,-4.5059,-4.5177,-4.5257,-4.5292,-4.5267,-4.461,-4.4671,-4.5311,-4.5803,-4.6126,-4.6619,-4.6834,-4.6896,-4.7639,-4.762,-4.7298,-4.7949,-4.8482,-4.8678,-4.9604,-5.0246,-5.0709,-5.0822,-5.1151,-5.1146,-5.1146,-5.1092,-5.1183,-5.1108,-5.1183,-5.1221,-5.1221,-5.1183,-5.1183,-5.107,-5.0483,-4.9507,-4.9501,-4.9763,-4.9015,-4.8675,-4.8893,-4.855,-4.8236,-4.754,-4.7151,-4.6992,-4.6911,-4.6911,-4.6911,-4.6911,-4.6911,-4.6911,-4.6911,-4.6911,-4.6911,-4.6911,-4.6911,-4.6911,-4.6911,-4.6911,-4.6911,-4.6911,-4.6911,-4.6911,-4.6911,-4.6911,-4.6911,-4.6911,-4.6911,-4.6911,-4.6894,-4.6846,-4.6779,-4.683,-4.6714,-4.6421,-4.6142,-4.5711,-4.5165,-4.4095,-4.3059,-4.2307,-4.1527,-4.141,-4.134,-4.1438,-4.1572,-4.1534,-4.1508,-4.1789,-4.2251,-4.2357,-4.1971,-4.2453,-4.3454,-4.3863,-4.4367,-4.4463,-4.4553,-4.4598,-4.4598,-4.4598,-4.4598,-4.4598,-4.4598,-4.4598,-4.4598,-4.4598,-4.4598,-4.4598,-4.4626,-4.472,-4.4803,-4.4886,-4.5022,-4.514,-4.5153,-4.5181,-4.5259,-4.4402,-4.4271,-4.4849,-4.5326,-4.5634,-4.6003,-4.6157,-4.6157,-4.6249,-4.6065,-4.6051,-4.7332,-4.8106,-4.8112,-4.9106,-4.9955,-5.0304,-5.0467,-5.0509,-5.0634,-5.0902,-5.0848,-5.0902,-5.0978,-5.0864,-5.0902,-5.0902,-5.094,-5.1129,-5.0892,-5.0235,-4.9373,-4.963,-4.9229,-4.8381,-4.8984,-4.9013,-4.8707,-4.8723,-4.8343,-4.7634,-4.7297,-4.6975,-4.6911,-4.6927,-4.6927,-4.6911,-4.6911,-4.6911,-4.6911,-4.6911,-4.6911,-4.6911,-4.6911,-4.6911,-4.6911,-4.6911,-4.6911,-4.6911,-4.6911,-4.6911,-4.6911,-4.6911,-4.6911,-4.6911,-4.6911,-4.6911,-4.6878,-4.6878,-4.6878,-4.6613,-4.6302,-4.6196,-4.5875,-4.4703,-4.3451,-4.2914,-4.2478,-4.2083,-4.2068,-4.2104,-4.2215,-4.219,-4.189,-4.1836,-4.1588,-4.2033,-4.2054,-4.1723,-4.1724,-4.2618,-4.3326,-4.3805,-4.4333,-4.4553,-4.4598,-4.4598,-4.4598,-4.4598,-4.4598,-4.4598,-4.4598,-4.4598,-4.4598,-4.4598,-4.4598,-4.4626,-4.4692,-4.4748,-4.4831,-4.4995,-4.514,-4.511,-4.5061,-4.4983,-4.4225,-4.3732,-4.4348,-4.4887,-4.5349,-4.5434,-4.5464,-4.5387,-4.501,-4.4779,-4.5041,-4.7129,-4.7247,-4.727,-4.7893,-4.8559,-4.9274,-5.0101,-5.0136,-5.0347,-5.0579,-5.0771,-5.081,-5.0679,-5.0771,-5.0656,-5.0563,-5.0848,-5.1183,-5.0739,-5.0313,-5.0092,-4.9644,-4.9055,-4.9465,-4.954,-4.9218,-4.9175,-4.9181,-4.9162,-4.8497,-4.7715,-4.7313,-4.707,-4.6925,-4.6927,-4.6911,-4.6911,-4.6911,-4.6911,-4.6911,-4.6911,-4.6911,-4.6911,-4.6911,-4.6911,-4.6911,-4.6911,-4.6911,-4.6911,-4.6911,-4.6911,-4.6911,-4.6894,-4.6878,-4.6793,-4.6793,-4.6647,-4.6647,-4.6565,-4.6284,-4.5971,-4.5846,-4.5582,-4.4161,-4.3265,-4.3015,-4.2844,-4.2854,-4.2823,-4.2922,-4.3051,-4.2723,-4.2404,-4.2015,-4.1758,-4.156,-4.1514,-4.1558,-4.1805,-4.2333,-4.2813,-4.3171,-4.3722,-4.4547,-4.4423,-4.4367,-4.4598,-4.4598,-4.4598,-4.4598,-4.4598,-4.4598,-4.4598,-4.4598,-4.4598,-4.4626,-4.4665,-4.472,-4.4786,-4.4978,-4.515,-4.5153,-4.5043,-4.4708,-4.4225,-4.367,-4.4348,-4.4409,-4.4163,-4.4594,-4.4772,-4.4887,-4.5218,-4.511,-4.5195,-4.6575,-4.7406,-4.713,-4.7919,-4.8773,-4.9732,-5.0143,-5.0586,-5.0978,-5.0733,-5.0886,-5.0848,-5.0541,-5.0924,-5.0733,-5.0386,-5.0502,-5.0749,-5.0292,-4.9765,-4.9282,-4.9149,-4.8773,-4.8624,-4.8765,-4.9084,-4.9177,-4.9072,-4.8891,-4.8067,-4.7594,-4.7842,-4.7589,-4.72,-4.704,-4.6911,-4.6911,-4.6911,-4.6911,-4.6911,-4.6911,-4.6911,-4.6911,-4.6911,-4.6911,-4.6911,-4.6911,-4.6911,-4.6911,-4.6911,-4.6749,-4.6698,-4.6682,-4.6581,-4.6394,-4.6182,-4.5695,-4.5663,-4.5681,-4.5419,-4.4868,-4.4651,-4.4411,-4.351,-4.3644,-4.365,-4.3784,-4.3905,-4.3855,-4.3862,-4.363,-4.3176,-4.2724,-4.2136,-4.1887,-4.162,-4.1589,-4.1554,-4.1844,-4.222,-4.2639,-4.3013,-4.3962,-4.5067,-4.4239,-4.4076,-4.4367,-4.4598,-4.4598,-4.4598,-4.4598,-4.4598,-4.4598,-4.4598,-4.4598,-4.4626,-4.4552,-4.4725,-4.4818,-4.5042,-4.5186,-4.518,-4.5043,-4.4699]}]]